[[{"header":{"parameterUnit":"m.s-1","parameterCategory":1,"la1":30.6,"la2":28.766,"lo1":-90.7593,"lo2":-88.6598,"dy":0.0162,"dx":0.0183,"nx":116,"ny":114,"refTime":"2023-07-30T06:00:00:Z","depth":0,"parameterNumber":2,"parameterNumberName":"U-component_of_WINDS"},"data":[0.0,0.0,0.0,0.0,0.0,0.0,0.0,0.0,0.0,0.0,0.0,0.0,0.0,0.0,0.0,0.0,0.0,0.0,0.0,0.0,0.0,0.0,0.0,0.0,0.0,0.0,0.0,0.0,0.0,0.0,0.0,0.0,0.0,0.0,0.0,0.0,0.0,0.0,0.0,0.0,0.0,0.0,0.0,0.0,0.0,0.0,0.0,0.0,0.0,0.0,0.0,0.0,0.0,0.0,0.0,0.0,0.0,0.0,0.0,0.0,0.0,0.0,0.0,0.0,0.0,0.0,0.0,0.0,0.0,0.0,0.0,0.0,0.0,0.0,0.0,0.0,0.0,0.0,0.0,0.0,0.0,0.0,0.0,0.0,0.0,0.0,0.0,0.0,0.0,0.0,0.0,0.0,0.0,0.0,0.0,0.0,0.0,0.0,0.0,0.0,0.0,0.0,0.0,0.0,0.0,0.0,0.0,0.0,0.0,0.0,0.0,0.0,0.0,0.0,0.0,0.0,0.0,0.0,0.0,0.0,0.0,0.0,0.0,0.0,0.0,0.0,0.0,0.0,0.0,0.0,0.0,0.0,0.0,0.0,0.0,0.0,0.0,0.0,0.0,0.0,0.0,0.0,0.0,0.0,0.0,0.0,0.0,0.0,0.0,0.0,0.0,0.0,0.0,0.0,0.0,0.0,0.0,0.0,0.0,0.0,0.0,0.0,0.0,0.0,0.0,0.0,0.0,0.0,0.0,0.0,0.0,0.0,0.0,0.0,0.0,0.0,0.0,0.0,0.0,0.0,0.0,0.0,0.0,0.0,0.0,0.0,0.0,0.0,0.0,0.0,0.0,0.0,0.0,0.0,0.0,0.0,0.0,0.0,0.0,0.0,0.0,0.0,0.0,0.0,0.0,0.0,0.0,0.0,0.0,0.0,0.0,0.0,0.0,0.0,0.0,0.0,0.0,0.0,0.0,0.0,0.0,0.0,0.0,0.0,0.0,0.0,0.0,0.0,0.0,0.0,0.0,0.0,0.0,0.0,0.0,0.0,0.0,0.0,0.0,0.0,0.0,0.0,0.0,0.0,0.0,0.0,0.0,0.0,0.0,0.0,0.0,0.0,0.0,0.0,0.0,0.0,0.0,0.0,0.0,0.0,0.0,0.0,0.0,0.0,0.0,0.0,0.0,0.0,0.0,0.0,0.0,0.0,0.0,0.0,0.0,0.0,0.0,0.0,0.0,0.0,0.0,0.0,0.0,0.0,0.0,0.0,0.0,0.0,0.0,0.0,0.0,0.0,0.0,0.0,0.0,0.0,0.0,0.0,0.0,0.0,0.0,0.0,0.0,0.0,0.0,0.0,0.0,0.0,0.0,0.0,0.0,0.0,0.0,0.0,0.0,0.0,0.0,0.0,0.0,0.0,0.0,0.0,0.0,0.0,0.0,0.0,0.0,0.0,0.0,0.0,0.0,0.0,0.0,0.0,0.0,0.0,0.0,0.0,0.0,0.0,0.0,0.0,0.0,0.0,0.0,0.0,0.0,0.0,0.0,0.0,0.0,0.0,0.0,0.0,0.0,0.0,0.0,0.0,0.0,0.0,0.0,0.0,0.0,0.0,0.0,0.0,0.0,0.0,0.0,0.0,0.0,0.0,0.0,0.0,0.0,0.0,0.0,0.0,0.0,0.0,0.0,0.0,0.0,0.0,0.0,0.0,0.0,0.0,0.0,0.0,0.0,0.0,0.0,0.0,0.0,0.0,0.0,0.0,0.0,0.0,0.0,0.0,0.0,0.0,0.0,0.0,0.0,0.0,0.0,0.0,0.0,0.0,0.0,0.0,0.0,0.0,0.0,0.0,0.0,0.0,0.0,0.0,0.0,0.0,0.0,0.0,0.0,0.0,0.0,0.0,0.0,0.0,0.0,0.0,0.0,0.0,0.0,0.0,0.0,0.0,0.0,0.0,0.0,0.0,0.0,0.0,0.0,0.0,0.0,0.0,0.0,0.0,0.0,0.0,0.0,0.0,0.0,0.0,0.0,0.0,0.0,0.0,0.0,0.0,0.0,0.0,0.0,0.0,0.0,0.0,0.0,0.0,0.0,0.0,0.0,0.0,0.0,0.0,0.0,0.0,0.0,0.0,0.0,0.0,0.0,0.0,0.0,0.0,0.0,0.0,0.0,0.0,0.0,0.0,0.0,0.0,0.0,0.0,0.0,0.0,0.0,0.0,0.0,0.0,0.0,0.0,0.0,0.0,0.0,0.0,0.0,0.0,0.0,0.0,0.0,0.0,0.0,0.0,0.0,0.0,0.0,0.0,0.0,0.0,0.0,0.0,0.0,0.0,0.0,0.0,0.0,0.0,0.0,0.0,0.0,0.0,0.0,0.0,0.0,0.0,0.0,0.0,0.0,0.0,0.0,0.0,0.0,0.0,0.0,0.0,0.0,0.0,0.0,0.0,0.0,0.0,0.0,0.0,0.0,0.0,0.0,0.0,0.0,0.0,0.0,0.0,0.0,0.0,0.0,0.0,0.0,0.0,0.0,0.0,0.0,0.0,0.0,0.0,0.0,0.0,0.0,0.0,0.0,0.0,0.0,0.0,0.0,0.0,0.0,0.0,0.0,0.0,0.0,0.0,0.0,0.0,0.0,0.0,0.0,0.0,0.0,0.0,0.0,0.0,0.0,0.0,0.0,0.0,0.0,0.0,0.0,0.0,0.0,0.0,0.0,0.0,0.0,0.0,0.0,0.0,0.0,0.0,0.0,0.0,0.0,0.0,0.0,0.0,0.0,0.0,0.0,0.0,0.0,0.0,0.0,0.0,0.0,0.0,0.0,0.0,0.0,0.0,0.0,0.0,0.0,0.0,0.0,0.0,0.0,0.0,0.0,0.0,0.0,0.0,0.0,0.0,0.0,0.0,0.0,0.0,0.0,0.0,0.0,0.0,0.0,0.0,0.0,0.0,0.0,0.0,0.0,0.0,0.0,0.0,0.0,0.0,0.0,0.0,0.0,0.0,0.0,0.0,0.0,0.0,0.0,0.0,0.0,0.0,0.0,0.0,0.0,0.0,0.0,0.0,0.0,0.0,0.0,0.0,0.0,0.0,0.0,0.0,0.0,0.0,0.0,0.0,0.0,0.0,0.0,0.0,0.0,0.0,0.0,0.0,0.0,0.0,0.0,0.0,0.0,0.0,0.0,0.0,0.0,0.0,0.0,0.0,0.0,0.0,0.0,0.0,0.0,0.0,0.0,0.0,0.0,0.0,0.0,0.0,0.0,0.0,0.0,0.0,0.0,0.0,0.0,0.0,0.0,0.0,0.0,0.0,0.0,0.0,0.0,0.0,0.0,0.0,0.0,0.0,0.0,0.0,0.0,0.0,0.0,0.0,0.0,0.0,0.0,0.0,0.0,0.0,0.0,0.0,0.0,0.0,0.0,0.0,0.0,0.0,0.0,0.0,0.0,0.0,0.0,0.0,0.0,0.0,0.0,0.0,0.0,0.0,0.0,0.0,0.0,0.0,0.0,0.0,0.0,0.0,0.0,0.0,0.0,0.0,0.0,0.0,0.0,0.0,0.0,0.0,0.0,0.0,0.0,0.0,0.0,0.0,0.0,0.0,0.0,0.0,0.0,0.0,0.0,0.0,0.0,0.0,0.0,0.0,0.0,0.0,0.0,0.0,0.0,0.0,0.0,0.0,0.0,0.0,0.0,0.0,0.0,0.0,0.0,0.0,0.0,0.0,0.0,0.0,0.0,0.0,0.0,0.0,0.0,0.0,0.0,0.0,0.0,0.0,0.0,0.0,0.0,0.0,0.0,0.0,0.0,0.0,0.0,0.0,0.0,0.0,0.0,0.0,0.0,0.0,0.0,0.0,0.0,0.0,0.0,0.0,0.0,0.0,0.0,0.0,0.0,0.0,0.0,0.0,0.0,0.0,0.0,0.0,0.0,0.0,0.0,0.0,0.0,0.0,0.0,0.0,0.0,0.0,0.0,0.0,0.0,0.0,0.0,0.0,0.0,0.0,0.0,0.0,0.0,0.0,0.0,0.0,0.0,0.0,0.0,0.0,0.0,0.0,0.0,0.0,0.0,0.0,0.0,0.0,0.0,0.0,0.0,0.0,0.0,0.0,0.0,0.0,0.0,0.0,0.0,0.0,0.0,0.0,0.0,0.0,0.0,0.0,0.0,0.0,0.0,0.0,0.0,0.0,0.0,0.0,0.0,0.0,0.0,0.0,0.0,0.0,0.0,0.0,0.0,0.0,0.0,0.0,0.0,0.0,0.0,0.0,0.0,0.0,0.0,0.0,0.0,0.0,0.0,0.0,0.0,0.0,0.0,0.0,0.0,0.0,0.0,0.0,0.0,0.0,0.0,0.0,0.0,0.0,0.0,0.0,0.0,0.0,0.0,0.0,0.0,0.0,0.0,0.0,0.0,0.0,0.0,0.0,0.0,0.0,0.0,0.0,0.0,0.0,0.0,0.0,0.0,0.0,0.0,0.0,0.0,0.0,0.0,0.0,0.0,0.0,0.0,0.0,0.0,0.0,0.0,0.0,0.0,0.0,0.0,0.0,0.0,0.0,0.0,0.0,0.0,0.0,0.0,0.0,0.0,0.0,0.0,0.0,0.0,0.0,0.0,0.0,0.0,0.0,0.0,0.0,0.0,0.0,0.0,0.0,0.0,0.0,0.0,0.0,0.0,0.0,0.0,0.0,0.0,0.0,0.0,0.0,0.0,0.0,0.0,0.0,0.0,0.0,0.0,0.0,0.0,0.0,0.0,0.0,0.0,0.0,0.0,0.0,0.0,0.0,0.0,0.0,0.0,0.0,0.0,0.0,0.0,0.0,0.0,0.0,0.0,0.0,0.0,0.0,0.0,0.0,0.0,0.0,0.0,0.0,0.0,0.0,0.0,0.0,0.0,0.0,0.0,0.0,0.0,0.0,0.0,0.0,0.0,0.0,0.0,0.0,0.0,0.0,0.0,0.0,0.0,0.0,0.0,0.0,0.0,0.0,0.0,0.0,0.0,0.0,0.0,0.0,0.0,0.0,0.0,0.0,0.0,0.0,0.0,0.0,0.0,0.0,0.0,0.0,0.0,0.0,0.0,0.0,0.0,0.0,0.0,0.0,0.0,0.0,0.0,0.0,0.0,0.0,0.0,0.0,0.0,0.0,0.0,0.0,0.0,0.0,0.0,0.0,0.0,0.0,0.0,0.0,0.0,0.0,0.0,0.0,0.0,0.0,0.0,0.0,0.0,0.0,0.0,0.0,0.0,0.0,0.0,0.0,0.0,0.0,0.0,0.0,0.0,0.0,0.0,0.0,0.0,0.0,0.0,0.0,0.0,0.0,0.0,0.0,0.0,0.0,0.0,0.0,0.0,0.0,0.0,0.0,0.0,0.0,0.0,0.0,0.0,0.0,0.0,0.0,0.0,0.0,0.0,0.0,0.0,0.0,0.0,0.0,0.0,0.0,0.0,0.0,0.0,0.0,0.0,0.0,0.0,0.0,0.0,0.0,0.0,0.0,0.0,0.0,0.0,0.0,0.0,0.0,0.0,0.0,0.0,0.0,0.0,0.0,0.0,0.0,0.0,0.0,0.0,0.0,0.0,0.0,0.0,0.0,0.0,0.0,0.0,0.0,0.0,0.0,0.0,0.0,0.0,0.0,0.0,0.0,0.0,0.0,0.0,0.0,0.0,0.0,0.0,0.0,0.0,0.0,0.0,0.0,0.0,0.0,0.0,0.0,0.0,0.0,0.0,0.0,0.0,0.0,0.0,0.0,0.0,0.0,0.0,0.0,0.0,0.0,0.0,0.0,0.0,0.0,0.0,0.0,0.0,0.0,0.0,0.0,0.0,0.0,0.0,0.0,0.0,0.0,0.0,0.0,0.0,0.0,0.0,0.0,0.0,0.0,0.0,0.0,0.0,0.0,0.0,0.0,0.0,0.0,0.0,0.0,0.0,0.0,0.0,0.0,0.0,0.0,0.0,0.0,0.0,0.0,0.0,0.0,0.0,0.0,0.0,0.0,0.0,0.0,0.0,0.0,0.0,0.0,0.0,0.0,0.0,0.0,0.0,0.0,0.0,0.0,0.0,0.0,0.0,0.0,2.4793,2.5194,0.0,0.0,0.0,0.0,0.0,0.0,0.0,0.0,0.0,0.0,0.0,0.0,0.0,0.0,0.0,0.0,0.0,0.0,0.0,0.0,0.0,0.0,0.0,0.0,0.0,0.0,0.0,0.0,0.0,0.0,0.0,0.0,0.0,0.0,0.0,0.0,0.0,0.0,0.0,0.0,0.0,0.0,0.0,0.0,0.0,0.0,0.0,0.0,0.0,0.0,0.0,0.0,0.0,0.0,0.0,0.0,0.0,0.0,0.0,0.0,0.0,0.0,0.0,0.0,0.0,0.0,0.0,0.0,0.0,0.0,0.0,0.0,0.0,0.0,0.0,0.0,0.0,0.0,0.0,0.0,0.0,0.0,0.0,0.0,0.0,0.0,0.0,0.0,0.0,0.0,0.0,0.0,0.0,0.0,0.0,0.0,0.0,0.0,0.0,0.0,0.0,0.0,0.0,0.0,0.0,0.0,0.0,0.0,0.0,0.0,0.0,0.0,0.0,0.0,2.4504,2.4741,0.0,0.0,0.0,0.0,0.0,0.0,0.0,0.0,0.0,0.0,0.0,0.0,0.0,0.0,0.0,0.0,0.0,0.0,0.0,0.0,0.0,0.0,0.0,0.0,0.0,0.0,0.0,0.0,0.0,0.0,0.0,0.0,0.0,0.0,0.0,0.0,0.0,0.0,0.0,0.0,0.0,0.0,0.0,0.0,0.0,0.0,0.0,0.0,0.0,0.0,0.0,0.0,0.0,0.0,0.0,0.0,0.0,0.0,0.0,0.0,0.0,0.0,0.0,0.0,0.0,0.0,0.0,0.0,0.0,0.0,0.0,0.0,0.0,0.0,0.0,0.0,0.0,0.0,0.0,0.0,0.0,0.0,0.0,0.0,0.0,0.0,0.0,0.0,0.0,0.0,0.0,0.0,0.0,0.0,0.0,0.0,0.0,0.0,0.0,0.0,0.0,0.0,0.0,0.0,0.0,0.0,0.0,0.0,2.4327,2.417,2.4099,2.3876,2.3896,2.4097,2.4059,2.4057,2.4094,2.3728,0.0,0.0,0.0,0.0,0.0,0.0,0.0,0.0,0.0,0.0,0.0,0.0,0.0,0.0,0.0,0.0,0.0,0.0,0.0,0.0,0.0,0.0,0.0,0.0,0.0,0.0,0.0,0.0,0.0,0.0,0.0,0.0,0.0,0.0,0.0,0.0,0.0,0.0,2.0991,2.0991,2.1071,2.1166,0.0,0.0,0.0,0.0,0.0,0.0,0.0,0.0,0.0,0.0,0.0,0.0,0.0,0.0,0.0,0.0,0.0,0.0,0.0,0.0,0.0,0.0,0.0,0.0,0.0,0.0,0.0,0.0,0.0,0.0,0.0,0.0,0.0,0.0,0.0,0.0,0.0,0.0,0.0,0.0,0.0,0.0,0.0,0.0,2.4118,2.4118,0.0,0.0,0.0,0.0,0.0,0.0,0.0,0.0,0.0,0.0,0.0,0.0,0.0,2.4832,2.4832,2.4639,2.4388,2.41,2.3886,2.3638,2.3338,2.331,2.3315,2.3338,2.3028,0.0,2.3407,2.2937,0.0,0.0,0.0,0.0,0.0,0.0,0.0,0.0,0.0,0.0,0.0,0.0,0.0,0.0,0.0,0.0,0.0,0.0,0.0,0.0,0.0,0.0,0.0,0.0,0.0,0.0,0.0,0.0,0.0,0.0,0.0,0.0,0.0,0.0,0.0,0.0,2.0174,2.0277,2.0277,2.0277,2.0277,2.0277,1.9954,2.0097,2.052,2.0172,0.0,0.0,0.0,0.0,0.0,0.0,0.0,0.0,0.0,0.0,0.0,0.0,0.0,0.0,0.0,0.0,0.0,0.0,0.0,0.0,0.0,0.0,0.0,0.0,0.0,0.0,0.0,0.0,0.0,0.0,0.0,0.0,0.0,0.0,0.0,0.0,0.0,0.0,0.0,2.4422,2.421,2.4007,2.4007,2.4026,0.0,0.0,0.0,0.0,0.0,0.0,0.0,0.0,0.0,2.4804,2.512,2.5075,2.4642,2.4691,2.4421,2.3826,2.3136,2.272,2.2583,2.2398,2.262,2.317,2.2681,2.2644,2.2856,2.2298,2.2079,2.207,0.0,0.0,0.0,0.0,2.3187,2.3911,0.0,0.0,0.0,0.0,0.0,0.0,0.0,0.0,0.0,0.0,0.0,0.0,0.0,0.0,0.0,1.969,0.0,0.0,0.0,0.0,0.0,0.0,0.0,0.0,0.0,0.0,0.0,0.0,1.969,1.969,1.969,1.969,1.969,1.969,1.9132,1.9259,1.9828,1.9112,1.9207,0.0,0.0,0.0,0.0,0.0,0.0,0.0,0.0,0.0,0.0,0.0,0.0,0.0,0.0,0.0,0.0,0.0,0.0,0.0,0.0,0.0,0.0,0.0,0.0,0.0,0.0,0.0,0.0,0.0,0.0,0.0,0.0,0.0,0.0,0.0,0.0,0.0,0.0,2.4592,2.4468,2.393,2.3917,2.3871,0.0,0.0,0.0,0.0,0.0,0.0,2.5317,2.5236,2.5153,2.5122,2.5448,2.5349,2.4762,2.4954,2.47,2.4022,2.3223,2.2802,2.2704,2.2475,2.2789,2.3494,2.2856,2.253,2.241,2.1715,2.1339,2.1151,2.0624,2.099,2.1752,2.1373,2.191,2.2888,0.0,0.0,0.0,0.0,0.0,0.0,0.0,0.0,0.0,0.0,0.0,0.0,0.0,0.0,1.969,1.969,1.9244,1.893,0.0,0.0,0.0,0.0,0.0,0.0,0.0,0.0,0.0,1.969,1.969,1.969,1.969,1.969,1.969,1.969,1.9132,1.893,1.8954,1.8858,1.8829,1.8948,0.0,0.0,0.0,0.0,0.0,0.0,0.0,0.0,0.0,0.0,0.0,0.0,0.0,0.0,0.0,0.0,0.0,0.0,0.0,0.0,0.0,0.0,0.0,0.0,0.0,0.0,0.0,0.0,0.0,0.0,0.0,0.0,0.0,0.0,0.0,0.0,0.0,0.0,0.0,2.3648,2.3684,0.0,0.0,0.0,0.0,2.5071,2.5356,2.5855,2.6749,2.6423,2.6133,2.5935,2.5651,2.549,2.5454,2.5464,2.5279,2.4941,2.4884,2.47,2.4388,2.4357,2.4374,2.4374,2.3654,2.2889,2.2068,2.1327,2.0789,2.0309,1.9848,2.0131,2.0782,2.0735,2.1233,2.1949,0.0,0.0,0.0,0.0,0.0,0.0,0.0,0.0,0.0,0.0,0.0,0.0,0.0,1.969,1.969,1.969,1.9207,1.8893,1.8893,0.0,0.0,0.0,0.0,0.0,0.0,0.0,1.9207,1.9207,1.953,1.969,1.969,2.0139,2.0093,1.9682,1.9579,1.9308,1.8927,1.8561,1.8385,1.844,1.8783,1.9066,0.0,0.0,0.0,0.0,0.0,0.0,0.0,0.0,0.0,0.0,0.0,0.0,0.0,0.0,0.0,0.0,0.0,0.0,0.0,0.0,0.0,0.0,0.0,0.0,0.0,0.0,0.0,0.0,0.0,0.0,0.0,0.0,0.0,0.0,0.0,0.0,0.0,2.5969,2.5498,0.0,2.4424,2.3984,2.4043,2.4821,2.5243,2.5649,2.5997,2.5859,2.5754,2.5689,2.6056,2.6259,2.6204,2.651,2.6335,2.569,2.4877,2.4348,2.4097,2.377,2.405,2.4829,2.4822,2.4492,2.3934,2.3321,2.2059,2.055,2.0469,2.0528,2.07,2.079,2.109,2.1553,0.0,0.0,0.0,0.0,0.0,0.0,0.0,0.0,0.0,0.0,0.0,1.969,1.969,1.969,1.9639,1.9442,1.893,1.862,1.8649,0.0,0.0,0.0,0.0,0.0,0.0,1.9098,1.9211,1.9211,1.9541,1.9735,1.9749,2.02,2.0263,2.0035,2.0083,2.0016,1.983,1.9449,1.8872,1.8183,1.8124,1.8544,1.9196,0.0,0.0,0.0,0.0,0.0,0.0,0.0,0.0,0.0,0.0,0.0,0.0,0.0,0.0,0.0,0.0,0.0,0.0,0.0,0.0,0.0,0.0,0.0,0.0,0.0,0.0,0.0,0.0,0.0,0.0,0.0,0.0,0.0,0.0,2.7456,2.7668,2.7624,2.6964,2.6239,2.5547,2.4726,2.4529,2.5289,2.5859,2.633,2.6737,2.679,2.6854,2.6854,2.726,2.743,2.74,2.7516,2.7401,2.7087,2.6033,2.544,2.5302,2.5163,2.5425,2.6049,2.6251,2.6097,2.5715,2.533,2.4065,2.2233,2.1264,2.086,2.0769,2.0884,2.1124,2.1553,0.0,0.0,0.0,0.0,0.0,0.0,0.0,0.0,0.0,0.0,1.969,1.969,1.969,1.969,1.9479,1.8968,1.8419,1.8126,1.8183,1.7626,0.0,0.0,0.0,0.0,1.8947,1.9494,1.9809,1.9809,1.9809,1.9795,1.9853,1.9836,2.0165,2.0634,2.0647,2.0979,2.1511,2.1498,2.0257,1.8332,1.8063,1.8722,1.9699,0.0,0.0,0.0,0.0,0.0,0.0,0.0,0.0,0.0,0.0,0.0,0.0,0.0,0.0,0.0,0.0,0.0,0.0,0.0,0.0,0.0,0.0,0.0,0.0,0.0,0.0,0.0,0.0,0.0,0.0,0.0,0.0,0.0,2.6952,2.8384,2.9097,2.8384,2.7875,2.7146,2.5987,2.4989,2.5011,2.6499,2.7158,2.7995,2.9128,2.9403,2.9523,2.9557,2.9261,2.9059,2.9076,2.8538,2.8538,2.9093,2.85,2.8194,2.8178,2.8803,2.8712,2.8168,2.7975,2.7674,2.7271,2.7178,2.6481,2.5257,2.2224,2.1048,2.1007,2.1021,2.1292,2.1931,0.0,0.0,0.0,0.0,0.0,0.0,0.0,0.0,0.0,0.0,1.9207,1.9566,1.9169,1.9479,1.9479,1.8968,1.8419,1.8126,1.8183,0.0,0.0,0.0,0.0,0.0,1.9555,1.9714,1.9794,1.9794,2.0197,2.0379,2.0393,2.1267,2.1515,2.1255,2.173,2.1968,2.2046,2.1695,2.1382,2.1129,2.025,1.9659,1.9242,0.0,0.0,0.0,0.0,0.0,0.0,0.0,0.0,0.0,0.0,0.0,0.0,0.0,0.0,0.0,0.0,0.0,0.0,0.0,0.0,0.0,0.0,0.0,0.0,0.0,0.0,0.0,0.0,0.0,0.0,0.0,2.8345,2.887,2.9477,3.0294,3.0821,3.0738,3.0152,2.9206,2.781,2.6965,2.6451,2.6439,2.7348,2.8298,2.9126,2.9692,3.0224,3.07,3.0641,3.0835,3.1399,3.124,3.124,3.1376,3.0842,3.021,2.9633,2.988,2.9871,2.9666,3.007,2.9652,2.8608,2.819,2.7308,2.6081,2.5277,2.4398,2.3644,2.4119,2.4557,2.4997,0.0,0.0,0.0,0.0,0.0,0.0,0.0,0.0,0.0,0.0,1.865,1.8893,1.8612,1.8855,1.8817,1.8302,1.818,1.8038,1.786,0.0,0.0,0.0,0.0,2.0167,2.0205,2.0424,2.0489,2.0489,2.0832,2.0983,2.0996,2.1904,2.2309,2.2197,2.2819,2.3178,2.3339,2.3025,2.3075,2.3301,2.2661,2.1606,2.0295,1.9703,1.9601,1.976,1.9473,1.9679,2.0153,2.0439,0.0,0.0,0.0,0.0,0.0,0.0,0.0,0.0,0.0,0.0,0.0,0.0,0.0,0.0,0.0,0.0,0.0,0.0,0.0,0.0,0.0,0.0,0.0,0.0,2.9386,3.0183,3.161,3.1719,3.1898,3.2619,3.1516,3.0441,2.979,2.8799,2.8092,2.7756,2.8574,2.9418,3.0152,3.0751,3.158,3.256,3.2273,3.2476,3.3203,3.2656,3.2378,3.2336,3.2061,3.1373,3.0348,3.1242,3.1163,3.0347,3.1244,3.123,3.0435,2.9821,2.8973,2.7994,0.0,0.0,0.0,0.0,2.5923,2.6404,0.0,0.0,0.0,0.0,0.0,0.0,0.0,0.0,0.0,0.0,0.0,1.8066,1.8027,1.8066,1.7867,1.7353,1.7866,1.8052,0.0,0.0,0.0,1.9296,2.03,2.0853,2.0853,2.133,2.1581,2.1581,2.1581,2.1606,2.1681,2.2246,2.2799,2.3351,2.3866,2.4393,2.4908,2.4845,2.4858,2.4908,2.4845,2.3853,2.216,2.0109,1.9904,2.0604,1.9119,1.9011,1.9471,1.9123,0.0,0.0,0.0,0.0,0.0,0.0,0.0,0.0,0.0,0.0,0.0,0.0,0.0,0.0,0.0,0.0,0.0,0.0,0.0,0.0,0.0,0.0,0.0,0.0,3.019,3.081,3.3245,3.2745,3.2621,3.396,3.2427,3.1308,3.1469,3.0495,2.9786,2.9678,3.0265,3.092,3.171,3.2348,0.0,0.0,0.0,3.41,3.4742,3.3567,3.2933,3.276,3.2933,3.2284,3.1013,3.2833,3.2585,3.0815,3.1961,3.2303,3.2064,3.1299,3.0744,3.0005,2.6976,2.5963,2.6165,2.5991,2.6413,2.7209,0.0,0.0,0.0,0.0,0.0,0.0,0.0,0.0,0.0,1.6879,1.7544,1.7947,1.7504,1.7827,1.7867,1.7353,1.7866,1.8546,0.0,0.0,0.0,0.0,2.1644,2.1995,2.1995,2.2096,2.2159,2.2159,2.2159,2.2385,2.2824,2.3401,2.3966,2.4506,2.4607,2.4958,2.5423,2.4996,2.5059,2.541,2.4996,2.4079,2.277,2.1109,2.0059,1.9239,1.7345,1.6941,1.7359,1.7556,1.8515,1.9826,2.0322,0.0,0.0,0.0,0.0,0.0,0.0,0.0,0.0,0.0,0.0,0.0,0.0,0.0,0.0,0.0,0.0,0.0,0.0,0.0,0.0,3.0046,3.0551,3.1523,3.3964,3.3465,3.3102,3.399,3.3714,3.2974,3.1629,3.1737,3.1469,3.0433,3.1022,3.1909,3.315,3.388,3.4889,3.6332,3.6197,3.6197,3.6332,3.6089,3.5655,3.5004,3.5672,0.0,3.3828,3.4743,3.4374,3.2997,3.3176,3.2369,3.0888,3.013,2.9508,2.887,2.7645,2.8146,2.9406,2.8384,2.9059,3.0419,0.0,0.0,0.0,0.0,0.0,0.0,0.0,0.0,0.0,0.0,1.6951,1.7188,1.6909,1.7146,1.7188,1.6909,1.7462,0.0,0.0,2.0435,0.0,0.0,2.2171,2.2447,2.2711,2.2723,2.2723,2.2723,2.3012,2.3301,2.359,2.4418,2.4946,2.5222,2.5511,2.5937,2.6427,2.6163,2.6201,2.6414,2.6151,2.5548,2.4578,2.2503,2.1423,2.0591,1.8491,1.7866,1.7965,1.7678,1.8117,1.877,1.9147,1.9731,2.0273,0.0,0.0,0.0,0.0,0.0,0.0,0.0,0.0,0.0,0.0,0.0,0.0,0.0,0.0,2.8339,2.8656,0.0,3.0179,3.1675,3.2063,3.2736,3.4332,3.4397,3.4431,3.4824,3.4509,3.3938,3.3087,3.3663,3.3494,3.2118,3.3067,3.3792,3.4014,3.4759,3.5821,3.7269,3.6968,3.7114,3.7872,3.7131,3.6372,3.5646,3.6024,3.5412,3.4069,3.4772,3.4347,3.3018,3.2994,3.2455,3.1511,3.0851,3.0355,2.9913,2.8943,2.921,3.0014,2.969,3.0396,3.1469,0.0,0.0,0.0,0.0,0.0,0.0,0.0,0.0,0.0,0.0,1.6595,1.668,1.668,1.6752,1.6842,0.0,0.0,0.0,0.0,0.0,0.0,2.2573,2.2636,2.2799,2.3065,2.3078,2.3078,2.3078,2.3715,2.4054,2.418,2.5259,2.5824,2.595,2.6527,2.703,2.7444,2.7444,2.7444,2.7444,2.7444,2.718,2.6546,2.4408,2.3334,2.2746,2.0588,1.9775,1.9645,1.9012,1.8654,1.8537,1.8626,1.8901,1.9235,1.9244,1.9968,0.0,0.0,0.0,0.0,0.0,0.0,0.0,0.0,2.7436,2.764,2.7719,2.8627,2.9791,3.0857,3.131,3.1944,3.3309,3.3481,3.3805,3.4685,3.5142,3.549,3.5766,3.5166,3.4639,3.4503,3.5219,3.5134,3.3803,3.482,3.53,3.4697,3.5442,3.6432,3.7556,3.7173,3.7432,3.8539,3.7329,3.636,3.571,3.5744,3.5065,3.3712,3.4313,3.38,3.2453,3.2199,3.2083,3.2068,3.1574,3.1327,3.1134,3.0433,3.0148,3.0228,3.0782,3.1541,3.2366,0.0,0.0,0.0,0.0,0.0,0.0,0.0,0.0,0.0,0.0,0.0,0.0,0.0,0.0,0.0,0.0,0.0,0.0,0.0,0.0,0.0,2.3778,2.3816,2.3602,2.3078,2.3078,2.3078,2.3078,2.3715,2.4243,2.4757,2.585,2.6628,2.7118,2.767,2.7959,2.8009,2.8009,2.8009,2.8009,2.8009,2.7971,2.7846,2.7097,2.5701,2.3934,2.2412,2.1543,2.1241,2.1609,2.1064,2.0388,2.0855,2.049,1.9679,1.8913,1.9032,1.9587,2.0698,2.2565,2.4709,2.7211,2.6877,2.6761,0.0,2.9209,2.8467,2.8872,2.9507,3.0134,3.0518,3.1534,3.2624,3.3382,3.348,3.3996,3.5269,3.4963,3.514,3.6414,3.5902,3.5205,3.4539,3.5189,3.5273,3.4433,3.4528,3.4833,3.5349,3.6226,3.671,3.6806,3.7399,3.7437,3.6973,3.6781,3.6318,3.5616,3.6294,3.5872,3.4498,3.4534,3.3889,3.2524,3.1268,3.0734,3.0734,3.0633,3.0614,3.0729,3.1762,3.2183,3.2225,3.2407,3.3595,3.5064,0.0,0.0,0.0,0.0,0.0,0.0,0.0,0.0,0.0,0.0,0.0,0.0,0.0,0.0,0.0,0.0,0.0,0.0,2.3389,0.0,2.4523,2.5862,2.5127,2.4767,2.4858,2.4024,2.3791,2.4117,2.4657,2.5222,2.5799,2.6578,2.7231,2.777,2.7996,2.8285,2.8586,2.8586,2.8586,2.8586,2.8586,2.8586,2.8524,2.7971,2.7242,2.6184,2.381,2.2814,0.0,0.0,2.2029,2.1964,2.2088,2.1854,2.1239,1.9766,2.0222,2.1526,2.2881,2.4598,2.6129,2.6661,2.6778,2.6961,2.7433,2.7921,2.8258,2.8427,3.0247,3.1853,3.197,3.3217,3.4237,3.4091,3.439,3.4753,3.4925,3.5061,3.5311,3.5953,3.6144,3.606,3.5747,3.6411,3.6378,3.5168,3.6319,3.6622,3.5581,3.6676,3.7128,3.666,3.6938,3.717,3.7317,3.6896,3.6519,3.6178,3.6088,3.5707,3.5077,3.4741,3.4028,3.3049,3.2071,3.1865,3.2213,3.1824,3.1898,3.2302,3.2856,3.3593,3.4342,3.4431,3.4716,3.5087,0.0,0.0,0.0,0.0,0.0,0.0,0.0,0.0,0.0,0.0,0.0,0.0,0.0,0.0,0.0,0.0,0.0,0.0,0.0,2.4611,2.5439,2.7214,2.628,0.0,2.6118,2.5226,2.4874,2.5034,2.5724,2.6276,2.6773,2.7406,2.7946,2.8335,2.8499,2.8787,2.9164,2.9164,2.9164,2.9164,2.9164,2.9164,2.9101,2.8549,2.8235,2.7798,2.5391,2.4384,0.0,0.0,2.3018,2.3016,2.2935,2.2725,2.2229,2.0902,2.1611,2.3155,2.4248,2.5673,2.6734,2.6205,2.6711,2.7091,2.6518,2.7331,2.8418,2.9158,3.1289,3.3128,3.335,3.4641,3.5392,3.4712,3.5234,3.5534,3.4861,3.519,3.5554,3.5782,3.6275,3.6615,3.6615,3.7338,3.7175,3.5619,3.7203,3.744,3.5619,3.6768,3.71,3.6337,3.6492,3.6798,3.7175,3.6585,3.6275,3.6275,3.5797,3.5379,3.518,3.452,3.3963,3.349,3.2991,3.3051,3.3455,3.2976,3.3066,3.3514,3.3694,3.4394,3.5337,3.5776,3.5767,3.5655,0.0,0.0,0.0,0.0,0.0,0.0,0.0,0.0,0.0,0.0,0.0,0.0,0.0,0.0,0.0,0.0,0.0,0.0,0.0,2.4888,2.5768,2.7138,2.7179,2.6821,2.6131,2.6549,2.6388,2.5573,2.6691,2.7243,2.7281,2.8373,2.8888,2.8925,2.949,2.9754,2.9767,2.9767,2.9767,2.9767,2.9767,2.9767,2.9704,2.9114,2.8574,2.8034,2.7419,0.0,0.0,0.0,2.4536,2.3301,2.3301,2.2695,0.0,2.1956,2.2661,2.3459,2.3549,2.4548,2.5822,2.6368,2.6474,2.6954,2.8417,2.8831,2.9626,3.2163,3.2712,3.3127,3.406,3.5131,3.5697,3.4994,3.5781,3.6237,3.5564,3.5489,3.5782,3.6492,3.6615,3.6615,3.6615,3.7338,3.7175,3.5619,3.6228,3.6337,3.5569,3.6228,3.6275,3.5554,3.6228,3.629,3.5569,3.5569,3.5504,3.5504,3.5504,3.518,3.4519,3.386,3.3531,3.3487,3.3505,3.3464,3.3499,3.3469,3.3484,3.3559,3.4203,3.452,3.4721,3.6091,3.7033,3.7735,0.0,0.0,0.0,0.0,0.0,0.0,0.0,0.0,0.0,0.0,0.0,0.0,0.0,0.0,0.0,0.0,0.0,0.0,0.0,2.577,2.6928,2.8718,2.8311,2.7788,2.7359,2.74,2.718,2.6716,2.7457,2.8009,2.8386,2.875,2.9139,2.9515,2.9704,2.9993,3.0319,2.9942,3.0206,3.0796,3.008,3.0018,3.0231,2.9289,2.836,2.7494,0.0,0.0,0.0,0.0,0.0,0.0,2.4607,2.4897,2.5532,2.5972,2.5777,2.5635,2.6566,2.7265,2.7729,2.7603,2.7846,2.816,2.8353,2.8972,2.9785,3.0618,3.157,3.2545,3.3526,3.4228,3.49,3.5781,3.6261,3.6417,3.6193,3.6148,3.6114,3.5891,3.6275,3.6384,3.5958,3.6585,3.6798,3.629,3.6446,3.6492,3.6212,3.6446,3.649,3.6199,3.5944,3.5959,3.6186,3.5693,3.5504,3.5504,3.5504,3.5365,3.5165,3.4921,3.4816,3.4763,3.4334,3.4427,3.4801,3.4337,3.4427,3.4861,3.507,3.516,3.5254,3.5691,3.6369,3.7012,0.0,0.0,0.0,0.0,0.0,0.0,0.0,0.0,0.0,0.0,0.0,0.0,0.0,0.0,0.0,0.0,0.0,0.0,0.0,0.0,2.6782,2.8771,2.8375,2.7967,2.7699,2.7755,2.7406,2.6678,2.7761,2.835,2.8637,2.9111,2.9517,2.9792,2.9792,2.9993,3.0294,2.9942,3.0068,3.0444,2.9767,2.9578,2.9616,2.8687,2.7896,0.0,0.0,0.0,0.0,0.0,0.0,2.5962,2.566,2.6508,2.7654,2.8088,2.7823,2.759,2.8578,2.9113,2.9302,2.859,2.8855,2.9261,2.9283,2.9738,3.0277,3.0822,3.1568,3.2293,3.3041,3.3723,3.4466,3.5389,3.5904,3.6133,3.6133,3.5923,3.5878,3.6148,3.6669,3.672,3.6214,3.6883,3.7033,3.6258,3.697,3.7172,3.658,3.6794,3.6873,3.685,3.6163,3.6043,3.6499,3.5818,3.5504,3.5504,3.5504,3.5504,3.5504,3.5504,3.5504,3.5474,3.506,3.512,3.5474,3.5026,3.51,3.5504,3.5504,3.5504,3.5504,3.5504,3.5782,3.6276,0.0,0.0,0.0,0.0,0.0,0.0,0.0,0.0,0.0,0.0,0.0,0.0,0.0,0.0,0.0,0.0,0.0,0.0,0.0,0.0,0.0,2.749,2.761,2.7501,2.7183,2.7773,2.7283,2.5719,2.7572,2.843,2.8205,2.9561,3.006,2.9845,2.9845,2.9883,2.9934,2.9883,2.958,2.9151,2.8988,2.8735,2.8217,2.7637,0.0,0.0,0.0,0.0,0.0,0.0,2.5738,2.6392,2.6606,2.7485,2.8432,2.8554,2.8954,2.9389,2.9629,3.0148,3.0377,2.9407,2.9582,3.0241,3.1285,3.1129,3.1172,3.2832,3.2566,3.2307,3.2804,3.3653,3.4255,3.408,3.4913,3.5579,3.5654,3.5055,3.531,3.715,3.7506,3.7563,3.7368,3.8086,3.7793,3.5764,3.753,3.8075,3.6655,3.709,3.7428,3.7429,3.6843,3.6565,3.6602,3.5889,3.5519,3.5504,3.5504,3.5504,3.5504,3.5504,3.5504,3.5504,3.5504,3.5504,3.5504,3.5504,3.5504,3.5504,3.5504,3.5504,3.5504,3.5504,3.5504,3.5619,0.0,0.0,0.0,0.0,0.0,0.0,0.0,0.0,0.0,0.0,0.0,0.0,0.0,0.0,0.0,0.0,0.0,0.0,0.0,0.0,0.0,0.0,0.0,0.0,0.0,0.0,0.0,0.0,0.0,2.889,2.9282,2.9686,3.0011,3.0381,3.0381,3.0949,3.1742,3.077,3.1066,3.2018,0.0,3.0314,3.0546,0.0,0.0,0.0,0.0,0.0,0.0,0.0,2.7589,2.877,2.9885,3.072,3.1529,3.1999,3.2454,3.2773,3.2829,3.3139,3.3411,3.271,3.2688,3.2764,3.2696,3.2599,3.2669,3.3372,3.2542,3.2195,3.4011,3.367,3.3831,3.6134,3.6373,3.6567,3.7524,3.7075,3.6671,3.6716,3.7173,3.7285,3.6746,3.7842,3.8096,3.7008,3.7449,3.7857,3.8054,3.7639,3.7614,3.8132,3.7494,3.7413,3.794,3.6803,3.5984,3.5504,3.5504,3.5504,3.5504,3.5504,3.5504,3.5504,3.5504,3.5504,3.5504,3.5504,3.5504,3.5504,3.5504,3.5504,3.5504,3.5504,3.5504,3.5504,0.0,0.0,0.0,0.0,0.0,0.0,0.0,0.0,0.0,0.0,0.0,0.0,0.0,0.0,0.0,0.0,0.0,0.0,0.0,0.0,0.0,0.0,0.0,0.0,0.0,0.0,0.0,0.0,0.0,0.0,0.0,2.8976,2.9559,2.9761,3.0088,3.0582,3.1213,0.0,0.0,0.0,0.0,0.0,0.0,0.0,0.0,0.0,0.0,0.0,0.0,0.0,0.0,3.0514,3.1617,3.2422,3.314,3.4098,3.454,3.466,3.4842,3.521,3.5353,3.4702,3.4658,3.4781,3.4502,3.4232,3.4054,3.4005,3.3091,3.2711,3.4256,3.3774,3.3968,3.6231,3.6282,3.6507,3.7778,3.7404,3.7195,3.7719,3.7808,3.7823,3.7778,3.8478,3.8743,3.8287,3.8333,3.8424,3.8491,3.8385,3.8452,3.8841,3.8197,3.7749,3.7569,3.7147,3.6451,3.5504,3.5814,3.5799,3.5504,3.5504,3.5504,3.5504,3.5504,3.5504,3.5504,3.5504,3.5504,3.5504,3.5504,3.5504,3.5504,3.5504,3.5504,3.5504,0.0,0.0,0.0,0.0,0.0,0.0,0.0,0.0,0.0,0.0,0.0,0.0,0.0,0.0,0.0,0.0,0.0,0.0,0.0,0.0,0.0,0.0,0.0,0.0,0.0,0.0,0.0,0.0,0.0,0.0,0.0,0.0,0.0,0.0,0.0,0.0,0.0,0.0,0.0,0.0,0.0,0.0,0.0,0.0,0.0,0.0,0.0,0.0,0.0,0.0,3.1795,3.2048,3.2706,3.3365,3.4143,3.5385,3.5818,3.5985,3.6266,3.6722,3.6905,3.5927,3.6003,3.6244,3.605,3.5581,3.4989,3.4458,3.3891,3.3529,3.4074,3.4037,3.4254,3.5463,3.5489,3.5878,3.733,3.7,3.727,3.9065,3.8841,3.8721,3.923,3.9364,3.9424,3.9424,3.9527,3.9245,3.8597,3.9095,3.9424,3.9424,3.8841,3.7948,3.6737,3.7261,3.6905,3.5633,3.623,3.6215,3.5618,3.5564,3.5564,3.5654,3.5549,3.5504,3.5504,3.5504,3.5504,3.5504,3.5504,3.5504,3.5504,3.5504,3.5504,3.5504,0.0,0.0,0.0,0.0,0.0,0.0,0.0,0.0,0.0,0.0,0.0,0.0,0.0,0.0,0.0,0.0,0.0,0.0,0.0,0.0,0.0,0.0,0.0,0.0,0.0,0.0,0.0,0.0,0.0,0.0,0.0,0.0,0.0,0.0,0.0,0.0,0.0,0.0,0.0,0.0,0.0,0.0,0.0,0.0,0.0,0.0,0.0,0.0,0.0,0.0,3.3514,3.4083,3.4771,3.5429,3.6118,3.6866,3.7464,3.7928,3.7998,3.8478,3.8693,3.767,3.7025,3.6471,3.5648,3.4961,3.4505,3.471,3.4038,3.3758,3.5038,3.4134,3.392,3.5985,3.5385,3.5489,3.7883,3.7659,3.7569,3.8467,3.896,3.9065,3.8616,3.908,3.9424,3.9424,3.9448,3.9373,3.923,3.9349,3.9424,3.9424,3.9305,3.8847,3.8112,3.8169,3.756,3.6304,3.6466,3.6415,3.6274,3.5717,3.5783,3.6268,3.5708,3.5504,3.5504,3.5504,3.5504,3.5504,3.5504,3.5504,3.5504,3.5504,3.5504,3.5359,0.0,0.0,0.0,0.0,0.0,0.0,0.0,0.0,0.0,0.0,1.916,1.9371,0.0,0.0,0.0,0.0,0.0,0.0,0.0,0.0,0.0,0.0,0.0,0.0,0.0,2.5055,2.4926,2.4567,0.0,2.5749,2.6048,2.6737,2.741,2.8053,2.8757,0.0,0.0,0.0,0.0,0.0,0.0,0.0,0.0,0.0,0.0,0.0,0.0,0.0,0.0,0.0,3.3649,3.4607,3.5295,3.5729,3.6163,3.712,3.7629,3.8033,3.8736,3.917,3.9175,3.834,3.7856,3.7301,3.6216,3.5683,3.5435,3.5239,3.4806,3.4588,3.4942,3.4362,3.4322,3.5738,3.513,3.5385,3.8018,3.7823,3.7793,3.8811,3.9215,3.929,3.896,3.923,3.9424,3.9424,3.9424,3.9424,3.9424,3.9424,3.9424,3.9424,3.9424,3.9086,3.8411,3.8748,3.8281,3.6963,3.698,3.6799,3.6447,3.5804,3.5699,3.5962,3.5669,3.5504,3.5504,3.5504,3.5504,3.5504,3.5504,3.5504,3.5504,3.5504,3.5504,3.5424,0.0,0.0,0.0,0.0,0.0,0.0,0.0,1.9423,1.9466,1.8497,1.8585,1.8927,1.9475,1.9691,0.0,0.0,0.0,0.0,0.0,0.0,0.0,0.0,0.0,0.0,0.0,0.0,0.0,2.3629,2.497,0.0,0.0,0.0,0.0,0.0,2.7919,2.8382,2.8412,0.0,0.0,0.0,0.0,3.0717,0.0,0.0,0.0,0.0,0.0,0.0,0.0,0.0,3.32,3.4173,3.4861,3.537,3.5938,3.7075,3.7509,3.7883,3.9095,3.9424,3.929,3.8751,3.8392,3.7913,3.6911,3.6328,3.5904,3.5544,3.5359,3.507,3.4592,3.4472,3.4651,3.519,3.4831,3.534,3.7823,3.7853,3.8063,3.9275,3.9544,3.9574,3.9424,3.9424,3.9424,3.9424,3.9424,3.9424,3.9424,3.9424,3.9424,3.9424,3.9424,3.913,3.8602,3.9116,3.8822,3.7624,3.76,3.7395,3.6899,3.6064,3.5672,3.5599,3.5332,3.5213,3.5213,3.5213,3.5294,3.5504,3.5504,3.5504,3.5504,3.5504,3.5359,3.5133,0.0,0.0,0.0,0.0,0.0,0.0,0.0,1.9747,1.954,1.8774,1.8685,1.8715,1.8768,1.9263,0.0,0.0,0.0,0.0,0.0,0.0,0.0,0.0,0.0,0.0,0.0,0.0,0.0,2.3699,2.4946,0.0,0.0,0.0,0.0,0.0,0.0,2.7715,2.773,2.779,0.0,0.0,0.0,0.0,0.0,0.0,0.0,0.0,0.0,0.0,0.0,0.0,0.0,3.2811,3.3469,3.4936,3.6537,3.721,3.7823,3.8467,3.9215,3.9424,3.9409,3.9334,3.8407,3.7464,3.7345,3.5736,3.4467,3.5294,3.4758,3.4191,3.4465,3.4472,0.0,0.0,0.0,3.5175,3.721,3.7958,3.8571,3.9334,3.9948,4.0083,3.9484,3.9424,3.9424,3.9424,3.9424,3.9424,3.9424,3.9424,3.9424,3.9424,3.9424,3.9394,3.9292,3.9394,3.9035,3.8287,3.8314,3.8255,3.8207,3.6963,3.6271,3.5896,3.4669,3.4163,3.4163,3.4163,3.4691,3.5504,3.5504,3.5504,3.5504,3.5504,3.4905,3.4027,0.0,0.0,0.0,0.0,0.0,0.0,0.0,1.9527,1.9482,1.8594,1.8581,1.8619,1.8495,1.9441,2.0009,0.0,0.0,0.0,0.0,0.0,0.0,0.0,0.0,0.0,0.0,0.0,2.3041,2.3041,2.4312,0.0,0.0,0.0,0.0,0.0,0.0,2.7625,2.7625,2.7625,0.0,0.0,0.0,0.0,0.0,0.0,0.0,0.0,0.0,0.0,3.2452,3.2063,0.0,0.0,3.2362,3.341,0.0,0.0,3.6731,3.7464,3.8512,3.9095,3.932,3.8901,3.7823,3.6851,3.6851,3.5525,3.4564,3.5335,3.5213,3.4845,3.4528,3.4472,3.4472,0.0,3.4143,3.4577,3.6567,3.6731,3.718,3.8631,3.9035,3.926,3.9409,3.9424,3.9424,3.9424,3.9424,3.9424,3.9424,3.9424,3.9424,3.9424,3.9424,3.9424,3.9424,3.9424,3.929,3.9005,3.8564,3.8411,3.8357,3.6468,3.5514,3.5294,3.3832,3.3171,3.3171,3.3171,3.3394,3.3754,3.3754,3.3754,3.3754,3.3754,3.3533,3.3101,0.0,0.0,0.0,0.0,0.0,0.0,1.9097,1.9475,1.9454,1.8552,1.8561,1.8701,1.8669,1.9702,2.0637,2.1112,0.0,0.0,0.0,0.0,0.0,0.0,0.0,0.0,0.0,0.0,2.2705,2.2831,2.4105,2.4889,0.0,0.0,2.6674,2.6901,0.0,0.0,0.0,0.0,0.0,0.0,0.0,0.0,0.0,0.0,0.0,0.0,0.0,0.0,0.0,0.0,0.0,0.0,0.0,0.0,0.0,0.0,3.5699,3.6499,3.7767,3.8427,3.8706,3.8212,3.715,3.6193,3.6193,3.51,3.4273,3.5036,3.5145,3.4866,3.4274,3.4517,3.4651,0.0,3.4128,3.4651,3.6252,3.6252,3.6567,3.7943,3.8272,3.8497,3.8796,3.9005,3.92,3.9409,3.9424,3.9424,3.9424,3.9424,3.9424,3.9424,3.9424,3.9424,3.9424,3.9424,3.9424,3.9409,3.8931,3.8676,3.8657,3.6514,3.5267,3.4782,3.3132,3.2341,3.2177,3.2177,3.2321,3.2593,3.2593,3.2593,3.2593,3.2593,3.2393,3.2177,0.0,0.0,0.0,0.0,0.0,0.0,0.0,1.9798,1.9527,1.878,1.8715,1.8929,1.9531,2.0056,2.0928,2.2189,0.0,0.0,0.0,0.0,0.0,0.0,0.0,0.0,0.0,0.0,2.2842,2.3369,2.4736,2.5769,2.6481,2.6496,2.6864,2.761,0.0,0.0,0.0,0.0,0.0,0.0,0.0,0.0,0.0,0.0,0.0,0.0,0.0,0.0,0.0,0.0,0.0,0.0,0.0,0.0,0.0,0.0,3.5019,3.5769,3.7134,3.7496,3.7434,3.7419,3.6462,3.5519,3.5519,3.4303,3.3398,3.4345,3.4222,3.392,3.3538,3.4592,3.5055,3.3724,3.4622,3.5714,3.6387,3.7,3.7404,3.7419,3.8003,3.8138,3.7494,3.8018,3.8691,3.9364,3.9424,3.9424,3.9424,3.9424,3.9424,3.9424,3.9424,3.9424,3.9424,3.9424,3.9424,3.9424,3.9409,3.9409,3.9307,3.7594,3.596,3.4477,3.2733,3.1708,3.118,3.118,3.1742,3.2593,3.2593,3.2593,3.2593,3.2593,3.2033,3.118,0.0,0.0,0.0,0.0,0.0,0.0,0.0,1.9798,1.9695,1.9475,1.9475,1.9537,1.9723,2.0575,2.1319,2.1732,0.0,0.0,0.0,0.0,0.0,0.0,0.0,0.0,0.0,0.0,0.0,2.263,2.3989,2.4794,2.5007,2.5508,2.6122,2.6826,2.6826,2.7137,0.0,0.0,0.0,0.0,0.0,0.0,3.1482,0.0,0.0,0.0,0.0,0.0,0.0,0.0,0.0,0.0,0.0,0.0,0.0,0.0,0.0,3.445,3.5799,3.6128,3.622,3.6679,3.5453,3.4367,3.5295,3.4431,3.3739,3.4916,3.513,3.4866,3.4259,3.4891,3.522,3.4307,3.4921,3.5579,3.5789,3.6372,3.6941,3.736,3.8407,3.9005,3.8811,3.8975,3.9185,3.9409,3.9424,3.9424,3.9424,3.9424,3.9424,3.9424,3.9424,3.9424,3.9424,3.9424,3.9424,3.9424,3.9424,3.9155,3.8616,3.6343,3.4762,3.3767,3.1507,3.0369,3.0203,3.0203,3.0419,3.0709,3.0709,3.0709,3.0709,3.0709,3.0495,3.0203,0.0,0.0,0.0,0.0,0.0,0.0,0.0,1.9798,1.9798,1.9798,1.9798,1.9886,2.01,2.0941,2.1568,2.1782,0.0,0.0,0.0,0.0,0.0,0.0,0.0,0.0,0.0,0.0,2.2071,2.2623,2.3423,2.4002,2.4292,2.4794,2.5398,2.6068,2.6068,2.6496,0.0,0.0,0.0,0.0,0.0,0.0,3.0821,0.0,0.0,0.0,0.0,0.0,0.0,0.0,0.0,0.0,0.0,0.0,0.0,0.0,3.2798,3.317,0.0,3.5344,3.5246,3.563,3.441,3.3335,3.4188,3.3724,3.3365,3.4203,3.4771,3.4906,3.4233,3.4876,3.528,3.4592,3.5055,3.5504,3.5504,3.6073,3.6716,3.7345,3.8153,3.8751,3.9005,3.9035,3.914,3.9394,3.9424,3.9424,3.9424,3.9424,3.9424,3.9424,3.9424,3.9424,3.9424,3.9424,3.9424,3.9409,3.8765,3.8294,3.7809,3.5185,3.3663,3.2989,3.0971,2.998,0.0,2.9792,2.9792,2.9792,2.9792,2.9792,2.9792,2.9792,2.9792,2.9792,0.0,0.0,0.0,0.0,0.0,0.0,0.0,0.0,0.0,0.0,1.9836,2.0075,2.0655,2.1192,2.1757,0.0,0.0,0.0,0.0,0.0,0.0,0.0,0.0,0.0,0.0,2.2309,2.2585,2.3078,2.3027,2.3446,2.4234,2.4195,2.4584,2.5342,2.5342,2.5811,0.0,0.0,0.0,0.0,0.0,0.0,0.0,0.0,0.0,0.0,0.0,0.0,0.0,0.0,0.0,0.0,0.0,0.0,0.0,0.0,0.0,0.0,0.0,3.4861,3.4315,3.4415,3.3419,3.2452,3.2497,3.2512,0.0,3.2572,3.3559,3.4218,3.3604,3.4562,3.522,3.4577,3.5055,3.5504,3.5504,3.6103,3.6791,3.7404,3.7524,3.7778,3.8332,3.8437,3.8736,3.9364,3.9424,3.9424,3.9424,3.9424,3.9337,3.9265,3.9265,3.9337,3.9424,3.9424,3.9394,3.9277,3.7711,3.6965,3.6735,3.4149,3.2643,3.2101,3.0993,3.0269,2.9792,2.9792,2.9792,2.9792,2.9702,2.9702,2.9702,2.9624,2.9624,2.9702,0.0,0.0,0.0,0.0,0.0,0.0,0.0,0.0,0.0,0.0,0.0,2.0567,2.0706,2.1531,0.0,0.0,0.0,0.0,0.0,0.0,0.0,0.0,0.0,0.0,0.0,2.2309,2.2585,2.3078,2.2711,2.277,2.3352,2.2992,2.3412,2.4567,2.4567,0.0,0.0,0.0,0.0,0.0,0.0,0.0,0.0,0.0,0.0,0.0,2.9579,2.9579,0.0,0.0,0.0,0.0,0.0,0.0,0.0,0.0,3.1927,3.2617,3.3754,0.0,3.2448,3.3549,3.2761,3.1898,0.0,0.0,0.0,0.0,0.0,0.0,3.3529,3.4158,3.4666,3.4502,3.5055,3.5504,3.5504,3.6477,3.7434,3.8078,3.8631,3.8796,3.8422,3.8871,3.9245,3.9409,3.9424,3.9424,3.9424,3.9424,3.9017,3.8234,3.8144,3.8546,3.9424,3.9424,3.8969,3.8206,3.7375,3.6265,3.4926,3.3221,3.2057,3.1391,3.0407,2.9917,2.9792,2.9792,2.9792,2.9702,2.8858,2.8518,2.8438,2.7545,2.7787,2.8347,0.0,0.0,0.0,0.0,0.0,0.0,0.0,0.0,0.0,0.0,0.0,0.0,0.0,0.0,0.0,0.0,0.0,0.0,0.0,0.0,0.0,0.0,0.0,0.0,0.0,2.2686,2.2836,2.3078,2.2836,2.2836,2.3065,2.2824,2.3073,2.3767,2.4118,0.0,0.0,0.0,0.0,0.0,3.0191,0.0,0.0,0.0,0.0,0.0,2.8652,2.8457,0.0,2.8562,2.8457,2.8308,0.0,0.0,0.0,0.0,3.0914,3.1428,3.2437,3.2338,3.216,3.2933,3.2312,3.1571,0.0,0.0,0.0,0.0,0.0,0.0,0.0,3.4038,3.4577,3.4906,3.4896,3.4794,3.4665,3.5565,3.6649,3.7676,3.8493,3.8931,3.8871,3.92,3.9424,3.9424,3.9125,3.8945,3.8945,3.8945,3.847,3.7382,3.767,3.7829,3.7965,3.769,3.7301,3.6649,3.5404,3.4286,3.3362,3.1821,3.0905,3.0558,2.9998,2.9792,2.9792,2.9197,2.9028,2.8937,2.7775,2.7371,2.7279,2.6719,2.6883,2.7279,0.0,0.0,0.0,0.0,0.0,0.0,0.0,0.0,0.0,0.0,0.0,0.0,0.0,0.0,0.0,0.0,0.0,0.0,0.0,0.0,0.0,0.0,0.0,0.0,2.2887,2.299,2.3027,2.2952,2.2952,2.299,2.3078,2.299,2.299,2.3138,2.3916,0.0,0.0,0.0,2.7106,2.8483,2.9011,0.0,0.0,0.0,0.0,0.0,0.0,0.0,0.0,2.738,2.72,2.6931,2.8083,0.0,0.0,0.0,0.0,0.0,3.0968,3.1759,3.2338,3.2431,3.1835,3.124,0.0,0.0,0.0,0.0,0.0,0.0,0.0,3.3886,3.4513,3.5014,3.4414,3.3873,3.3779,3.4467,3.544,3.6616,3.7492,3.8335,3.8969,3.9118,3.9192,3.9424,3.8781,3.8322,3.8165,3.8061,3.7474,3.6248,3.6788,3.6522,3.5503,3.5393,3.532,3.5167,3.3139,3.214,3.194,3.0457,2.9792,2.9792,2.9624,2.9534,2.9456,2.8347,2.782,2.7716,2.6685,2.6202,2.6202,2.6058,2.6058,2.6307,0.0,0.0,0.0,0.0,0.0,0.0,0.0,0.0,0.0,0.0,0.0,0.0,0.0,0.0,0.0,0.0,0.0,0.0,0.0,0.0,0.0,0.0,0.0,2.2698,2.1757,2.2661,2.2912,2.2435,2.2435,2.2673,2.3065,2.2661,2.2686,2.3163,2.3763,2.4764,2.5977,2.6516,2.7615,2.8914,2.9011,0.0,0.0,0.0,0.0,0.0,0.0,0.0,0.0,2.7595,2.75,2.7455,2.7715,0.0,0.0,0.0,0.0,0.0,2.9847,3.0328,3.0976,3.1628,3.0799,2.9879,2.9879,0.0,0.0,0.0,0.0,0.0,0.0,3.3033,3.349,3.3127,3.3322,3.3647,3.4181,3.4871,3.5363,3.5558,3.6158,3.6682,3.7199,3.7736,3.8383,3.9337,3.8781,3.8009,3.7274,3.6664,3.5534,3.3678,3.3695,3.3212,3.2136,3.427,3.4946,3.401,3.2793,3.1711,3.0842,3.0163,2.9792,2.9792,2.8767,2.8347,2.8267,2.7209,2.6758,2.6656,2.5539,2.5093,2.4935,2.3943,2.4221,2.521,0.0,0.0,0.0,0.0,0.0,0.0,0.0,0.0,0.0,0.0,0.0,0.0,0.0,0.0,0.0,0.0,0.0,0.0,0.0,0.0,0.0,0.0,2.3078,2.2899,2.2385,2.2874,2.2952,2.2761,2.2761,2.2887,2.3065,2.2874,2.3062,2.3615,2.3879,2.4697,2.5872,2.6064,2.7,2.8298,0.0,0.0,0.0,0.0,0.0,0.0,0.0,0.0,0.0,0.0,2.7335,2.7036,2.7036,0.0,0.0,0.0,0.0,0.0,2.8846,2.8981,2.8996,2.9325,2.9744,3.0088,3.0088,0.0,0.0,0.0,0.0,0.0,0.0,3.2474,3.2558,3.1915,3.2509,3.2948,3.2383,3.3247,3.4119,3.4443,3.5186,3.5911,3.6416,3.6761,3.7034,3.7189,3.6632,3.5882,3.519,3.4893,3.3993,3.2537,3.2777,3.2475,3.1386,3.2316,3.2581,3.2027,3.1255,3.0663,3.0175,2.9308,2.884,2.8858,2.7695,2.7209,2.7128,2.6047,2.5565,2.5467,2.4299,2.3902,2.3826,2.329,2.3474,2.3963,0.0,0.0,0.0,0.0,0.0,0.0,0.0,0.0,0.0,0.0,0.0,0.0,0.0,0.0,0.0,0.0,0.0,0.0,0.0,0.0,2.3078,2.3078,2.3078,2.3015,2.2949,2.3015,2.3015,2.2877,2.3015,2.3078,2.3078,2.3078,2.3376,2.3803,2.3941,2.4456,2.5234,2.5485,2.6225,2.7222,0.0,0.0,0.0,0.0,0.0,0.0,0.0,0.0,0.0,0.0,0.0,0.0,0.0,0.0,0.0,2.6811,2.6811,2.7036,2.7862,2.7862,2.7513,2.7075,0.0,2.9559,2.9484,0.0,0.0,0.0,0.0,0.0,3.1523,3.1601,3.1461,3.1243,3.1821,3.1887,3.0738,3.1778,3.288,3.3404,3.422,3.5033,3.5773,3.5678,3.5576,3.5383,3.4623,3.3914,3.3326,3.3147,3.2563,3.1561,3.2006,3.1876,3.1023,3.0746,3.0617,3.0591,3.0052,2.9651,2.9397,2.8493,2.7936,2.7683,2.6535,2.6135,2.6025,2.4872,2.4372,2.4296,2.3474,2.3135,2.3135,2.3135,2.3135,2.3135,0.0,0.0,0.0,0.0,0.0,0.0,0.0,0.0,0.0,0.0,0.0,0.0,0.0,0.0,0.0,0.0,0.0,0.0,0.0,0.0,2.3078,2.3078,2.3078,2.2899,2.2385,2.2874,2.2887,2.2372,2.2887,2.3078,2.3078,2.3078,2.3103,2.3165,2.3753,2.4042,2.418,2.5172,2.5678,2.5832,2.6375,0.0,0.0,0.0,0.0,0.0,0.0,0.0,0.0,0.0,0.0,0.0,0.0,0.0,2.755,2.755,2.755,2.7414,2.6817,2.7079,2.719,2.5869,0.0,0.0,2.6524,2.7322,0.0,2.8886,0.0,0.0,3.0339,3.0154,3.0266,3.1106,3.092,3.0725,3.062,3.1581,3.2248,3.2286,3.2836,3.3674,3.4746,3.4311,3.4352,3.5355,3.4311,3.3266,3.2368,3.1686,3.0973,2.9997,3.0035,2.997,2.9892,3.0382,3.0586,3.057,3.002,2.9257,2.8232,2.8154,2.7549,2.6543,2.5459,2.4952,2.484,2.3684,2.3222,2.3222,2.3135,2.3135,2.3135,2.3135,2.3135,2.3135,0.0,0.0,0.0,0.0,0.0,0.0,0.0,0.0,0.0,0.0,0.0,0.0,0.0,0.0,0.0,0.0,0.0,0.0,0.0,0.0,2.2774,2.3065,2.2811,2.2686,2.2824,2.3025,2.2977,2.2824,2.2977,2.3078,2.3078,2.3078,2.3326,2.3678,2.3904,2.4192,2.4531,2.4946,2.531,2.5611,2.5837,2.5975,0.0,0.0,0.0,0.0,0.0,0.0,0.0,0.0,2.693,2.6909,0.0,2.6961,2.6961,2.6961,2.6961,2.6887,2.662,2.6683,2.6529,2.5075,0.0,0.0,0.0,2.7349,2.7776,2.9137,2.9717,3.0079,3.0209,3.0253,3.0337,3.0343,3.1023,3.1373,3.0708,3.1537,3.2215,3.2215,3.2102,3.2458,3.3564,3.2867,3.2478,3.2854,3.2215,3.1396,3.0778,3.0471,3.0139,2.9792,2.9792,2.9456,2.8767,2.9221,2.8982,2.8057,2.8871,2.8807,2.808,2.6689,2.5832,2.5368,2.4258,2.3755,2.3664,2.329,2.3135,2.3135,2.3135,2.3135,2.3135,2.3135,2.3135,2.3135,0.0,0.0,0.0,0.0,0.0,0.0,0.0,0.0,0.0,0.0,0.0,0.0,0.0,0.0,0.0,0.0,0.0,0.0,0.0,2.2221,2.2472,2.2862,2.2686,2.2749,2.3065,2.3078,2.3078,2.3078,2.3078,2.3078,2.3078,2.3078,2.3339,2.3728,2.3728,2.3941,2.4305,2.4481,2.477,2.5121,2.546,2.5498,0.0,0.0,0.0,0.0,0.0,0.0,0.0,0.0,2.651,0.0,0.0,0.0,2.6632,2.6841,2.6602,2.6213,2.5969,2.6036,2.5756,0.0,0.0,0.0,2.705,2.7193,2.7277,2.8933,2.9493,2.9804,3.0043,3.019,3.0231,2.9854,3.0721,3.1198,3.0457,3.1135,3.1712,3.1712,3.1524,3.17,3.2466,3.17,3.1148,3.1148,3.0658,3.0193,2.9817,2.9792,2.9624,2.9275,2.9624,2.9275,2.8084,2.8619,2.8257,2.7042,2.7584,2.7607,2.699,2.5487,2.456,2.4211,2.3474,2.3135,2.3135,2.3135,2.3135,2.3135,2.3135,2.3135,2.3135,2.3135,2.3135,2.3135,0.0,0.0,0.0,0.0,0.0,0.0,0.0,0.0,0.0,0.0,0.0,0.0,0.0,0.0,0.0,0.0,0.0,0.0,0.0,2.2008,2.2309,2.2322,2.2836,2.3065,2.3078,2.3078,2.3078,2.3078,2.3078,2.3078,2.3078,2.3078,2.3078,2.3078,2.3078,2.3078,2.3115,2.3753,2.3991,2.4092,2.5159,2.5272,2.482,0.0,0.0,0.0,0.0,0.0,0.0,0.0,2.651,2.6602,0.0,0.0,0.0,2.743,2.6632,2.5449,2.4699,2.4972,0.0,0.0,0.0,0.0,2.6253,2.6521,2.6766,2.7871,2.9001,2.9779,2.9792,2.9792,2.9792,2.9792,2.9792,2.9804,2.9792,3.0269,3.062,3.062,3.106,3.1386,3.1386,3.0909,3.0608,3.0608,3.0105,2.9792,2.9792,2.9792,2.9275,2.8096,2.9197,2.9197,2.8084,2.8607,2.8607,2.8016,2.6341,2.533,2.481,2.481,2.42,2.3135,2.3135,2.3135,2.3135,2.3135,2.3135,2.3135,2.3135,2.3135,2.3135,2.3135,2.3135,2.3135,0.0,0.0,0.0,0.0,0.0,0.0,0.0,0.0,0.0,0.0,0.0,0.0,0.0,0.0,0.0,0.0,0.0,0.0,0.0,2.2221,2.2485,2.2874,2.2673,2.2736,2.3065,2.3078,2.3078,2.3078,2.3078,2.3078,2.3078,2.3078,2.3078,2.3078,2.3078,2.3078,2.3078,2.3314,2.3627,2.4029,2.4343,2.4619,2.4782,0.0,0.0,0.0,0.0,0.0,0.0,0.0,0.0,0.0,0.0,0.0,0.0,2.6826,2.6602,2.6035,2.4826,2.4596,0.0,2.327,0.0,0.0,0.0,2.5586,0.0,0.0,2.8687,2.9315,2.9716,2.9792,2.9792,2.9792,3.0118,3.0231,2.9842,3.0269,3.062,3.062,3.0407,3.057,3.1311,2.9868,2.8996,2.9371,2.8255,2.7476,2.7476,2.7476,2.7302,2.6964,2.8028,2.7683,2.5786,2.7026,2.6606,2.4553,2.4419,2.4537,2.4784,2.3951,2.3398,2.3135,2.3135,2.3135,2.3135,2.3135,2.3135,2.3135,2.3135,2.3135,2.3135,2.3135,2.3135,2.3135,0.0,0.0,0.0,0.0,0.0,0.0,0.0,0.0,0.0,0.0,0.0,0.0,0.0,0.0,0.0,0.0,0.0,0.0,0.0,0.0,2.246,2.2799,2.2698,2.2799,2.3065,2.3078,2.3078,2.3078,2.3078,2.3078,2.3078,2.3078,2.3078,2.3078,2.3078,2.3078,2.3078,2.3078,2.3144,2.3219,2.3779,2.3866,2.3675,0.0,0.0,0.0,0.0,0.0,0.0,0.0,0.0,0.0,0.0,0.0,0.0,2.6273,2.6198,2.5964,2.4892,2.4725,0.0,2.3897,2.4222,2.4861,2.535,0.0,2.7005,2.8473,2.9038,2.9377,2.9729,2.9443,2.9275,2.9714,2.9717,2.9487,2.9155,2.9389,2.9438,2.9024,2.8655,2.8703,2.941,2.8221,2.7569,2.7882,2.7053,2.6483,2.6483,2.6483,2.6307,2.5808,2.6871,2.6614,2.4787,2.5743,2.5402,2.38,2.3575,2.3731,2.4125,2.3387,2.3135,2.3135,2.3135,2.3135,2.3135,2.3135,2.3135,2.3135,2.3135,2.3135,2.3135,2.3135,2.3135,2.3135,0.0,0.0,0.0,0.0,0.0,0.0,0.0,0.0,0.0,0.0,0.0,0.0,0.0,0.0,0.0,0.0,0.0,0.0,0.0,0.0,2.2334,2.2385,2.2912,2.3153,2.3153,2.3153,2.3153,2.3153,2.3103,2.3078,2.3078,2.3078,2.3078,2.3078,2.3078,2.3078,2.3078,2.3078,2.2702,2.2111,2.3381,2.3158,2.2123,2.3406,0.0,0.0,0.0,0.0,0.0,0.0,0.0,0.0,0.0,0.0,2.637,2.5774,2.5595,2.5485,2.4927,0.0,0.0,2.477,2.5276,0.0,2.6468,2.7306,2.8335,2.9415,2.9716,2.9792,2.9792,2.8937,2.8597,2.9624,2.8858,2.8096,2.8096,2.8004,2.7602,2.6637,2.6483,2.6483,2.6483,2.6389,2.6307,2.6307,2.6224,2.6224,2.6224,2.6224,2.5724,2.4713,2.5724,2.5808,2.4617,2.4777,2.4777,2.4628,2.3637,2.3135,2.3135,2.3135,2.3135,2.3135,2.3135,2.3135,2.3135,2.3135,2.3135,2.3135,2.3135,2.3135,2.3135,2.3135,2.3135,2.3135,0.0,0.0,0.0,0.0,0.0,0.0,0.0,0.0,0.0,0.0,0.0,0.0,0.0,0.0,0.0,0.0,0.0,0.0,0.0,0.0,2.2498,2.2937,2.3502,2.3816,2.3816,2.3816,2.3816,2.3816,2.3364,2.3078,2.3078,0.0,0.0,2.3078,0.0,2.3078,2.3078,2.3078,2.3005,2.2896,2.3142,2.3117,2.2896,2.3155,2.3178,0.0,0.0,0.0,0.0,0.0,0.0,0.0,2.6127,2.6155,2.5705,2.5575,2.5531,2.5481,2.5366,2.5805,0.0,0.0,2.6777,2.6726,2.705,2.7293,2.7657,2.8323,2.9176,2.9792,2.9792,2.9624,2.9534,2.9792,2.8858,2.8096,2.8096,2.736,2.6719,2.6565,2.6483,2.6483,2.6483,2.5714,2.521,2.521,2.4307,2.381,2.381,2.381,2.3724,2.3464,2.4542,2.4628,2.3464,2.4395,2.4395,2.3464,2.3222,2.3135,2.3135,2.3135,2.3135,2.3135,2.3135,2.3135,2.3135,2.3135,2.3135,2.3135,2.3135,2.3135,2.3135,2.3135,2.3135,2.3135,0.0,0.0,0.0,0.0,0.0,0.0,0.0,0.0,0.0,0.0,0.0,0.0,0.0,0.0,0.0,0.0,0.0,0.0,0.0,0.0,0.0,0.0,2.3427,2.359,2.359,2.359,2.359,2.359,2.3215,0.0,0.0,0.0,0.0,2.3078,0.0,2.3078,2.3078,2.3078,2.2884,2.2567,2.2944,2.2884,2.2567,2.2944,2.3078,2.3078,2.2628,0.0,0.0,0.0,0.0,0.0,0.0,0.0,2.5325,2.4667,2.4972,2.5434,2.55,0.0,0.0,2.712,0.0,2.7262,2.7291,2.7281,2.7444,2.7996,2.8787,2.9465,2.9741,2.9365,2.9184,2.9702,2.8858,2.7924,2.7452,2.6883,2.6058,2.4978,2.4893,2.4893,2.4893,2.4296,2.3963,2.3963,2.3474,2.3135,2.3135,2.3135,2.3135,2.3135,2.3714,2.3714,2.3144,2.3674,2.3674,2.3135,2.3135,2.3135,2.3135,2.3135,2.3135,2.3135,2.3135,2.3135,2.3135,2.3135,2.3135,2.3135,2.3135,2.3135,2.3135,2.3135,2.3135,2.3135,0.0,0.0,0.0,0.0,0.0,0.0,0.0,0.0,0.0,0.0,0.0,0.0,0.0,0.0,0.0,0.0,0.0,0.0,0.0,0.0,0.0,0.0,2.3175,2.3288,2.3288,2.3288,2.3288,2.3288,0.0,0.0,0.0,0.0,0.0,2.3078,0.0,2.3078,2.3078,2.3078,2.2702,2.2199,2.2823,2.2702,2.2199,2.2823,2.3078,2.3017,2.2322,2.2125,2.2187,2.2664,0.0,0.0,0.0,0.0,2.4789,2.385,2.4327,2.5246,2.5424,0.0,2.6826,2.7042,2.7544,0.0,2.7467,2.7341,2.7493,2.7846,2.8398,2.8963,2.9541,2.888,2.8579,2.9611,2.8858,2.7763,2.6637,2.6307,2.5473,2.3387,2.3135,2.3135,2.3135,2.3135,2.3135,2.3135,2.3135,2.3135,2.3135,2.3135,2.3135,2.3135,2.3135,2.3135,2.3135,2.3135,2.3135,2.3135,2.3135,2.3135,2.3135,2.3135,2.3135,2.3135,2.3135,2.3135,2.3135,2.3135,2.3135,2.3135,2.3135,2.3135,2.3135,2.3135,2.3135,2.3154,0.0,0.0,0.0,0.0,0.0,0.0,0.0,0.0,0.0,0.0,0.0,0.0,0.0,0.0,0.0,0.0,0.0,0.0,2.143,0.0,0.0,2.2422,2.3364,2.3891,2.3891,2.3891,2.3891,2.3891,0.0,0.0,0.0,0.0,0.0,2.3078,0.0,2.3078,2.3078,2.3078,2.3017,2.2944,2.3078,2.3017,2.2944,2.3078,2.3078,2.3078,2.3005,2.2944,2.2823,2.2249,2.2494,0.0,0.0,0.0,2.3449,2.401,2.4332,2.4545,0.0,0.0,2.8097,0.0,2.8587,2.8811,2.7841,2.7655,2.7624,2.741,2.7833,2.8386,2.8938,2.8887,2.9037,2.9704,2.8858,2.7763,2.6637,2.563,2.4542,2.3212,2.3135,2.3135,2.3135,2.3135,2.3135,2.3135,2.3135,2.3135,2.3135,2.3135,2.3135,2.3135,2.3135,2.3135,2.3135,2.3135,2.3135,2.3135,2.3135,2.3135,2.3135,2.3135,2.3135,2.3135,2.3135,2.3135,2.3135,2.3135,2.3135,2.3135,2.3135,2.3135,2.3135,2.3135,2.3135,2.3193,0.0,0.0,0.0,0.0,0.0,0.0,0.0,0.0,0.0,0.0,0.0,0.0,0.0,0.0,0.0,2.011,1.9949,2.015,2.0978,2.1124,2.1498,2.2239,2.2652,2.3009,2.3514,2.3514,2.3514,0.0,0.0,0.0,0.0,2.3464,2.3439,0.0,0.0,0.0,0.0,2.3078,2.3078,2.3078,2.3078,2.2949,2.2711,2.2965,2.2877,2.2652,2.2457,2.2445,2.2384,2.2002,2.2101,2.2445,2.2882,0.0,0.0,0.0,2.3662,2.3883,2.4892,2.6229,2.7311,0.0,2.7734,2.7759,2.7167,2.704,2.6879,2.642,2.6791,2.7444,2.831,2.8461,2.8549,2.88,2.8436,2.7811,2.7067,2.5954,2.4911,2.418,2.3474,2.3135,2.3135,2.3135,2.3135,2.3135,2.3135,2.3135,2.3135,2.3135,2.3135,2.3135,2.3135,2.3135,2.3135,2.3135,2.3135,2.3135,2.3135,2.3135,2.3135,2.3135,2.3135,2.3135,2.3135,2.3135,2.3135,2.3135,2.3135,2.3135,2.3135,2.3135,2.3135,2.3135,2.3135,2.3164,0.0,0.0,0.0,0.0,0.0,0.0,0.0,0.0,0.0,0.0,0.0,0.0,0.0,0.0,0.0,0.0,1.9798,1.9987,2.0413,2.0278,2.0649,2.1712,2.1837,2.2199,2.2763,2.3017,0.0,0.0,0.0,0.0,2.3078,2.3728,2.3766,0.0,2.3954,2.3891,0.0,0.0,2.3215,2.3065,2.2975,2.2686,2.2347,2.2611,2.246,2.2113,2.2043,2.1994,2.2018,2.1892,2.1877,2.2002,2.2628,2.2823,0.0,0.0,0.0,2.3334,2.4377,0.0,2.5976,2.6352,2.6605,2.6701,2.6488,2.6531,2.6384,2.5753,2.5937,2.654,2.7507,2.7795,2.7946,2.8084,2.8109,2.7903,2.7394,2.6595,2.5728,2.4904,2.4049,2.3387,2.3135,2.3135,2.3135,2.3135,2.3135,2.3135,2.3135,2.3135,2.3135,2.3135,2.3135,2.3135,2.3135,2.3135,2.3135,2.3135,2.3135,2.3135,2.3135,2.3135,2.3135,2.3135,2.3135,2.3135,2.3135,2.3135,2.3135,2.3135,2.3135,2.3135,2.3135,2.3135,2.3135,2.3154,0.0,0.0,0.0,0.0,0.0,0.0,0.0,0.0,0.0,0.0,0.0,0.0,0.0,1.9747,1.9747,1.9798,1.9798,1.9811,1.9849,2.006,2.0238,2.0332,2.133,0.0,2.1939,2.2689,0.0,0.0,0.0,0.0,2.3078,2.3728,2.3979,2.3979,2.4531,2.4469,2.3954,0.0,0.0,0.0,2.2573,2.2334,2.2259,2.1757,2.1556,2.1606,2.2101,2.2289,2.2247,2.1957,2.1877,2.1877,2.1939,2.1939,2.2125,0.0,0.0,0.0,2.3163,2.3819,0.0,2.5163,2.5855,2.637,2.6153,2.6522,2.6661,2.5798,2.5624,2.5824,2.6496,2.6967,2.7494,2.8021,2.8109,2.7903,2.7394,2.7233,2.661,2.4978,2.4787,2.4296,2.3222,2.3135,2.3135,2.3135,2.3135,2.3135,2.3135,2.3135,2.3135,2.3135,2.3135,2.3135,2.3135,2.3135,2.3135,2.3135,2.3135,2.3135,2.3135,2.3135,2.3135,2.3135,2.3135,2.3135,2.3135,2.3135,2.3135,2.3135,2.3135,2.3135,2.3135,2.3135,2.3135,2.3193,0.0,0.0,0.0,0.0,0.0,0.0,0.0,0.0,0.0,0.0,0.0,0.0,0.0,1.9798,1.9798,1.9798,2.0137,2.0351,2.0351,2.0556,2.0724,2.0724,2.0919,2.1302,2.1877,2.2199,0.0,0.0,0.0,2.3078,2.3078,2.3728,2.4192,2.4531,2.4732,2.4707,2.4519,2.4519,0.0,2.3665,2.3477,2.2962,2.2284,2.2096,2.1794,2.1518,2.1707,2.2008,2.2289,2.2182,2.2406,2.264,2.2295,2.2172,2.2112,2.1849,2.2043,2.2237,2.1886,0.0,0.0,2.3773,2.4348,2.4957,2.5229,2.5652,2.5881,2.5224,2.5661,2.6101,2.5937,2.6063,2.6389,2.6954,2.7055,2.716,2.7249,2.6697,2.6124,2.5949,2.4708,2.3784,2.3696,2.3067,2.2852,2.3115,2.3135,2.3135,2.3135,2.3135,2.3135,2.3135,2.3135,2.3135,2.3135,2.3135,2.3135,2.3135,2.3135,2.3135,2.3135,2.3135,2.3135,2.3135,2.3135,2.3135,2.3135,2.3135,2.3135,2.3135,2.3135,2.3135,2.3135,2.3135,2.3135,2.3164,0.0,0.0,0.0,0.0,0.0,0.0,0.0,0.0,0.0,0.0,0.0,0.0,0.0,0.0,1.977,1.9682,2.032,2.0632,2.052,2.0827,2.0877,2.0575,2.0574,2.0719,2.1037,2.1628,0.0,0.0,0.0,0.0,0.0,2.3527,2.4004,2.4544,2.4544,2.4745,0.0,2.5084,2.477,2.4243,2.3866,2.3376,2.2836,2.246,2.2083,2.1794,2.197,2.2159,2.2334,2.2523,2.2521,2.2454,2.2518,2.2272,2.1817,2.1188,2.1136,2.126,2.1268,0.0,0.0,2.3005,2.3427,2.3803,2.418,2.4669,2.4958,2.4619,2.5272,2.585,2.5636,2.5598,2.5787,2.6433,2.6533,2.6722,2.7205,2.6672,2.6274,2.6439,2.4915,2.3849,2.3782,2.2992,2.2568,2.2705,2.2978,2.3076,2.2939,2.3066,2.3135,2.3135,2.3135,2.3135,2.3135,2.3135,2.3135,2.3135,2.3135,2.3135,2.3135,2.3135,2.3135,2.3135,2.3135,2.3135,2.3135,2.3135,2.3135,2.3135,2.3135,2.3135,2.3135,2.3135,2.3135,2.3135,0.0,0.0,0.0,0.0,0.0,0.0,0.0,0.0,0.0,0.0,0.0,0.0,0.0,0.0,0.0,1.9464,2.0219,2.0575,2.0272,2.0736,2.0647,1.9789,2.0333,2.0204,1.9365,2.1037,0.0,0.0,0.0,0.0,0.0,0.0,2.3439,2.4004,2.4004,2.4582,2.5573,2.5586,2.5297,2.4732,2.3578,2.354,2.3904,2.2786,2.2347,2.241,2.2877,2.2727,2.2339,2.2817,2.2212,2.138,2.2637,2.2175,2.1081,2.1009,2.0465,2.0161,0.0,0.0,0.0,2.2871,2.3065,2.3078,2.3078,2.359,2.4004,2.4004,2.4443,2.4971,2.5498,2.5598,2.5787,2.6433,2.6533,2.6653,2.718,2.7256,2.7086,2.6554,2.5589,2.4558,2.3381,2.2772,2.2305,2.1914,2.2646,2.292,2.2519,2.2891,2.3125,2.3125,2.3135,2.3135,2.3135,2.3135,2.3135,2.3135,2.3135,2.3135,2.3135,2.3135,2.3135,2.3135,2.3135,2.3135,2.3135,2.3135,2.3135,2.3135,2.3135,2.3135,2.3135,2.3135,2.3135,2.3135,0.0,0.0,0.0,0.0,0.0,0.0,0.0,0.0,0.0,0.0,0.0,0.0,0.0,0.0,1.9932,2.032,2.0919,2.1381,2.1675,2.2219,2.2153,2.1342,2.1471,2.1101,2.0268,2.1365,0.0,0.0,0.0,0.0,0.0,0.0,0.0,0.0,2.4004,2.4393,2.5059,2.5435,2.5297,2.4833,2.4895,2.4795,2.4519,2.3803,2.3276,2.2805,2.225,2.1765,2.1332,2.123,2.0997,2.0848,2.1427,2.0507,1.9353,1.989,1.9772,1.9566,2.016,0.0,0.0,0.0,0.0,0.0,2.3078,2.359,2.4004,2.4004,2.4443,2.4971,2.5498,2.5598,2.5787,2.6433,2.6533,2.6584,2.6666,2.6691,2.6379,2.5505,2.5142,2.4448,2.3034,2.2729,2.2433,2.1958,2.21,2.2178,2.207,2.2461,2.2685,2.2685,2.2978,2.3135,2.3135,2.3135,2.3135,2.3135,2.3135,2.3135,2.3135,2.3135,2.3135,2.3135,2.3135,2.3135,2.3135,2.3135,2.3135,2.3135,2.3135,2.3135,2.3135,2.3135,2.3135,2.3135,0.0,0.0,0.0,0.0,0.0,0.0,0.0,0.0,0.0,0.0,0.0,0.0,0.0,0.0,0.0,2.0465,2.1126,2.1706,2.2112,2.277,2.2763,2.1939,2.1877,2.1302,2.0074,2.091,2.1365,0.0,0.0,0.0,0.0,0.0,0.0,0.0,0.0,0.0,2.4167,2.4946,2.5222,2.5172,2.5473,2.5561,2.5448,2.4883,2.4201,2.3521,2.2917,2.2174,2.1284,2.0848,2.0683,2.0467,1.9873,1.9127,1.8606,1.9102,1.8859,1.8744,1.9797,2.0682,2.1545,2.2427,0.0,0.0,2.2849,2.3226,2.3577,2.3339,2.3929,2.4569,2.487,2.5297,2.5711,2.605,2.637,2.6383,2.5955,2.5873,2.5511,2.448,2.4036,2.3642,2.3361,2.2585,2.2168,2.2281,2.2096,2.1885,2.1885,2.2119,2.2246,2.2246,2.2611,2.2834,2.2881,2.3057,2.3135,2.3135,2.3135,2.3135,2.3135,2.3135,2.3135,2.3135,2.3135,2.3135,2.3135,2.3135,2.3135,2.3135,2.3135,2.3135,2.3135,2.3135,2.3135,2.3135,0.0,0.0,0.0,0.0,0.0,0.0,0.0,0.0,0.0,0.0,0.0,0.0,0.0,0.0,0.0,0.0,2.1124,2.1733,2.2003,2.2702,2.2763,2.2063,2.2002,2.129,1.9628,2.0462,2.0846,2.0719,0.0,0.0,0.0,0.0,0.0,0.0,0.0,0.0,0.0,2.428,2.4996,2.5435,2.5624,2.6,2.6471,2.5887,2.5167,2.4369,2.4291,2.3225,2.1842,2.114,2.0654,2.005,1.8448,1.8228,1.8551,1.8562,1.8076,1.7915,1.99,2.0462,2.0846,2.2433,2.2811,0.0,2.2334,2.2596,2.2867,2.2451,2.3201,2.3916,2.3991,2.4833,2.5523,2.5586,2.6088,2.6164,2.53,2.5158,2.4802,2.3666,2.2809,2.281,2.3971,2.2475,2.1837,2.2745,2.213,2.1738,2.1738,2.1787,2.1816,2.1826,2.2244,2.2419,2.2464,2.2765,2.296,2.3038,2.2999,2.3096,2.3135,2.3135,2.3135,2.3135,2.3135,2.3135,2.3135,2.3135,2.3135,2.3135,2.3135,2.3135,2.3135,2.3135,2.3135,2.3135,2.1009,0.0,0.0,0.0,0.0,0.0,0.0,0.0,0.0,0.0,0.0,0.0,0.0,0.0,0.0,0.0,2.1768,2.2364,2.2847,2.3017,2.3005,2.2884,2.2884,2.2372,2.1428,2.2187,2.231,2.1628,0.0,0.0,0.0,0.0,0.0,0.0,0.0,0.0,2.3175,2.3866,2.4217,2.4431,2.5749,2.642,2.6521,2.6395,2.5933,2.5314,2.4987,2.3595,2.1694,1.9792,1.8813,1.8566,1.8892,1.8583,1.8265,1.8909,1.8532,1.8103,1.9278,1.9562,1.9814,2.0846,2.1101,0.0,2.187,2.2053,2.2286,2.2807,2.315,2.3439,2.3916,2.4531,2.5109,2.5523,2.6088,2.6452,2.6233,2.6233,2.5657,2.4213,2.4288,2.4022,2.3065,2.3069,2.2842,2.225,2.1366,2.082,2.082,2.1162,2.1316,2.1302,2.1792,2.1986,2.1995,2.209,2.2262,2.2581,2.2591,2.2812,2.3135,2.3135,2.3135,2.3135,2.3135,2.3135,2.3135,2.3135,2.3135,2.3135,2.3135,2.3135,2.3135,2.3135,2.3135,2.3135,2.0598,0.0,0.0,0.0,0.0,0.0,0.0,0.0,0.0,0.0,0.0,0.0,0.0,0.0,0.0,0.0,0.0,0.0,2.304,2.3078,2.3078,2.3078,2.3078,2.2689,2.1939,2.2322,2.2322,2.1877,0.0,0.0,0.0,0.0,0.0,0.0,0.0,0.0,2.2786,2.364,2.4004,2.4092,2.5209,2.5799,2.6025,2.6025,2.5741,2.5274,2.5051,2.3555,2.1538,2.0401,1.9413,1.8713,1.9183,1.8825,1.8389,1.8851,1.8496,1.8202,1.9044,1.9299,1.9497,2.0398,2.059,0.0,0.0,2.1687,2.2137,2.2944,2.3078,2.3314,2.3891,2.4217,2.4594,2.5121,2.5674,2.6138,2.6483,2.6094,2.5313,2.401,2.4123,2.423,2.4262,2.3794,2.3073,2.2103,2.1552,2.1104,2.0644,2.0781,2.0918,2.0887,2.1341,2.1543,2.153,2.1744,2.206,2.2495,2.2502,2.2734,2.3135,2.3135,2.3135,2.3135,2.3135,2.3135,2.3135,2.3135,2.3135,2.3135,2.3135,2.3135,2.3135,2.3135,2.3135,2.3135,2.0526,0.0,0.0,0.0,0.0,0.0,0.0,0.0,0.0,0.0,0.0,0.0,0.0,2.1581,2.187,2.2422,0.0,0.0,2.3341,2.3163,2.2965,2.3125,2.3078,2.2774,2.1981,2.2077,2.2137,2.2137,0.0,0.0,0.0,0.0,0.0,0.0,0.0,0.0,0.0,2.3339,2.374,2.3866,2.4318,2.4946,2.5598,2.5598,2.5388,2.5061,2.4932,2.3635,2.1927,2.172,2.0772,1.9568,1.9568,1.9187,1.874,1.8662,1.8398,1.8242,1.8875,1.9106,1.9302,2.0019,2.0282,2.0434,0.0,0.0,0.0,2.2676,2.2911,2.3145,2.3778,2.3803,2.3978,2.4668,2.5115,2.5615,2.6226,2.5742,2.5004,2.4152,2.3931,2.4338,2.5763,2.4765,2.3542,2.2627,2.2349,2.1832,2.1021,2.0722,2.0654,2.0751,2.0966,2.1056,2.1103,2.143,2.1883,2.2366,2.2412,2.2656,2.3135,2.3135,2.3135,2.3135,2.3135,2.3135,2.3135,2.3135,2.3135,2.3135,2.3135,2.3135,2.3135,2.3135,2.3135,2.3135,1.9628,2.0139,0.0,0.0,0.0,0.0,0.0,0.0,0.0,0.0,0.0,2.2096,2.1543,2.192,2.2447,2.2927,2.2146,2.2447,2.4494,2.3238,2.2623,2.3053,2.3078,2.284,2.2293,2.2695,2.2944,2.2944,0.0,0.0,0.0,0.0,0.0,0.0,2.2598,2.2636,2.2965,2.2648,2.2786,2.3238,2.324,2.4243,2.5598,2.5598,2.5569,2.5406,2.459,2.4186,2.3815,2.2999,2.1767,2.0613,2.0613,1.995,1.9141,1.875,1.8603,1.8486,1.8242,1.8409,1.8695,1.8834,1.9122,1.9686,2.0453,0.0,2.0995,2.1879,0.0,2.271,2.3299,0.0,0.0,2.4591,2.4627,2.4755,2.5607,2.6058,2.6313,2.6139,2.5345,2.5252,2.6308,2.5905,2.5323,2.4671,2.3479,2.2719,2.2488,2.1252,2.0761,2.1083,2.0858,2.0673,2.0644,2.0742,2.1201,2.1974,2.1958,2.2373,2.3135,2.3135,2.3135,2.3135,2.3135,2.3135,2.3135,2.3135,2.3135,2.3135,2.3135,2.3135,2.3135,2.3135,2.3135,2.3135,2.0139,2.0782,0.0,0.0,0.0,0.0,0.0,0.0,0.0,0.0,0.0,2.2698,2.2472,2.2949,2.3514,2.4067,2.3401,2.3477,2.4745,2.3866,2.354,2.4092,2.3803,2.3527,2.3301,2.3188,2.3078,2.3078,2.3078,0.0,0.0,0.0,0.0,0.0,2.2749,2.2736,2.2686,2.3113,2.3427,2.3665,2.3979,2.4531,2.5109,2.4795,2.5059,2.5532,2.5185,2.4893,2.4578,2.3572,2.2499,2.1397,2.0825,2.0048,1.9248,1.9072,1.8662,1.8232,1.8057,1.832,1.8562,1.8562,1.8965,1.9495,2.04,2.0603,2.1101,2.2845,0.0,0.0,0.0,0.0,0.0,0.0,2.435,2.4345,2.4779,2.5747,2.6489,2.6513,2.6156,2.6058,2.6441,2.634,2.5883,2.5028,2.442,2.3971,2.3613,2.2237,2.1619,2.2133,2.1171,2.0566,2.0566,2.0566,2.1055,2.1928,2.1924,2.2324,2.3135,2.3135,2.3135,2.3135,2.3135,2.3135,2.3135,2.3135,2.3135,2.3135,2.3135,2.3135,2.3135,2.3135,2.3135,2.3135,2.1227,0.0,0.0,0.0,0.0,0.0,0.0,0.0,2.2196,2.1242,2.2297,2.3128,2.3351,2.3753,2.428,2.4971,2.4393,2.4293,2.4983,2.4114,2.3702,2.4013,2.3524,2.3254,2.3146,2.2886,2.2884,2.3078,0.0,0.0,0.0,0.0,0.0,0.0,2.2799,2.2643,2.2278,2.313,2.3492,2.3492,2.4241,2.4695,2.4782,2.4381,2.4895,2.5812,2.5649,2.5543,2.5288,2.4253,2.322,2.2253,2.1298,2.0355,1.9609,1.9492,1.9014,1.8486,1.8242,1.8574,1.8955,1.8848,1.9228,1.9851,2.0492,2.0627,2.1073,2.2849,2.2946,0.0,0.0,0.0,2.2833,2.3642,0.0,2.3514,2.3735,2.4761,2.5783,2.644,2.6798,2.6791,2.6559,2.6798,2.6487,2.5465,2.5259,2.5123,2.4892,2.3468,2.2864,2.3444,2.2025,2.1171,2.0976,2.0879,2.1133,2.1885,2.2002,2.2441,2.3135,2.3135,2.3135,2.3135,2.3135,2.3135,2.3135,2.3135,2.3135,2.3135,2.3135,2.3135,2.3135,2.3135,2.3135,2.3135,2.2689,2.2445,0.0,0.0,0.0,0.0,2.2268,2.2761,2.2912,2.2334,2.2774,2.3351,2.3916,2.3991,2.4431,2.5473,2.4607,2.4443,2.5498,2.368,2.236,2.2023,2.1529,2.1247,2.108,2.1677,2.2322,2.3078,0.0,0.0,0.0,0.0,0.0,0.0,2.2573,2.2196,2.1954,2.2206,2.2186,2.2085,2.3468,2.4343,2.482,2.4808,2.5473,2.642,2.5799,2.5975,2.6314,2.53,2.4264,2.3294,2.2253,2.1278,2.0439,2.0019,1.9873,1.9668,1.8838,1.9228,1.9775,1.9365,1.9902,2.0605,2.0605,2.0595,2.0605,2.0692,2.0998,2.146,2.1997,2.1344,2.1176,2.2495,2.2071,0.0,0.0,2.288,2.3863,2.6252,2.7406,2.7632,2.6634,2.7419,2.7607,2.654,2.6037,2.5972,2.6406,2.5051,2.4461,2.4915,2.3565,2.2569,2.1937,2.1432,2.1435,2.1894,2.2295,2.2715,2.3135,2.3135,2.3135,2.3135,2.3135,2.3135,2.3135,2.3135,2.3135,2.3135,2.3135,2.3135,2.3135,2.3135,2.3135,2.3135,2.2002,0.0,0.0,2.2884,2.2884,2.2701,2.2827,2.2952,2.3339,2.3904,2.413,2.4745,2.6038,2.6176,2.6314,2.6678,2.605,2.5505,2.5208,2.4214,2.3417,2.2948,2.2441,2.2194,2.2139,2.1638,2.1583,2.1841,2.2157,0.0,0.0,0.0,0.0,0.0,2.2937,2.277,2.2714,2.3217,2.3343,2.3368,2.4179,2.5084,2.5824,2.5096,2.5272,2.5862,2.5661,2.5963,2.6233,2.4552,2.3818,2.322,2.1603,2.0658,2.0107,1.9961,1.9717,1.9434,1.9141,1.9482,1.9883,1.9736,2.0137,2.0566,2.0566,2.0566,2.0789,2.1375,2.1611,2.1998,2.2818,2.2221,2.1692,2.2136,2.202,2.1766,0.0,2.2287,2.3067,2.4026,2.4989,2.5861,2.6452,2.6452,2.6289,2.5912,2.5759,2.5928,2.6445,2.5421,2.4996,2.5522,2.4078,2.321,2.2994,2.283,2.2637,2.2452,2.2564,2.2664,2.2715,2.2441,2.2617,2.3125,2.2842,2.2881,2.3135,2.3135,2.3135,2.3135,2.3135,2.3135,2.3135,2.3135,2.3135,2.3135,2.1993,2.1555,2.1307,2.2848,2.3314,2.3514,2.3703,2.3891,2.4268,2.5008,2.5272,2.5887,2.7143,2.7457,2.7494,2.7306,2.7008,2.6261,2.504,2.4126,2.3374,2.2747,2.2088,2.1693,2.1712,2.1359,2.118,2.1174,2.1644,2.1806,0.0,0.0,0.0,0.0,2.2506,2.2506,2.2273,2.3269,2.3492,2.3368,2.4379,2.5473,2.6445,2.5674,2.5611,2.59,2.59,2.6138,2.6233,2.4624,2.4036,2.3672,2.1745,2.0877,2.0572,2.0213,1.9951,1.9707,1.9551,1.9824,2.0107,1.9951,2.0244,2.0566,2.0566,2.0566,2.0839,2.1588,2.163,2.1721,2.2562,2.2012,2.1517,2.1517,2.1811,2.1881,0.0,2.1599,2.1908,2.2506,2.3616,2.4649,2.5591,2.5672,2.5438,2.4871,2.5353,2.5702,2.6057,2.5734,2.5766,2.6311,2.4989,2.4226,2.4016,2.3827,2.3567,2.3228,2.3392,2.3366,2.3309,2.2877,2.2888,2.3408,2.2955,2.2891,2.3135,2.3135,2.3135,2.3135,2.3135,2.3135,2.3135,2.3135,2.3135,2.3135,2.2771,2.2159,2.1701,2.2936,2.3616,2.4205,2.4808,2.5206,2.5519,2.5711,2.6201,2.6766,2.7344,2.7798,2.7886,2.7335,2.7218,2.6517,2.4944,2.3578,2.2363,2.1313,2.0477,1.9992,1.9927,2.0689,2.1119,2.1141,2.1618,2.1596,0.0,0.0,0.0,0.0,2.1491,2.1428,2.0782,2.2372,2.2665,2.2181,2.4062,2.5473,2.6533,2.6533,2.6533,2.6533,2.6533,2.6533,2.6383,2.537,2.5004,2.4636,2.2702,2.2027,2.1811,2.0934,2.0644,2.0478,2.0059,2.0254,2.0469,2.0049,2.0254,2.0566,2.0566,2.0566,2.0693,2.1143,2.0879,2.0703,2.1152,2.0869,2.0566,2.0566,2.1375,2.1935,2.1926,2.0743,2.0429,2.1749,2.3167,2.4124,2.4142,2.5016,2.5016,2.3542,2.4639,2.5345,2.5061,2.5894,2.6659,2.7176,2.6347,2.56,2.5075,2.4593,2.426,2.4204,2.4604,2.4815,2.4759,2.4228,2.4001,2.4002,2.3408,2.3096,2.3135,2.3135,2.3135,2.3135,2.3135,2.3135,2.3135,2.3135,2.3135,2.3135,2.1204,2.2456,2.3477,2.3514,2.3826,2.4469,2.5837,2.4731,2.4662,2.7101,2.6919,2.715,2.8963,2.8513,2.7878,2.736,2.6523,2.5723,2.4975,2.4581,2.3841,2.2482,2.223,2.1435,1.9959,2.0083,2.0082,1.9809,2.055,2.07,2.0243,0.0,0.0,0.0,2.0846,2.1175,2.1616,2.2002,2.2908,2.4087,2.4566,2.5473,2.6533,2.6533,2.6533,2.6533,2.6533,2.6533,2.6383,2.537,2.5004,2.4791,2.3514,2.2627,2.1952,2.1735,2.1155,2.0537,2.043,2.0478,2.0537,2.042,2.0478,2.0566,2.0566,2.0566,2.0693,2.1143,2.0879,2.0703,2.1152,2.0869,2.0566,2.0566,2.0789,2.0811,2.0464,2.0436,2.0422,2.0414,2.0761,2.1744,2.3541,2.3242,2.2798,2.2412,2.2708,2.3024,2.3335,2.465,2.5611,2.6008,2.6233,2.6243,2.6131,2.5966,2.5528,2.4809,2.4931,2.4729,2.4345,2.3857,2.377,2.3971,2.3474,2.3187,2.3135,2.3135,2.3135,2.3135,2.3135,2.3135,2.3135,2.3135,2.3135,2.3135,2.2077,2.3414,2.4363,2.3952,2.3956,2.4536,2.6259,2.5822,2.5646,2.6632,2.6828,2.7133,2.7963,2.7446,2.7147,2.7257,2.6279,2.5757,2.5957,2.5554,2.4701,2.3213,2.3002,2.1921,1.9658,2.001,1.9902,1.9287,1.9775,1.992,1.9656,0.0,0.0,0.0,1.9879,2.0333,2.0782,2.1553,2.3138,2.5146,2.4908,2.5473,0.0,2.6533,2.6533,2.6533,2.6533,2.6533,2.6383,2.5873,2.5664,2.5511,2.448,2.3745,2.322,2.2776,2.1962,2.1221,2.1221,2.0934,2.0566,2.0566,2.0566,2.0566,2.0566,2.0566,2.0742,2.1387,2.1162,2.0996,2.1435,2.1162,2.0938,2.1185,2.0994,2.0923,2.1104,2.0828,2.0561,2.0491,2.0127,2.0522,2.2071,2.1776,2.1261,2.0836,2.1528,2.1891,2.1551,2.2937,2.4117,2.5025,2.5635,2.6082,2.6533,2.6481,2.6096,2.5278,2.5252,2.5086,2.479,2.4543,2.4317,2.4111,2.3722,2.3297,2.2881,2.3066,2.3135,2.3135,2.3135,2.3135,2.3135,2.3135,2.3135,2.3135,2.3958,2.4393,2.4563,2.4204,2.4241,2.4767,2.6082,2.6959,2.6887,2.5317,2.6219,2.67,2.5983,2.5742,2.604,2.6999,2.6177,2.6109,2.7233,2.6438,2.5349,2.3753,2.3296,2.1873,1.9389,2.0068,2.0088,1.9287,1.9346,1.9336,0.0,0.0,0.0,0.0,1.8787,1.9243,1.9562,2.1434,2.346,2.546,2.5071,2.5536,2.6533,2.6533,2.6533,2.6533,2.6533,2.6533,2.6533,2.6533,2.6533,2.6383,2.5441,2.5087,2.4862,2.3963,2.2925,2.2027,2.2027,2.1298,2.0566,2.0566,2.0566,2.0566,2.0566,2.0566,2.0801,2.1631,2.1504,2.1367,2.1807,2.1533,2.1332,2.1824,2.1445,2.1481,2.2488,2.1466,2.0669,2.0944,2.0252,0.0,2.0285,2.0518,2.0302,1.9432,2.0795,2.1218,2.0149,2.1163,2.248,2.389,2.4632,2.5387,2.6189,2.6349,2.6143,2.5574,2.5643,2.5681,2.5636,2.5549,2.5016,2.4167,2.4002,2.3388,2.2549,2.2969,2.3105,2.3066,2.3115,2.3105,2.3066,2.3115,2.3135,2.3135,2.347,2.3732,2.414,2.3671,2.5011,2.5869,2.5204,2.4465,2.435,2.5371,2.536,2.55,2.6266,2.5511,2.5254,2.5824,2.5343,2.5656,2.7179,2.7155,2.6375,2.4949,2.437,2.2531,1.9389,1.9775,1.9785,1.9287,1.9639,1.9629,0.0,0.0,0.0,0.0,1.8134,1.9044,2.0549,2.2669,2.4141,2.4983,2.5322,2.5862,2.6533,2.6533,2.6533,2.6533,2.6533,2.6533,2.6533,2.6533,2.6533,2.6452,2.6314,2.5664,2.4933,2.4791,2.3441,2.2027,2.2027,2.1298,2.0566,2.0566,2.0566,2.0566,2.0566,2.0566,2.0713,2.124,2.1289,2.1367,2.1807,2.1533,2.1211,2.1352,2.0967,2.1005,2.19,2.1232,2.0391,1.9925,1.915,1.862,1.8693,1.9487,1.995,1.9802,1.974,1.9849,1.9933,2.0631,2.1294,2.1922,2.3156,2.4114,2.4659,2.5382,2.5699,2.5627,2.6117,2.6114,2.5597,2.5241,2.4765,2.42,2.3654,2.3074,2.2549,2.2969,2.293,2.2656,2.2998,2.293,2.2666,2.3018,2.3135,2.3135,2.4432,2.373,2.3314,2.3324,2.3907,2.4293,2.3932,2.3438,2.3324,2.3878,2.4232,2.4284,2.4136,2.3618,2.3598,2.4406,2.4523,2.5001,2.6135,2.6677,2.6047,2.4105,2.37,2.2347,1.9639,1.96,1.96,1.9609,1.9365,1.9258,0.0,1.9053,1.8613,1.8008,1.8008,1.8853,2.039,2.1416,2.2893,2.4548,2.4805,2.5531,2.6533,2.6533,2.6533,2.6533,2.6533,2.6533,2.6533,2.6533,2.6533,2.6533,2.6533,2.6164,2.5804,2.5804,2.4696,2.3588,2.3588,2.2861,2.1973,2.1451,2.1745,2.1821,2.0867,2.1011,2.1286,2.1213,2.1416,2.1641,2.1846,2.1533,2.123,2.123,2.1055,2.1064,2.1494,2.1182,2.0493,1.9407,1.8792,1.8202,1.7856,1.8151,1.8561,1.9204,1.9062,1.8891,1.893,1.9393,2.0014,2.0728,2.1664,2.2719,2.3859,2.4309,2.4602,2.4795,2.4583,2.4353,2.4107,2.3951,2.3467,2.2805,2.3155,2.2917,2.2213,2.2833,2.2891,2.2549,2.2969,2.2881,2.2568,2.2988,2.3135,2.3135,2.5179,2.3867,2.2725,2.2959,2.2812,2.2754,2.3086,2.3135,2.3018,2.2685,2.3297,2.3418,2.2271,2.2158,2.2549,2.3353,2.3948,2.4492,2.4991,2.5908,2.5332,2.2984,2.2956,2.2053,1.9932,1.9502,1.9453,1.9785,1.9102,1.8955,1.9277,1.9033,1.8633,1.8144,1.834,1.8988,2.006,2.0281,2.1751,2.3965,2.4269,2.5006,2.6058,2.6208,2.6214,2.6126,2.6239,2.6276,2.6302,2.6483,2.6533,2.6533,2.6533,2.6533,2.6533,2.6533,2.5804,2.5004,2.5004,2.4264,2.3294,2.2553,2.2925,2.3073,2.1308,2.1441,2.1838,2.1164,2.1435,2.1777,2.1865,2.1533,2.126,2.1357,2.1211,2.1162,2.1348,2.1211,2.0471,1.8834,1.8362,1.7813,1.6846,1.6529,1.6801,1.7993,1.8261,1.827,1.7944,1.8366,1.8974,1.9785,2.0338,2.1396,2.2887,2.2983,2.3214,2.3424,2.2891,2.2567,2.2538,2.2536,2.2165,2.1596,2.259,2.2695,2.2167,2.2746,2.2754,2.2422,2.2842,2.2754,2.2441,2.2592,2.2677,2.2677,2.4354,2.3628,2.2969,2.2627,2.2852,2.3096,2.3135,2.3135,2.3125,2.3086,2.3163,2.3144,2.3027,2.3018,2.3113,2.3314,2.384,2.4277,2.4377,2.5284,2.4964,2.2974,2.3241,2.2306,1.9922,1.9502,1.9307,1.9346,1.9268,1.9248,1.9297,1.9639,1.9355,1.8574,1.9379,1.9802,2.0002,2.13,2.2213,2.2962,2.4378,2.4753,2.451,2.5339,2.5385,2.5034,2.5511,2.5674,2.5762,2.6289,2.6533,2.6533,2.6533,2.6533,2.6533,2.6533,2.5804,2.5004,2.5004,2.4264,2.3452,2.3368,2.3441,2.322,2.2113,2.1962,2.1745,2.0839,2.0986,2.1416,2.1816,2.1533,2.1367,2.1768,2.1152,2.0908,2.1709,2.1133,1.9882,1.7908,1.7321,1.6501,1.5148,1.4668,1.5015,1.6305,1.7257,1.7787,1.775,1.8318,1.8633,1.8773,1.9551,2.0312,2.1037,2.1419,2.1597,2.1663,2.207,2.2212,2.2037,2.1687,2.1689,2.1922,2.2004,2.2392,2.294,2.2705,2.2324,2.1992,2.2402,2.2314,2.1948,2.1567,2.148,2.1293,2.4472,2.3554,2.2793,2.2871,2.2822,2.2852,2.3096,2.3135,2.3135,2.3135,2.3135,2.3047,2.2793,2.2539,2.2306,2.207,2.2536,2.2631,2.2122,2.3583,2.3794,2.2387,2.251,2.2168,2.1175,1.9915,1.9414,1.9668,1.9414,1.9287,1.9287,1.9453,1.9219,1.8652,1.9252,1.9575,1.9606,2.039,2.1188,2.1948,2.2567,2.3404,2.4196,2.428,2.4513,2.4845,2.5059,2.5335,2.5636,2.5862,2.6176,2.6533,2.6533,2.6533,2.6533,2.6533,2.5996,2.5443,2.5787,2.5326,2.4576,2.3738,2.3963,2.3818,2.1669,2.1593,2.1735,2.0789,2.0918,2.1289,2.1465,2.1357,2.1289,2.1465,2.1201,2.1094,2.1445,2.0471,1.9104,1.7338,1.6097,1.495,1.3959,1.3705,1.3917,1.4605,1.5783,1.6536,1.6682,1.6785,1.7315,1.8406,1.81,1.8795,2.0673,2.0347,2.0424,2.0893,2.0875,2.0439,1.9786,1.962,1.9626,1.9877,1.9834,2.0629,2.1992,2.1832,2.1826,2.1953,2.2627,2.2026,2.0829,2.1189,2.0845,2.0124,2.4125,2.3388,2.2793,2.3086,2.2891,2.2793,2.3096,2.3135,2.3135,2.3135,2.3135,2.2978,2.2559,2.2139,2.1709,2.1269,2.1547,2.145,2.0644,2.2414,2.3073,2.2027,2.2553,2.2563,2.1838,2.0439,1.9793,1.9889,1.9383,1.9236,1.9451,1.9492,1.9307,1.9023,1.9199,1.9287,1.9307,1.9609,2.0232,2.0999,2.1282,2.2138,2.3087,2.2931,2.318,2.3603,2.4033,2.4406,2.4806,2.5244,2.5636,2.6,2.6163,2.6101,2.5975,2.5975,2.5686,2.5485,2.605,2.5697,2.4957,2.4126,2.4264,2.3975,2.1527,2.1517,2.1735,2.0789,2.082,2.1074,2.1211,2.1123,2.1074,2.1211,2.1123,2.0876,2.0627,1.9683,1.831,1.6501,1.5265,1.4136,1.3216,1.3073,1.32,1.3494,1.434,1.507,1.5534,1.5689,1.6388,1.762,1.68,1.733,1.9262,1.8488,1.8442,1.9158,1.8804,1.8347,1.7853,1.7938,1.8118,1.8266,1.8253,1.9141,2.0665,2.0851,2.1216,2.1597,2.2136,2.1522,2.0241,2.0253,1.9728,1.8924,2.3135,2.3135,2.3135,2.3135,2.3135,2.3135,2.3135,2.3135,2.3135,2.3135,2.3135,2.2978,2.2559,2.2139,2.1709,2.1269,2.123,2.1035,2.0596,2.2414,2.3073,2.2027,2.3891,2.389,2.145,2.0997,2.0453,1.9923,1.9054,1.9044,1.9865,1.9859,1.9902,1.9883,1.9473,1.9287,1.9287,1.9297,1.9531,1.9987,2.0999,2.1083,2.0702,2.1251,2.1093,2.0797,2.2215,2.2738,2.2951,2.4375,2.4833,2.4933,2.5435,2.5259,2.4845,2.4845,2.4845,2.4946,2.546,2.4915,2.435,2.4874,2.4264,2.322,2.2253,2.1952,2.1735,2.0789,2.0566,2.0713,2.1152,2.0869,2.0713,2.1162,2.0859,2.0255,1.9204,1.8701,1.7595,1.515,1.4794,1.4282,1.2932,1.2829,1.2879,1.3193,1.3206,1.366,1.4569,1.5618,1.622,1.6228,1.5955,1.5931,1.622,1.5591,1.5408,1.5683,1.5618,1.6063,1.6702,1.7131,1.754,1.8036,1.7969,1.8476,1.9135,1.9905,2.0421,2.0706,2.0723,2.0697,2.0458,1.8481,1.7772,1.7502,2.3135,2.3135,2.3135,2.3135,2.3135,2.3135,2.3135,2.3135,2.3135,2.3135,2.3539,2.3793,2.3649,2.3145,2.2818,2.2664,2.2703,2.2724,2.2574,2.3818,2.4409,2.4047,2.4296,2.4108,2.3303,2.2165,2.1556,2.1322,2.1058,2.0552,1.9923,2.0256,1.9887,1.9053,1.9209,1.9287,1.9307,1.959,1.9629,1.9482,1.9839,2.0063,2.008,2.0023,2.0205,2.0677,2.1092,2.1506,2.1881,2.2317,2.2507,2.2596,2.3364,2.4168,2.482,2.482,2.4147,2.3498,2.4008,2.3278,2.2252,2.2125,2.1903,2.1488,2.0771,2.0791,2.0934,2.0644,2.0566,2.0605,2.0752,2.0664,2.0371,1.9785,1.9604,1.9116,1.7989,1.6806,1.5771,1.5204,1.4122,1.3313,1.3131,1.2419,1.2123,1.2306,1.1744,1.2105,1.3608,1.3413,1.3743,1.483,1.3423,1.3297,1.4596,1.3772,1.3754,1.4706,1.4934,1.5312,1.6029,1.5372,1.5418,1.598,1.5986,1.6773,1.8166,1.8441,1.9351,2.0718,2.0985,2.0476,1.94,1.9101,1.7817,1.6358,2.3135,2.3135,2.3135,2.3135,2.3135,2.3135,2.3135,2.3135,2.3135,2.3135,2.389,2.4451,2.4451,2.4438,2.4279,2.3702,2.3599,2.3514,2.3514,2.4409,2.5004,2.5004,2.4852,2.4478,2.3934,2.2852,2.2159,2.1964,2.1964,2.1531,2.0705,2.0418,2.0009,1.9364,1.9128,1.9043,1.9062,1.9326,1.9287,1.9043,1.9043,1.9123,1.9165,1.889,1.9073,1.9458,1.9944,2.0336,2.0654,2.0984,2.1115,2.1181,2.1777,2.2515,2.3264,2.3597,2.2895,2.2022,2.2601,2.1755,2.088,2.0991,2.0596,2.0134,1.9767,1.9893,2.0127,2.0293,2.0322,2.0371,2.0537,2.0245,1.9766,1.9125,1.8638,1.798,1.6846,1.572,1.4907,1.4721,1.3777,1.316,1.3353,1.2792,1.2282,1.1934,1.142,1.1354,1.1852,1.1575,1.1769,1.2643,1.1322,1.1207,1.2504,1.1756,1.1841,1.2756,1.3507,1.4021,1.4434,1.423,1.4321,1.477,1.481,1.5603,1.6869,1.7363,1.837,1.9684,2.0369,1.9752,1.8449,1.872,1.7554,1.5832,2.3135,2.3135,2.3135,2.3135,2.3135,2.3135,2.3135,2.3135,2.3135,2.3222,2.4211,2.4957,2.5041,2.6018,2.6106,2.4721,2.405,2.3734,2.3734,2.4552,2.5063,2.5028,2.5351,2.4942,2.3532,2.3078,2.2611,2.2121,2.2073,2.2005,2.1924,2.0665,2.0228,2.0488,1.9183,1.8584,1.8523,1.8623,1.8553,1.8523,1.8623,1.8389,1.8008,1.8008,1.7764,1.7603,1.8767,1.9233,1.9299,2.0139,2.0398,2.0398,2.0462,2.0462,2.059,2.1553,2.1175,2.0627,2.1151,2.0539,2.0,2.0927,2.0244,1.9297,1.9326,1.9355,1.9492,1.9873,1.9885,2.0002,2.0411,1.9599,1.8877,1.8798,1.79,1.6846,1.5703,1.5338,1.4831,1.3749,1.3572,1.3654,1.3592,1.3572,1.3067,1.2082,1.1872,1.1212,0.9732,1.0013,1.0211,1.006,0.9722,0.9732,1.0015,0.9717,0.9703,1.0139,1.1634,1.2351,1.2351,1.3587,1.4318,1.4576,1.4533,1.4872,1.5476,1.665,1.7341,1.7792,1.9027,1.8718,1.7644,1.7781,1.6951,1.5798,2.3135,2.3135,2.3135,2.3135,2.3135,2.3135,2.3135,2.3135,2.3387,2.4286,2.5389,2.6378,2.7267,2.7927,2.8039,2.7262,2.6343,2.5791,2.5791,2.6013,2.5965,2.5462,2.5153,2.4616,2.3864,2.4137,2.4223,2.4087,2.3678,2.2982,2.1917,2.1597,2.0761,1.9624,1.9251,1.8748,1.8184,1.8496,1.8457,1.8184,1.8506,1.8389,1.8008,1.8008,1.7949,1.7871,1.8172,1.8337,1.8337,1.8529,1.8586,1.8721,1.9431,1.9177,1.8911,2.0462,2.0268,1.9649,1.9756,1.9142,1.8536,1.8745,1.9081,1.9375,1.9697,2.0029,2.0293,2.0391,1.9771,1.9243,1.9344,1.847,1.7415,1.6593,1.6273,1.5703,1.4657,1.4228,1.3967,1.3955,1.3781,1.3734,1.3961,1.3099,1.2463,1.259,1.0768,0.9666,0.9512,0.8718,0.8536,0.8996,0.8434,0.8124,0.8257,0.7998,0.8396,0.9256,1.1543,1.2709,1.2715,1.3877,1.4717,1.5176,1.4963,1.5234,1.5749,1.6035,1.6784,1.784,1.9069,1.8644,1.7485,1.8425,1.7379,1.5498,2.3963,2.3877,2.3714,2.3222,2.3135,2.3135,2.3135,2.3135,2.3551,2.4628,2.5797,2.6883,2.8004,2.8381,2.8436,2.8134,2.7318,2.6728,2.6546,2.6533,2.6201,2.5624,2.5096,2.4569,2.4004,2.4042,2.418,2.4443,2.3879,2.3319,2.2823,2.2183,2.1428,2.0462,2.0074,1.9431,1.8607,1.8849,1.8546,1.8027,1.8262,1.8096,1.7744,1.7939,1.7891,1.7744,1.7939,1.8008,1.8008,1.8008,1.8269,1.8654,1.9177,1.9243,1.9299,1.9814,1.9365,1.8721,1.8721,1.8327,1.8008,1.8008,1.8652,1.9297,1.9326,1.9668,1.9954,1.9591,1.9077,1.8583,1.8275,1.7334,1.6355,1.5779,1.5296,1.4734,1.4166,1.3948,1.3908,1.4068,1.3941,1.3908,1.4075,1.3426,1.2849,1.2602,1.1486,1.0617,1.0295,0.9836,0.9153,0.8257,0.7787,0.76,0.76,0.7516,0.8066,0.9225,1.1125,1.2445,1.2993,1.4173,1.5014,1.5422,1.5287,1.5396,1.5832,1.5832,1.6177,1.6958,1.8045,1.7905,1.7229,1.833,1.8024,1.6911,2.521,2.4957,2.4457,2.3551,2.3387,2.3299,2.3135,2.3222,2.38,2.4872,2.5891,2.6964,2.8176,2.8285,2.8235,2.8235,2.7657,2.7055,2.6559,2.6533,2.6201,2.5624,2.5172,2.4644,2.4017,2.3427,2.3464,2.4117,2.3464,2.3389,2.3853,2.2665,2.2002,2.1877,2.1112,2.0333,1.9486,1.9291,1.8752,1.8103,1.7909,1.7607,1.7324,1.7686,1.7693,1.7619,1.785,1.8017,1.8202,1.8202,1.8721,1.9299,1.9431,2.0009,2.0398,1.9562,1.8787,1.8134,1.8008,1.8008,1.8027,1.8086,1.8701,1.9209,1.8896,1.917,1.9348,1.8773,1.8366,1.8005,1.7357,1.6273,1.547,1.5521,1.4678,1.4102,1.4142,1.4115,1.4088,1.4088,1.4128,1.4155,1.4155,1.4195,1.3795,1.285,1.2969,1.2592,1.1552,1.1701,1.0784,0.8328,0.8226,0.8226,0.8226,0.8204,0.8742,0.9842,1.1051,1.2259,1.3276,1.4475,1.5185,1.5454,1.5417,1.5528,1.5832,1.5832,1.5805,1.5819,1.6784,1.7078,1.6982,1.8008,1.8477,1.8596,2.6307,2.5462,2.4702,2.4542,2.4542,2.4211,2.3222,2.3877,2.4967,2.6058,2.6389,2.7302,2.9287,2.9113,2.88,2.88,2.7871,2.7055,2.6559,2.6533,2.6201,2.5624,2.5523,2.5008,2.4017,2.3427,2.3653,2.4695,2.3653,2.3175,2.3203,2.3055,2.2567,2.1877,2.1753,2.1227,2.03,1.919,1.8647,1.8423,1.7318,1.6885,1.6836,1.6904,1.754,1.8307,1.7704,1.8151,1.911,1.911,1.9177,1.9431,2.0139,2.0462,2.0398,1.9562,1.9177,1.8911,1.8202,1.8008,1.8096,1.8447,1.8916,1.9365,1.9648,2.0049,2.0381,2.0285,1.8779,1.7429,1.7326,1.5711,1.4409,1.4661,1.4327,1.4175,1.4422,1.4242,1.4088,1.4088,1.4302,1.4449,1.4449,1.4683,1.484,1.4891,1.3841,1.3291,1.3483,1.2368,1.1622,1.1264,1.1264,1.1264,1.1264,1.1086,1.1179,1.1368,1.2692,1.345,1.3641,1.4765,1.5517,1.5758,1.5514,1.555,1.5832,1.5832,1.5685,1.5544,1.6715,1.6802,1.641,1.7641,1.8192,1.8411,2.7452,2.6942,2.6367,2.5797,2.5724,2.5557,2.4967,2.5389,2.613,2.7197,2.736,2.7841,2.9187,2.8825,2.836,2.8059,2.7306,2.6728,2.6546,2.6533,2.6076,2.5222,2.5184,2.4657,2.3552,2.3215,2.3389,2.3916,2.3389,2.3078,2.3078,2.3078,2.2884,2.258,2.258,2.2063,2.1267,2.0302,1.9643,1.9111,1.8216,1.7852,1.7852,1.7852,1.8224,1.8746,1.8701,1.8828,1.9143,1.9467,1.9871,2.0301,2.0687,2.112,2.1313,2.032,1.9375,1.8529,1.8144,1.8008,1.8115,1.8535,1.8965,1.9394,1.9814,2.0254,2.0401,1.9844,1.847,1.709,1.6519,1.5144,1.4182,1.4476,1.4275,1.4188,1.4482,1.4402,1.4322,1.4322,1.4583,1.4763,1.4763,1.4883,1.5017,1.5157,1.4715,1.4463,1.4716,1.4175,1.3951,1.398,1.2624,1.1945,1.1945,1.1844,1.2172,1.2936,1.3512,1.4187,1.486,1.5343,1.5705,1.5818,1.5645,1.5671,1.5832,1.5832,1.5631,1.5409,1.5819,1.6448,1.7122,1.7795,1.8961,2.0174,2.8688,2.8255,2.7844,2.7046,2.6648,2.6389,2.6141,2.6141,2.6461,2.7602,2.7522,2.7782,2.9012,2.8288,2.7679,2.7695,2.6929,2.6584,2.671,2.6596,2.6025,2.5046,2.4883,2.4418,2.3478,2.3401,2.3339,2.3339,2.314,2.3078,2.3078,2.3078,2.3078,2.3078,2.3078,2.2688,2.1982,2.1308,2.0496,1.964,1.9019,1.8736,1.8578,1.8578,1.8899,1.9253,1.9331,1.9392,1.9422,1.9776,2.028,2.0819,2.1068,2.1445,2.1685,2.0705,1.928,1.8037,1.8125,1.8154,1.8232,1.8484,1.9033,1.9492,1.9717,2.0185,2.0352,1.965,1.836,1.713,1.6389,1.5148,1.4342,1.4496,1.4389,1.4369,1.4589,1.4623,1.4623,1.4623,1.4883,1.5064,1.5064,1.5124,1.5164,1.5164,1.5371,1.5498,1.5498,1.5705,1.5832,1.5832,1.3884,1.2818,1.2818,1.2818,1.3301,1.4364,1.4364,1.4854,1.5832,1.5832,1.5832,1.5832,1.5832,1.5832,1.5832,1.5832,1.5651,1.5364,1.5124,1.6235,1.7978,1.8087,1.9773,2.1987,2.9702,2.8846,2.8096,2.8016,2.7116,2.6141,2.5126,2.4957,2.5294,2.6472,2.5714,2.6273,2.9394,2.7895,2.7218,2.8687,2.7369,2.6747,2.7193,2.681,2.6189,2.5561,2.5084,2.4782,2.4695,2.4192,2.3941,2.3941,2.3389,2.3078,2.3078,2.3078,2.3078,2.3078,2.3078,2.279,2.2243,2.1475,2.058,1.9518,1.8805,1.8159,1.7678,1.7678,1.877,2.0121,1.8873,1.9458,2.0759,2.0311,2.0228,2.0401,2.1193,2.1011,2.0462,1.9923,1.8952,1.8096,1.8486,1.8594,1.8523,1.8562,1.9258,1.9775,1.9414,1.9971,2.0684,2.1014,1.9261,1.7762,1.7846,1.6248,1.4816,1.4563,1.4736,1.4903,1.493,1.493,1.493,1.493,1.5184,1.5364,1.5364,1.5611,1.5765,1.5765,1.5785,1.5798,1.5798,1.5818,1.5832,1.5832,1.5635,1.5534,1.5534,1.5534,1.554,1.5635,1.5635,1.573,1.5832,1.5832,1.5832,1.5832,1.5832,1.5832,1.5832,1.5832,1.5602,1.5429,1.5378,1.6551,1.8335,1.8341,2.009,2.2471,2.9792,2.9456,2.8937,2.8255,2.7763,2.7116,2.6047,2.588,2.5975,2.6472,2.5875,2.5809,2.6714,2.5808,2.5483,2.6433,2.5934,2.5889,2.6753,2.6239,2.5686,2.5146,2.4594,2.4142,2.3716,2.3577,2.3464,2.3464,2.3238,2.3078,2.3078,2.3078,2.3078,2.3078,2.3078,2.2824,2.2226,2.1646,2.0952,2.0237,1.9546,1.9172,1.9028,1.9365,1.9709,2.0042,1.9959,1.9807,1.9566,1.9552,1.9378,1.9183,1.9537,1.9424,1.9114,1.8642,1.8076,1.7773,1.8457,1.8562,1.876,1.9297,1.9678,1.9941,2.0049,2.0332,2.0527,2.013,1.8885,1.7701,1.7227,1.592,1.4983,1.505,1.501,1.5023,1.5204,1.5231,1.5231,1.5231,1.5484,1.5665,1.5665,1.5765,1.5832,1.5832,1.5832,1.5832,1.5832,1.5832,1.5832,1.5832,1.5832,1.5832,1.5832,1.5832,1.5832,1.5832,1.5832,1.5832,1.5832,1.5832,1.5832,1.5832,1.5832,1.5832,1.5832,1.5832,1.6047,1.655,1.6501,1.7771,1.9564,1.9826,2.1038,2.2549,2.8791,2.8791,2.8542,2.7695,2.7267,2.686,2.6047,2.5641,2.5557,2.5891,2.5218,2.4886,2.5194,2.4646,2.4494,2.5194,2.5396,2.5734,2.6452,2.6088,2.5473,2.4607,2.4368,2.3904,2.309,2.3314,2.3314,2.3078,2.2902,2.2902,2.3078,2.2962,2.2915,2.3078,2.3078,2.2736,2.2046,2.1832,2.123,2.0376,2.0162,1.9962,1.9849,2.0238,2.0145,1.9805,2.0181,1.9568,1.8611,1.8645,1.8428,1.8216,1.8216,1.8258,1.8191,1.7761,1.7695,1.79,1.8486,1.8838,1.915,1.96,1.9922,2.0166,2.0322,2.0469,2.0487,2.0207,1.8976,1.7819,1.7469,1.6228,1.5244,1.5257,1.5244,1.5277,1.5384,1.5478,1.5531,1.5531,1.5705,1.5832,1.5832,1.5832,1.5832,1.5832,1.5832,1.6015,1.6386,1.6015,1.6015,1.6386,1.6015,1.5832,1.5832,1.5832,1.5832,1.5832,1.5832,1.5832,1.5832,1.5832,1.5832,1.5832,1.5832,1.6001,1.6351,1.6351,1.7008,1.7888,1.7888,1.9035,2.0554,2.095,2.1736,2.2754,2.6483,2.6483,2.6483,2.6483,2.5546,2.4787,2.4787,2.38,2.3551,2.4617,2.3418,2.3314,2.5572,2.4847,2.463,2.5656,2.6239,2.6452,2.6533,2.6533,2.5724,2.4079,2.4531,2.4293,2.3103,2.3703,2.3715,2.3078,2.2585,2.2598,2.3053,2.2573,2.2598,2.3065,2.3065,2.251,2.1518,2.2071,2.133,1.9849,2.0426,2.0313,1.9798,1.9811,1.9715,1.9507,1.8917,1.8623,1.8373,1.7812,1.7589,1.7578,1.7578,1.7683,1.7709,1.7506,1.7978,1.8562,1.8562,1.9258,1.9814,1.9394,1.9932,2.0449,2.0019,2.0254,2.082,2.1709,1.9894,1.8357,1.8982,1.7268,1.5638,1.5154,1.5451,1.5725,1.5438,1.5651,1.5832,1.5825,1.5825,1.5832,1.5832,1.5832,1.5832,1.5832,1.5832,1.6386,1.7598,1.648,1.6386,1.7692,1.648,1.5832,1.5832,1.5832,1.5832,1.5832,1.5832,1.5832,1.5832,1.5832,1.5832,1.5832,1.5832,1.6532,1.7672,1.7672,1.8403,1.9533,1.9477,2.0266,2.1268,2.1302,2.2106,2.3135,2.6483,2.6483,2.6224,2.5462,2.5041,2.4542,2.3714,2.3299,2.3222,2.3551,2.2764,2.231,2.3023,2.2206,2.2324,2.4022,2.4334,2.4981,2.6383,2.6076,2.5473,2.4619,2.4732,2.4293,2.3103,2.3314,2.3314,2.3078,2.2915,2.2774,2.2548,2.2385,2.2196,2.1983,2.1983,2.1581,2.097,2.1091,2.0627,1.9823,1.9987,1.9962,1.9784,1.9695,1.9372,1.8927,1.8416,1.7752,1.7052,1.6999,1.6326,1.5619,1.5908,1.5999,1.6239,1.7106,1.7559,1.7881,1.8477,1.9043,1.9512,1.9687,2.0146,2.0527,2.04,2.0469,2.0564,2.0569,1.9272,1.8431,1.9216,1.8157,1.7066,1.6885,1.7727,1.8087,1.7186,1.7795,1.8126,1.7225,1.7131,1.6763,1.592,1.5832,1.5832,1.5832,1.5832,1.6386,1.7598,1.648,1.6386,1.7692,1.648,1.5832,1.5832,1.5832,1.5832,1.5832,1.5832,1.5832,1.5832,1.5832,1.5832,1.5832,1.5832,1.656,1.7732,1.7659,1.8894,2.0737,2.0748,2.1484,2.2581,2.2589,2.2794,2.3135,2.5147,2.5147,2.4978,2.4211,2.4125,2.3887,2.3222,2.3135,2.3076,2.291,2.2305,2.1816,2.165,2.1372,2.1665,2.3047,2.388,2.4763,2.5816,2.5697,2.536,2.4845,2.4619,2.4067,2.309,2.3078,2.3078,2.3078,2.2698,2.2422,2.2297,2.187,2.1594,2.1493,2.1493,2.1179,2.0718,2.0718,2.0326,1.9798,1.9798,1.9798,1.9784,1.9419,1.8838,1.8193,1.7636,1.6971,1.6333,1.6412,1.5754,1.5043,1.5429,1.5555,1.5833,1.7225,1.7744,1.7988,1.8496,1.9072,1.9639,2.0068,2.0371,2.0566,2.0566,2.0703,2.0857,2.0772,1.9906,1.9417,2.0103,1.9222,1.8411,1.8411,1.9039,1.9222,1.8503,1.9039,1.9222,1.8503,1.8411,1.8133,1.7296,1.6842,1.6386,1.5825,1.5832,1.6386,1.7598,1.648,1.6386,1.7692,1.648,1.5832,1.5832,1.5832,1.5832,1.5832,1.5832,1.5832,1.5832,1.5832,1.5832,1.5832,1.5832,1.6749,1.8395,1.8443,1.9855,2.1998,2.1989,2.2456,2.3135,2.3135,2.3135,2.3135,2.3135,2.3135,2.3135,2.3135,2.3135,2.3135,2.3135,2.3105,2.2959,2.2617,2.2139,2.1689,2.1328,2.1602,2.2053,2.2558,2.4337,2.5274,2.504,2.5276,2.5294,2.4845,2.4293,2.3728,2.3078,2.3005,2.3005,2.3078,2.2063,2.1775,2.2221,2.1204,2.0953,2.1343,2.1343,2.1054,2.0643,2.0643,2.0288,1.9798,1.9798,1.9747,1.9643,1.8934,1.8159,1.7424,1.6694,1.6272,1.6016,1.5901,1.5657,1.5352,1.5641,1.5671,1.5963,1.7464,1.8162,1.8501,1.8611,1.9297,2.0019,2.0459,2.0596,2.0635,2.0674,2.0967,2.1367,2.1846,2.1268,2.0833,2.1407,2.0486,1.967,1.967,1.9761,1.9761,1.967,1.9761,1.977,1.967,1.967,1.9579,1.9488,1.8411,1.7225,1.6015,1.5825,1.6386,1.7598,1.648,1.6386,1.7692,1.648,1.5832,1.5832,1.5832,1.5832,1.5832,1.5832,1.5832,1.5832,1.5832,1.5832,1.5832,1.5832,1.7203,1.9497,1.9497,2.0953,2.3135,2.3135,2.3135,2.3135,2.3135,2.3135,2.3135,2.3135,2.3135,2.3135,2.3135,2.3135,2.3135,2.3135,2.2861,2.2734,2.2969,2.2051,2.1475,2.1719,2.1263,2.1272,2.2098,2.3227,2.4223,2.4933,2.4656,2.4615,2.4781,2.4293,2.3728,2.3078,2.2506,2.2445,2.3078,2.2213,2.1797,2.1656,2.143,2.0903,2.0162,2.0162,2.01,1.9987,1.9987,1.9911,1.9798,1.9798,1.9475,1.8922,1.8506,1.7688,1.6705,1.6325,1.594,1.5407,1.4672,1.4731,1.508,1.4387,1.4198,1.4561,1.6401,1.7217,1.7756,1.8827,1.9521,2.0019,2.0459,2.083,2.1182,2.1523,2.1406,2.1445,2.2217,2.1465,2.1103,2.2416,2.1756,2.0935,2.0935,2.1667,2.1952,2.1025,2.1756,2.1943,2.1025,2.0935,2.0576,1.9579,1.8411,1.7598,1.7318,1.6386,1.6386,1.7598,1.648,1.6386,1.7692,1.648,1.5832,1.5832,1.5832,1.5832,1.5832,1.5832,1.5832,1.5832,1.5832,1.5832,1.5832,1.5832,1.7203,1.9497,1.9497,2.0953,2.3135,2.3135,2.3135,2.3135,2.3135,2.3135,2.3135,2.3135,2.3135,2.3135,2.3135,2.3135,2.3135,2.3135,2.2949,2.2822,2.2832,2.2256,2.1777,2.1592,2.1162,2.1026,2.1318,2.2389,2.3251,2.3537,2.3495,2.3628,2.4079,2.3594,2.3069,2.2519,2.2137,2.231,2.3078,2.2443,2.2024,2.1882,2.1606,2.1179,2.0602,2.0602,2.0464,2.0213,2.0213,1.984,1.9279,1.9536,1.9149,1.8483,1.8192,1.7696,1.7033,1.6347,1.5792,1.5173,1.4023,1.4025,1.4386,1.3882,1.3673,1.4099,1.6,1.6856,1.7487,1.8942,1.9209,1.9286,1.9976,1.9746,1.9714,2.1221,2.1719,2.1973,2.2422,2.2131,2.2061,2.2911,2.2589,2.2129,2.2129,2.2677,2.2862,2.2217,2.2677,2.2862,2.2217,2.2129,2.1667,2.0486,1.9761,1.9222,1.8596,1.7404,1.7037,1.7684,1.648,1.6109,1.6756,1.6109,1.5832,1.5832,1.5972,1.6039,1.6039,1.5899,1.5905,1.6039,1.5892,1.5832,1.5832,1.5832,1.7203,1.9497,1.9497,2.0953,2.3135,2.3135,2.2669,2.1992,2.1992,2.2108,2.2339,2.3387,2.3222,2.3135,2.3135,2.3135,2.3135,2.3135,2.3076,2.293,2.2656,2.249,2.2158,2.1523,2.1387,2.1162,2.0713,2.1835,2.2424,2.2109,2.2453,2.2812,2.31,2.2798,2.2356,2.1702,2.1939,2.2384,2.2884,2.2437,2.228,2.2297,2.1845,2.1581,2.1481,2.1393,2.1091,2.0652,2.0445,1.9731,1.8827,1.9101,1.8703,1.7947,1.7718,1.7409,1.6996,1.6172,1.5532,1.4941,1.3707,1.3476,1.3673,1.3528,1.3492,1.3893,1.5672,1.6499,1.7158,1.8461,1.8467,1.8301,1.903,1.8344,1.8014,2.0485,2.1627,2.2177,2.2502,2.2891,2.3135,2.3135,2.3135,2.3135,2.3135,2.3135,2.3135,2.3135,2.3135,2.3135,2.3135,2.3135,2.2677,2.1658,2.1391,2.0845,1.9852,1.8503,1.7692,1.7692,1.648,1.5832,1.5832,1.5832,1.5852,1.5905,1.6152,1.6326,1.642,1.6072,1.6032,1.6259,1.5965,1.5832,1.5832,1.5832,1.7117,1.9222,1.9281,2.0639,2.2755,2.2998,2.2309,2.1004,2.0465,2.0713,2.1434,2.4382,2.38,2.3135,2.3135,2.3135,2.3135,2.3135,2.2832,2.2705,2.3018,2.2422,2.207,2.2314,2.2012,2.1621,2.1182,2.1696,2.215,2.259,2.265,2.2563,2.216,2.2805,2.246,2.0805,2.2187,2.2641,2.2063,2.2003,2.2104,2.2309,2.2234,2.1945,2.1468,2.1046,2.0794,2.0627,1.9466,1.9102,1.9238,1.868,1.7717,1.6697,1.7002,1.5965,1.4436,1.4647,1.4638,1.4484,1.3453,1.3405,1.3528,1.2732,1.2702,1.3134,1.4246,1.4981,1.5795,1.6768,1.7217,1.7446,1.7546,1.7779,1.8321,1.9958,2.0466,2.1005,2.2631,2.3096,2.3135,2.3135,2.3135,2.3135,2.3135,2.3135,2.3135,2.3135,2.3135,2.3135,2.3135,2.3135,2.3047,2.2862,2.1933,2.1203,2.1025,1.8948,1.7692,1.7692,1.648,1.5832,1.5832,1.5832,1.5952,1.6213,1.6253,1.6526,1.7027,1.6473,1.6233,1.6259,1.5965,1.5832,1.5832,1.5832,1.6662,1.7948,1.8279,1.9422,2.1132,2.2602,2.3012,2.2475,1.9625,1.972,2.1319,2.4702,2.4372,2.3887,2.3222,2.3135,2.3135,2.3135,2.2978,2.293,2.3115,2.2812,2.248,2.2197,2.1553,2.1064,2.0879,2.1269,2.1479,2.1555,2.1524,2.1511,2.1575,2.1443,2.1219,2.0928,2.1945,2.2261,2.1877,2.2384,2.2639,2.2774,2.2774,2.2636,2.2397,2.2159,2.187,2.1512,2.0427,1.9702,1.9148,1.8012,1.6987,1.6122,1.6057,1.542,1.4547,1.4024,1.3808,1.36,1.2706,1.2627,1.2907,1.2641,1.2714,1.3002,1.4081,1.4844,1.553,1.6466,1.6565,1.6437,1.6437,1.6202,1.6458,1.7973,1.846,1.9372,2.2465,2.3135,2.2862,2.2217,2.212,2.212,2.212,2.212,2.2306,2.3047,2.3135,2.3135,2.3135,2.3135,2.3135,2.3135,2.2031,2.1293,2.1293,1.9039,1.7692,1.7692,1.648,1.5832,1.5832,1.5832,1.5972,1.6273,1.6433,1.6727,1.725,1.6887,1.6673,1.65,1.6039,1.5832,1.5832,1.5832,1.648,1.7677,1.7135,1.8899,2.2124,2.2825,2.1464,1.8886,1.7384,1.7968,1.9497]},{"header":{"parameterUnit":"m.s-1","parameterCategory":1,"la1":30.6,"la2":28.766,"lo1":-90.7593,"lo2":-88.6598,"dy":0.0162,"dx":0.0183,"nx":116,"ny":114,"refTime":"2023-07-30T06:00:00:Z","depth":0,"parameterNumber":3,"parameterNumberName":"V-component_of_WINDS"},"data":[0.0,0.0,0.0,0.0,0.0,0.0,0.0,0.0,0.0,0.0,0.0,0.0,0.0,0.0,0.0,0.0,0.0,0.0,0.0,0.0,0.0,0.0,0.0,0.0,0.0,0.0,0.0,0.0,0.0,0.0,0.0,0.0,0.0,0.0,0.0,0.0,0.0,0.0,0.0,0.0,0.0,0.0,0.0,0.0,0.0,0.0,0.0,0.0,0.0,0.0,0.0,0.0,0.0,0.0,0.0,0.0,0.0,0.0,0.0,0.0,0.0,0.0,0.0,0.0,0.0,0.0,0.0,0.0,0.0,0.0,0.0,0.0,0.0,0.0,0.0,0.0,0.0,0.0,0.0,0.0,0.0,0.0,0.0,0.0,0.0,0.0,0.0,0.0,0.0,0.0,0.0,0.0,0.0,0.0,0.0,0.0,0.0,0.0,0.0,0.0,0.0,0.0,0.0,0.0,0.0,0.0,0.0,0.0,0.0,0.0,0.0,0.0,0.0,0.0,0.0,0.0,0.0,0.0,0.0,0.0,0.0,0.0,0.0,0.0,0.0,0.0,0.0,0.0,0.0,0.0,0.0,0.0,0.0,0.0,0.0,0.0,0.0,0.0,0.0,0.0,0.0,0.0,0.0,0.0,0.0,0.0,0.0,0.0,0.0,0.0,0.0,0.0,0.0,0.0,0.0,0.0,0.0,0.0,0.0,0.0,0.0,0.0,0.0,0.0,0.0,0.0,0.0,0.0,0.0,0.0,0.0,0.0,0.0,0.0,0.0,0.0,0.0,0.0,0.0,0.0,0.0,0.0,0.0,0.0,0.0,0.0,0.0,0.0,0.0,0.0,0.0,0.0,0.0,0.0,0.0,0.0,0.0,0.0,0.0,0.0,0.0,0.0,0.0,0.0,0.0,0.0,0.0,0.0,0.0,0.0,0.0,0.0,0.0,0.0,0.0,0.0,0.0,0.0,0.0,0.0,0.0,0.0,0.0,0.0,0.0,0.0,0.0,0.0,0.0,0.0,0.0,0.0,0.0,0.0,0.0,0.0,0.0,0.0,0.0,0.0,0.0,0.0,0.0,0.0,0.0,0.0,0.0,0.0,0.0,0.0,0.0,0.0,0.0,0.0,0.0,0.0,0.0,0.0,0.0,0.0,0.0,0.0,0.0,0.0,0.0,0.0,0.0,0.0,0.0,0.0,0.0,0.0,0.0,0.0,0.0,0.0,0.0,0.0,0.0,0.0,0.0,0.0,0.0,0.0,0.0,0.0,0.0,0.0,0.0,0.0,0.0,0.0,0.0,0.0,0.0,0.0,0.0,0.0,0.0,0.0,0.0,0.0,0.0,0.0,0.0,0.0,0.0,0.0,0.0,0.0,0.0,0.0,0.0,0.0,0.0,0.0,0.0,0.0,0.0,0.0,0.0,0.0,0.0,0.0,0.0,0.0,0.0,0.0,0.0,0.0,0.0,0.0,0.0,0.0,0.0,0.0,0.0,0.0,0.0,0.0,0.0,0.0,0.0,0.0,0.0,0.0,0.0,0.0,0.0,0.0,0.0,0.0,0.0,0.0,0.0,0.0,0.0,0.0,0.0,0.0,0.0,0.0,0.0,0.0,0.0,0.0,0.0,0.0,0.0,0.0,0.0,0.0,0.0,0.0,0.0,0.0,0.0,0.0,0.0,0.0,0.0,0.0,0.0,0.0,0.0,0.0,0.0,0.0,0.0,0.0,0.0,0.0,0.0,0.0,0.0,0.0,0.0,0.0,0.0,0.0,0.0,0.0,0.0,0.0,0.0,0.0,0.0,0.0,0.0,0.0,0.0,0.0,0.0,0.0,0.0,0.0,0.0,0.0,0.0,0.0,0.0,0.0,0.0,0.0,0.0,0.0,0.0,0.0,0.0,0.0,0.0,0.0,0.0,0.0,0.0,0.0,0.0,0.0,0.0,0.0,0.0,0.0,0.0,0.0,0.0,0.0,0.0,0.0,0.0,0.0,0.0,0.0,0.0,0.0,0.0,0.0,0.0,0.0,0.0,0.0,0.0,0.0,0.0,0.0,0.0,0.0,0.0,0.0,0.0,0.0,0.0,0.0,0.0,0.0,0.0,0.0,0.0,0.0,0.0,0.0,0.0,0.0,0.0,0.0,0.0,0.0,0.0,0.0,0.0,0.0,0.0,0.0,0.0,0.0,0.0,0.0,0.0,0.0,0.0,0.0,0.0,0.0,0.0,0.0,0.0,0.0,0.0,0.0,0.0,0.0,0.0,0.0,0.0,0.0,0.0,0.0,0.0,0.0,0.0,0.0,0.0,0.0,0.0,0.0,0.0,0.0,0.0,0.0,0.0,0.0,0.0,0.0,0.0,0.0,0.0,0.0,0.0,0.0,0.0,0.0,0.0,0.0,0.0,0.0,0.0,0.0,0.0,0.0,0.0,0.0,0.0,0.0,0.0,0.0,0.0,0.0,0.0,0.0,0.0,0.0,0.0,0.0,0.0,0.0,0.0,0.0,0.0,0.0,0.0,0.0,0.0,0.0,0.0,0.0,0.0,0.0,0.0,0.0,0.0,0.0,0.0,0.0,0.0,0.0,0.0,0.0,0.0,0.0,0.0,0.0,0.0,0.0,0.0,0.0,0.0,0.0,0.0,0.0,0.0,0.0,0.0,0.0,0.0,0.0,0.0,0.0,0.0,0.0,0.0,0.0,0.0,0.0,0.0,0.0,0.0,0.0,0.0,0.0,0.0,0.0,0.0,0.0,0.0,0.0,0.0,0.0,0.0,0.0,0.0,0.0,0.0,0.0,0.0,0.0,0.0,0.0,0.0,0.0,0.0,0.0,0.0,0.0,0.0,0.0,0.0,0.0,0.0,0.0,0.0,0.0,0.0,0.0,0.0,0.0,0.0,0.0,0.0,0.0,0.0,0.0,0.0,0.0,0.0,0.0,0.0,0.0,0.0,0.0,0.0,0.0,0.0,0.0,0.0,0.0,0.0,0.0,0.0,0.0,0.0,0.0,0.0,0.0,0.0,0.0,0.0,0.0,0.0,0.0,0.0,0.0,0.0,0.0,0.0,0.0,0.0,0.0,0.0,0.0,0.0,0.0,0.0,0.0,0.0,0.0,0.0,0.0,0.0,0.0,0.0,0.0,0.0,0.0,0.0,0.0,0.0,0.0,0.0,0.0,0.0,0.0,0.0,0.0,0.0,0.0,0.0,0.0,0.0,0.0,0.0,0.0,0.0,0.0,0.0,0.0,0.0,0.0,0.0,0.0,0.0,0.0,0.0,0.0,0.0,0.0,0.0,0.0,0.0,0.0,0.0,0.0,0.0,0.0,0.0,0.0,0.0,0.0,0.0,0.0,0.0,0.0,0.0,0.0,0.0,0.0,0.0,0.0,0.0,0.0,0.0,0.0,0.0,0.0,0.0,0.0,0.0,0.0,0.0,0.0,0.0,0.0,0.0,0.0,0.0,0.0,0.0,0.0,0.0,0.0,0.0,0.0,0.0,0.0,0.0,0.0,0.0,0.0,0.0,0.0,0.0,0.0,0.0,0.0,0.0,0.0,0.0,0.0,0.0,0.0,0.0,0.0,0.0,0.0,0.0,0.0,0.0,0.0,0.0,0.0,0.0,0.0,0.0,0.0,0.0,0.0,0.0,0.0,0.0,0.0,0.0,0.0,0.0,0.0,0.0,0.0,0.0,0.0,0.0,0.0,0.0,0.0,0.0,0.0,0.0,0.0,0.0,0.0,0.0,0.0,0.0,0.0,0.0,0.0,0.0,0.0,0.0,0.0,0.0,0.0,0.0,0.0,0.0,0.0,0.0,0.0,0.0,0.0,0.0,0.0,0.0,0.0,0.0,0.0,0.0,0.0,0.0,0.0,0.0,0.0,0.0,0.0,0.0,0.0,0.0,0.0,0.0,0.0,0.0,0.0,0.0,0.0,0.0,0.0,0.0,0.0,0.0,0.0,0.0,0.0,0.0,0.0,0.0,0.0,0.0,0.0,0.0,0.0,0.0,0.0,0.0,0.0,0.0,0.0,0.0,0.0,0.0,0.0,0.0,0.0,0.0,0.0,0.0,0.0,0.0,0.0,0.0,0.0,0.0,0.0,0.0,0.0,0.0,0.0,0.0,0.0,0.0,0.0,0.0,0.0,0.0,0.0,0.0,0.0,0.0,0.0,0.0,0.0,0.0,0.0,0.0,0.0,0.0,0.0,0.0,0.0,0.0,0.0,0.0,0.0,0.0,0.0,0.0,0.0,0.0,0.0,0.0,0.0,0.0,0.0,0.0,0.0,0.0,0.0,0.0,0.0,0.0,0.0,0.0,0.0,0.0,0.0,0.0,0.0,0.0,0.0,0.0,0.0,0.0,0.0,0.0,0.0,0.0,0.0,0.0,0.0,0.0,0.0,0.0,0.0,0.0,0.0,0.0,0.0,0.0,0.0,0.0,0.0,0.0,0.0,0.0,0.0,0.0,0.0,0.0,0.0,0.0,0.0,0.0,0.0,0.0,0.0,0.0,0.0,0.0,0.0,0.0,0.0,0.0,0.0,0.0,0.0,0.0,0.0,0.0,0.0,0.0,0.0,0.0,0.0,0.0,0.0,0.0,0.0,0.0,0.0,0.0,0.0,0.0,0.0,0.0,0.0,0.0,0.0,0.0,0.0,0.0,0.0,0.0,0.0,0.0,0.0,0.0,0.0,0.0,0.0,0.0,0.0,0.0,0.0,0.0,0.0,0.0,0.0,0.0,0.0,0.0,0.0,0.0,0.0,0.0,0.0,0.0,0.0,0.0,0.0,0.0,0.0,0.0,0.0,0.0,0.0,0.0,0.0,0.0,0.0,0.0,0.0,0.0,0.0,0.0,0.0,0.0,0.0,0.0,0.0,0.0,0.0,0.0,0.0,0.0,0.0,0.0,0.0,0.0,0.0,0.0,0.0,0.0,0.0,0.0,0.0,0.0,0.0,0.0,0.0,0.0,0.0,0.0,0.0,0.0,0.0,0.0,0.0,0.0,0.0,0.0,0.0,0.0,0.0,0.0,0.0,0.0,0.0,0.0,0.0,0.0,0.0,0.0,0.0,0.0,0.0,0.0,0.0,0.0,0.0,0.0,0.0,0.0,0.0,0.0,0.0,0.0,0.0,0.0,0.0,0.0,0.0,0.0,0.0,0.0,0.0,0.0,0.0,0.0,0.0,0.0,0.0,0.0,0.0,0.0,0.0,0.0,0.0,0.0,0.0,0.0,0.0,0.0,0.0,0.0,0.0,0.0,0.0,0.0,0.0,0.0,0.0,0.0,0.0,0.0,0.0,0.0,0.0,0.0,0.0,0.0,0.0,0.0,0.0,0.0,0.0,0.0,0.0,0.0,0.0,0.0,0.0,0.0,0.0,0.0,0.0,0.0,0.0,0.0,0.0,0.0,0.0,0.0,0.0,0.0,0.0,0.0,0.0,0.0,0.0,0.0,0.0,0.0,0.0,0.0,0.0,0.0,0.0,0.0,0.0,0.0,0.0,0.0,0.0,0.0,0.0,0.0,0.0,0.0,0.0,0.0,0.0,0.0,0.0,0.0,0.0,0.0,0.0,0.0,0.0,0.0,0.0,0.0,0.0,0.0,0.0,0.0,0.0,0.0,0.0,0.0,0.0,0.0,0.0,0.0,0.0,0.0,0.0,0.0,0.0,0.0,0.0,0.0,0.0,0.0,0.0,0.0,0.0,0.0,0.0,0.0,0.0,0.0,0.0,0.0,0.0,0.0,0.0,0.0,0.0,0.0,0.0,0.0,0.0,0.0,0.0,0.0,0.0,0.0,0.0,0.0,0.0,0.0,0.0,0.0,0.0,0.0,0.0,0.0,0.0,0.0,0.0,0.0,0.0,0.0,0.0,0.0,0.0,0.0,0.0,0.0,0.0,0.0,0.0,0.0,0.0,0.0,0.0,0.0,0.0,0.0,0.0,0.0,0.0,0.0,0.0,0.0,0.0,0.0,0.0,0.0,0.0,0.0,0.0,0.0,0.0,0.0,0.0,0.0,0.0,0.0,0.0,0.0,0.0,0.0,0.0,0.0,0.0,0.0,0.0,0.0,0.0,0.0,0.0,0.0,0.0,-0.5383,-0.6165,0.0,0.0,0.0,0.0,0.0,0.0,0.0,0.0,0.0,0.0,0.0,0.0,0.0,0.0,0.0,0.0,0.0,0.0,0.0,0.0,0.0,0.0,0.0,0.0,0.0,0.0,0.0,0.0,0.0,0.0,0.0,0.0,0.0,0.0,0.0,0.0,0.0,0.0,0.0,0.0,0.0,0.0,0.0,0.0,0.0,0.0,0.0,0.0,0.0,0.0,0.0,0.0,0.0,0.0,0.0,0.0,0.0,0.0,0.0,0.0,0.0,0.0,0.0,0.0,0.0,0.0,0.0,0.0,0.0,0.0,0.0,0.0,0.0,0.0,0.0,0.0,0.0,0.0,0.0,0.0,0.0,0.0,0.0,0.0,0.0,0.0,0.0,0.0,0.0,0.0,0.0,0.0,0.0,0.0,0.0,0.0,0.0,0.0,0.0,0.0,0.0,0.0,0.0,0.0,0.0,0.0,0.0,0.0,0.0,0.0,0.0,0.0,0.0,0.0,-0.7084,-0.7979,0.0,0.0,0.0,0.0,0.0,0.0,0.0,0.0,0.0,0.0,0.0,0.0,0.0,0.0,0.0,0.0,0.0,0.0,0.0,0.0,0.0,0.0,0.0,0.0,0.0,0.0,0.0,0.0,0.0,0.0,0.0,0.0,0.0,0.0,0.0,0.0,0.0,0.0,0.0,0.0,0.0,0.0,0.0,0.0,0.0,0.0,0.0,0.0,0.0,0.0,0.0,0.0,0.0,0.0,0.0,0.0,0.0,0.0,0.0,0.0,0.0,0.0,0.0,0.0,0.0,0.0,0.0,0.0,0.0,0.0,0.0,0.0,0.0,0.0,0.0,0.0,0.0,0.0,0.0,0.0,0.0,0.0,0.0,0.0,0.0,0.0,0.0,0.0,0.0,0.0,0.0,0.0,0.0,0.0,0.0,0.0,0.0,0.0,0.0,0.0,0.0,0.0,0.0,0.0,0.0,0.0,0.0,0.0,-0.767,-0.8029,-0.818,-0.8808,-0.8697,-0.8063,-0.8876,-0.9903,-1.0854,-0.9829,0.0,0.0,0.0,0.0,0.0,0.0,0.0,0.0,0.0,0.0,0.0,0.0,0.0,0.0,0.0,0.0,0.0,0.0,0.0,0.0,0.0,0.0,0.0,0.0,0.0,0.0,0.0,0.0,0.0,0.0,0.0,0.0,0.0,0.0,0.0,0.0,0.0,0.0,-1.4698,-1.4698,-1.4617,-1.4479,0.0,0.0,0.0,0.0,0.0,0.0,0.0,0.0,0.0,0.0,0.0,0.0,0.0,0.0,0.0,0.0,0.0,0.0,0.0,0.0,0.0,0.0,0.0,0.0,0.0,0.0,0.0,0.0,0.0,0.0,0.0,0.0,0.0,0.0,0.0,0.0,0.0,0.0,0.0,0.0,0.0,0.0,0.0,0.0,-0.8423,-0.8423,0.0,0.0,0.0,0.0,0.0,0.0,0.0,0.0,0.0,0.0,0.0,0.0,0.0,-0.648,-0.648,-0.7182,-0.7865,-0.8416,-0.9169,-0.9791,-1.0391,-1.0501,-1.0442,-1.0391,-1.1107,0.0,-1.1353,-1.1941,0.0,0.0,0.0,0.0,0.0,0.0,0.0,0.0,0.0,0.0,0.0,0.0,0.0,0.0,0.0,0.0,0.0,0.0,0.0,0.0,0.0,0.0,0.0,0.0,0.0,0.0,0.0,0.0,0.0,0.0,0.0,0.0,0.0,0.0,0.0,0.0,-1.5832,-1.57,-1.57,-1.57,-1.57,-1.57,-1.6015,-1.5772,-1.5184,-1.5548,0.0,0.0,0.0,0.0,0.0,0.0,0.0,0.0,0.0,0.0,0.0,0.0,0.0,0.0,0.0,0.0,0.0,0.0,0.0,0.0,0.0,0.0,0.0,0.0,0.0,0.0,0.0,0.0,0.0,0.0,0.0,0.0,0.0,0.0,0.0,0.0,0.0,0.0,0.0,-0.7759,-0.8277,-0.8678,-0.8678,-0.8567,0.0,0.0,0.0,0.0,0.0,0.0,0.0,0.0,0.0,-0.6588,-0.7203,-0.7428,-0.7241,-0.8502,-0.9192,-0.9325,-1.0788,-1.1639,-1.1944,-1.2288,-1.241,-1.2255,-1.2379,-1.2487,-1.2669,-1.2745,-1.3006,-1.3326,0.0,0.0,0.0,0.0,-0.9604,-0.7942,0.0,0.0,0.0,0.0,0.0,0.0,0.0,0.0,0.0,0.0,0.0,0.0,0.0,0.0,0.0,-1.6522,0.0,0.0,0.0,0.0,0.0,0.0,0.0,0.0,0.0,0.0,0.0,0.0,-1.6522,-1.6522,-1.6522,-1.6522,-1.6522,-1.6522,-1.7076,-1.6815,-1.5985,-1.6834,-1.6696,0.0,0.0,0.0,0.0,0.0,0.0,0.0,0.0,0.0,0.0,0.0,0.0,0.0,0.0,0.0,0.0,0.0,0.0,0.0,0.0,0.0,0.0,0.0,0.0,0.0,0.0,0.0,0.0,0.0,0.0,0.0,0.0,0.0,0.0,0.0,0.0,0.0,0.0,-0.7931,-0.8306,-0.8888,-0.9361,-0.9584,0.0,0.0,0.0,0.0,0.0,0.0,-0.7081,-0.7296,-0.751,-0.768,-0.87,-0.9101,-0.8829,-1.0082,-1.074,-1.0632,-1.2154,-1.2966,-1.3175,-1.3638,-1.3761,-1.3564,-1.3263,-1.3471,-1.4003,-1.3569,-1.4258,-1.558,-1.5471,-1.4494,-1.3135,-1.2969,-1.1835,-1.025,0.0,0.0,0.0,0.0,0.0,0.0,0.0,0.0,0.0,0.0,0.0,0.0,0.0,0.0,-1.6522,-1.6522,-1.6951,-1.7271,0.0,0.0,0.0,0.0,0.0,0.0,0.0,0.0,0.0,-1.6522,-1.6522,-1.6522,-1.6522,-1.6522,-1.6522,-1.6522,-1.7076,-1.7271,-1.7216,-1.7205,-1.7179,-1.7136,0.0,0.0,0.0,0.0,0.0,0.0,0.0,0.0,0.0,0.0,0.0,0.0,0.0,0.0,0.0,0.0,0.0,0.0,0.0,0.0,0.0,0.0,0.0,0.0,0.0,0.0,0.0,0.0,0.0,0.0,0.0,0.0,0.0,0.0,0.0,0.0,0.0,0.0,0.0,-0.9614,-1.1044,0.0,0.0,0.0,0.0,-0.9125,-0.8423,-0.8152,-0.8498,-0.9227,-0.9966,-1.0676,-1.1487,-1.1886,-1.187,-1.1942,-1.2329,-1.2914,-1.3023,-1.3411,-1.4009,-1.4062,-1.4072,-1.4072,-1.3795,-1.4233,-1.5167,-1.4795,-1.5313,-1.6446,-1.6362,-1.5728,-1.4824,-1.4519,-1.3527,-1.2292,0.0,0.0,0.0,0.0,0.0,0.0,0.0,0.0,0.0,0.0,0.0,0.0,0.0,-1.6522,-1.6522,-1.6522,-1.6993,-1.7312,-1.7312,0.0,0.0,0.0,0.0,0.0,0.0,0.0,-1.6993,-1.6993,-1.668,-1.6522,-1.6522,-1.6898,-1.7313,-1.7721,-1.858,-1.9224,-1.9599,-1.9137,-1.8955,-1.8929,-1.8947,-1.8014,0.0,0.0,0.0,0.0,0.0,0.0,0.0,0.0,0.0,0.0,0.0,0.0,0.0,0.0,0.0,0.0,0.0,0.0,0.0,0.0,0.0,0.0,0.0,0.0,0.0,0.0,0.0,0.0,0.0,0.0,0.0,0.0,0.0,0.0,0.0,0.0,0.0,-0.9903,-1.1822,0.0,-1.3748,-1.3294,-1.265,-1.1839,-1.1107,-1.0755,-1.0835,-1.111,-1.1399,-1.164,-1.215,-1.2454,-1.2569,-1.3145,-1.3491,-1.3588,-1.4874,-1.5214,-1.4767,-1.5216,-1.5321,-1.5067,-1.4115,-1.4141,-1.4883,-1.5509,-1.6323,-1.7167,-1.8189,-1.7766,-1.6614,-1.7215,-1.6404,-1.4882,0.0,0.0,0.0,0.0,0.0,0.0,0.0,0.0,0.0,0.0,0.0,-1.6522,-1.6522,-1.6522,-1.6552,-1.6752,-1.7271,-1.7747,-1.8167,0.0,0.0,0.0,0.0,0.0,0.0,-1.8123,-1.8231,-1.8231,-1.7906,-1.7692,-1.7705,-1.8109,-1.8649,-1.9263,-1.9995,-2.0909,-2.1831,-2.1411,-2.0959,-2.0552,-2.0941,-2.0148,-1.8781,0.0,0.0,0.0,0.0,0.0,0.0,0.0,0.0,0.0,0.0,0.0,0.0,0.0,0.0,0.0,0.0,0.0,0.0,0.0,0.0,0.0,0.0,0.0,0.0,0.0,0.0,0.0,0.0,0.0,0.0,0.0,0.0,0.0,0.0,-0.8394,-0.9392,-1.0604,-1.2789,-1.4544,-1.5426,-1.5677,-1.5477,-1.4674,-1.3894,-1.3416,-1.3258,-1.3284,-1.3243,-1.3243,-1.374,-1.4052,-1.4112,-1.5018,-1.5267,-1.4784,-1.6425,-1.6838,-1.6119,-1.6263,-1.6433,-1.6436,-1.5156,-1.4916,-1.5527,-1.6686,-1.7484,-1.8166,-1.9146,-1.8865,-1.8054,-1.8721,-1.8122,-1.6763,0.0,0.0,0.0,0.0,0.0,0.0,0.0,0.0,0.0,0.0,-1.6522,-1.6522,-1.6522,-1.6522,-1.671,-1.7229,-1.7787,-1.8607,-1.9843,-1.932,0.0,0.0,0.0,0.0,-1.9197,-1.9837,-2.0158,-2.0158,-2.0158,-2.0144,-2.0114,-2.0185,-2.052,-2.1181,-2.1195,-2.2204,-2.3891,-2.3876,-2.3098,-2.1944,-2.3016,-2.2813,-2.1974,0.0,0.0,0.0,0.0,0.0,0.0,0.0,0.0,0.0,0.0,0.0,0.0,0.0,0.0,0.0,0.0,0.0,0.0,0.0,0.0,0.0,0.0,0.0,0.0,0.0,0.0,0.0,0.0,0.0,0.0,0.0,0.0,0.0,-0.8822,-0.9154,-1.0161,-1.1757,-1.4126,-1.591,-1.6715,-1.8073,-1.8507,-1.7539,-1.6724,-1.6082,-1.5733,-1.5634,-1.5615,-1.5551,-1.6303,-1.6777,-1.6787,-1.7574,-1.7574,-1.6797,-1.7636,-1.8048,-1.8038,-1.7136,-1.7252,-1.7945,-1.6809,-1.6628,-1.7207,-1.8246,-1.8976,-1.938,-1.9149,-1.9035,-1.9081,-1.9094,-1.8673,-1.7918,0.0,0.0,0.0,0.0,0.0,0.0,0.0,0.0,0.0,0.0,-1.6993,-1.6637,-1.7034,-1.671,-1.671,-1.7229,-1.7787,-1.8607,-1.9843,0.0,0.0,0.0,0.0,0.0,-2.1155,-2.1327,-2.1413,-2.1413,-2.1006,-2.0829,-2.0843,-2.1736,-2.2475,-2.3094,-2.3507,-2.4505,-2.5812,-2.529,-2.5146,-2.5181,-2.4565,-2.3533,-2.253,0.0,0.0,0.0,0.0,0.0,0.0,0.0,0.0,0.0,0.0,0.0,0.0,0.0,0.0,0.0,0.0,0.0,0.0,0.0,0.0,0.0,0.0,0.0,0.0,0.0,0.0,0.0,0.0,0.0,0.0,0.0,-1.2251,-1.1227,-0.9649,-1.0284,-1.137,-1.2811,-1.4544,-1.644,-1.867,-1.8969,-1.9218,-1.9564,-1.9239,-1.8642,-1.7849,-1.8196,-1.8071,-1.7369,-1.7513,-1.7803,-1.8037,-1.831,-1.831,-1.8115,-1.89,-1.9246,-1.9061,-1.8671,-1.8575,-1.8718,-1.7448,-1.7466,-1.8489,-1.9465,-1.9932,-2.0103,-1.9927,-2.0023,-2.0283,-2.069,-1.9797,-1.8328,0.0,0.0,0.0,0.0,0.0,0.0,0.0,0.0,0.0,0.0,-1.7544,-1.7312,-1.7585,-1.7353,-1.7394,-1.7907,-1.85,-1.9259,-2.0187,0.0,0.0,0.0,0.0,-2.3718,-2.304,-2.3289,-2.3466,-2.3466,-2.3136,-2.2999,-2.3014,-2.4009,-2.4776,-2.5423,-2.6021,-2.6899,-2.7814,-2.744,-2.75,-2.7769,-2.7006,-2.5749,-2.4402,-2.4882,-2.4863,-2.4511,-2.394,-2.3872,-2.3806,-2.2305,0.0,0.0,0.0,0.0,0.0,0.0,0.0,0.0,0.0,0.0,0.0,0.0,0.0,0.0,0.0,0.0,0.0,0.0,0.0,0.0,0.0,0.0,0.0,0.0,-1.4333,-1.3835,-1.2531,-1.2255,-1.2969,-1.5037,-1.6058,-1.7664,-2.0379,-2.0637,-2.1073,-2.2177,-2.1827,-2.1081,-2.0052,-2.0066,-1.9637,-1.8799,-1.8633,-1.875,-1.917,-1.9332,-1.9455,-1.9525,-1.9937,-2.0471,-2.1152,-1.9808,-1.9567,-2.0182,-1.8496,-1.8213,-1.911,-1.9274,-1.9913,-2.0714,0.0,0.0,0.0,0.0,-2.0528,-1.9183,0.0,0.0,0.0,0.0,0.0,0.0,0.0,0.0,0.0,0.0,0.0,-1.8145,-1.8185,-1.8145,-1.8341,-1.8855,-1.9497,-2.0225,0.0,0.0,0.0,-2.2996,-2.4193,-2.4852,-2.4852,-2.542,-2.5719,-2.5719,-2.5719,-2.5749,-2.5839,-2.6512,-2.7171,-2.7829,-2.8442,-2.9071,-2.9684,-2.9609,-2.9624,-2.9684,-2.9609,-2.8427,-2.6763,-2.73,-2.7522,-2.7467,-2.7432,-2.715,-2.6677,-2.5843,0.0,0.0,0.0,0.0,0.0,0.0,0.0,0.0,0.0,0.0,0.0,0.0,0.0,0.0,0.0,0.0,0.0,0.0,0.0,0.0,0.0,0.0,0.0,0.0,-1.7081,-1.7254,-1.6576,-1.5182,-1.5125,-1.7584,-1.7882,-1.8998,-2.1729,-2.2258,-2.3167,-2.4793,-2.4074,-2.3194,-2.2204,-2.1512,0.0,0.0,0.0,-1.9687,-2.0059,-2.047,-2.0679,-2.077,-2.0679,-2.1572,-2.3264,-2.0616,-2.0461,-2.2082,-1.9875,-1.9314,-1.9745,-1.8899,-1.9681,-2.1502,-2.1651,-2.1594,-2.1473,-2.1713,-2.1104,-2.0133,0.0,0.0,0.0,0.0,0.0,0.0,0.0,0.0,0.0,-1.9332,-1.865,-1.8263,-1.8688,-1.838,-1.8341,-1.8855,-1.9497,-2.0779,0.0,0.0,0.0,0.0,-2.5794,-2.6213,-2.6213,-2.6333,-2.6408,-2.6408,-2.6408,-2.6677,-2.72,-2.7889,-2.8562,-2.9205,-2.9325,-2.9744,-3.0298,-2.9789,-2.9864,-3.0283,-2.9789,-2.8697,-2.75,-2.8527,-2.8252,-2.7348,-2.7623,-2.8055,-2.8327,-2.7164,-2.7066,-2.7288,-2.6725,0.0,0.0,0.0,0.0,0.0,0.0,0.0,0.0,0.0,0.0,0.0,0.0,0.0,0.0,0.0,0.0,0.0,0.0,0.0,0.0,-1.8775,-1.9183,-1.9507,-1.9216,-1.9614,-1.9499,-1.8073,-1.7926,-1.8942,-2.1738,-2.1407,-2.224,-2.5199,-2.4565,-2.3828,-2.3212,-2.3394,-2.2766,-2.0977,-2.0898,-2.0898,-2.0977,-2.1046,-2.0898,-2.0619,-2.0908,0.0,-2.2284,-2.0979,-2.1688,-2.3864,-2.1959,-2.1936,-2.3171,-2.2194,-2.2438,-2.3378,-2.2992,-2.2188,-2.1463,-2.2985,-2.1997,-2.0038,0.0,0.0,0.0,0.0,0.0,0.0,0.0,0.0,0.0,0.0,-1.9244,-1.9006,-1.9281,-1.9043,-1.9006,-1.9281,-1.9912,0.0,0.0,-2.3926,0.0,0.0,-2.6422,-2.6752,-2.7066,-2.7081,-2.7081,-2.7081,-2.7425,-2.7769,-2.8113,-2.9101,-2.9729,-3.0058,-3.0402,-3.0911,-3.1495,-3.118,-3.1225,-3.148,-3.1165,-3.0447,-2.9552,-2.9459,-2.8951,-2.8471,-2.8885,-2.9299,-2.9605,-2.9276,-2.942,-2.9749,-2.9484,-2.8979,-2.8291,0.0,0.0,0.0,0.0,0.0,0.0,0.0,0.0,0.0,0.0,0.0,0.0,0.0,0.0,-2.097,-2.0535,0.0,-2.2128,-2.1567,-2.2347,-2.2816,-2.2189,-2.2875,-2.2682,-2.0615,-2.0226,-2.1207,-2.4039,-2.2706,-2.3128,-2.6594,-2.5373,-2.4664,-2.5055,-2.4793,-2.4048,-2.2727,-2.2433,-2.219,-2.1865,-2.22,-2.2508,-2.2819,-2.3061,-2.3886,-2.498,-2.3015,-2.295,-2.4432,-2.3534,-2.358,-2.4288,-2.3673,-2.3292,-2.3161,-2.3753,-2.3548,-2.3031,-2.3511,-2.2492,-2.0928,0.0,0.0,0.0,0.0,0.0,0.0,0.0,0.0,0.0,0.0,-1.9603,-1.953,-1.953,-1.9442,-1.9546,0.0,0.0,0.0,0.0,0.0,0.0,-2.6901,-2.6976,-2.7171,-2.761,-2.7625,-2.7625,-2.7625,-2.8263,-2.8667,-2.8816,-3.0103,-3.0776,-3.0926,-3.1614,-3.2213,-3.2706,-3.2706,-3.2706,-3.2706,-3.2706,-3.2392,-3.1777,-3.0548,-3.0001,-2.9912,-3.038,-3.0451,-3.0396,-3.1025,-3.1355,-3.147,-3.1621,-3.1457,-3.0933,-2.9492,-2.9054,0.0,0.0,0.0,0.0,0.0,0.0,0.0,0.0,-2.2416,-2.2383,-2.2347,-2.3182,-2.3697,-2.3147,-2.4133,-2.4845,-2.42,-2.5345,-2.5822,-2.4627,-2.5298,-2.5315,-2.3673,-2.3056,-2.3807,-2.6356,-2.4547,-2.4601,-2.7989,-2.6358,-2.5647,-2.6745,-2.575,-2.4922,-2.4506,-2.3911,-2.3504,-2.3157,-2.3667,-2.4295,-2.5004,-2.5261,-2.6065,-2.7299,-2.5044,-2.4221,-2.4567,-2.4707,-2.473,-2.4718,-2.4558,-2.3822,-2.3038,-2.4644,-2.5297,-2.514,-2.4049,-2.2811,-2.1626,0.0,0.0,0.0,0.0,0.0,0.0,0.0,0.0,0.0,0.0,0.0,0.0,0.0,0.0,0.0,0.0,0.0,0.0,0.0,0.0,0.0,-2.8338,-2.8382,-2.8128,-2.7625,-2.7625,-2.7625,-2.7625,-2.8263,-2.8891,-2.9505,-3.0806,-3.1734,-3.2317,-3.2976,-3.332,-3.338,-3.338,-3.338,-3.338,-3.338,-3.3335,-3.3185,-3.2436,-3.1738,-3.1192,-3.1275,-3.0909,-3.0477,-3.1149,-3.1824,-3.247,-3.3053,-3.3601,-3.3743,-3.2268,-3.1058,-2.9734,-2.7592,-2.5958,-2.5364,-2.7092,-2.5955,-2.5284,0.0,-2.8207,-2.6663,-2.6456,-2.692,-2.6895,-2.5494,-2.6227,-2.6655,-2.5731,-2.6871,-2.7163,-2.539,-2.7071,-2.7702,-2.5735,-2.5139,-2.5344,-2.6502,-2.5566,-2.5981,-2.8637,-2.7342,-2.6728,-2.737,-2.6199,-2.5585,-2.5652,-2.4637,-2.4545,-2.5411,-2.5516,-2.543,-2.5171,-2.5532,-2.5351,-2.4721,-2.5205,-2.5191,-2.4957,-2.532,-2.5448,-2.5448,-2.5478,-2.5348,-2.5331,-2.6534,-2.7005,-2.6801,-2.5205,-2.2981,-2.0861,0.0,0.0,0.0,0.0,0.0,0.0,0.0,0.0,0.0,0.0,0.0,0.0,0.0,0.0,0.0,0.0,0.0,0.0,-2.5191,0.0,-2.6297,-2.7612,-2.7784,-2.7871,-2.7973,-2.8129,-2.8353,-2.8742,-2.9385,-3.0058,-3.0746,-3.1674,-3.2452,-3.3095,-3.3365,-3.3709,-3.4068,-3.4068,-3.4068,-3.4068,-3.4068,-3.4068,-3.3993,-3.3335,-3.29,-3.2479,-3.1311,-3.0691,0.0,0.0,-3.1903,-3.2562,-3.2902,-3.3175,-3.3179,-3.2097,-3.1742,-3.1467,-3.0642,-2.984,-2.9404,-3.0002,-3.0003,-3.0075,-3.1144,-3.047,-2.9648,-2.9566,-2.9465,-2.9188,-2.8534,-2.8622,-2.8475,-2.773,-2.8475,-2.8648,-2.7533,-2.8519,-2.9108,-2.8216,-2.736,-2.705,-2.743,-2.6576,-2.6918,-2.9249,-2.6997,-2.6485,-2.8684,-2.7139,-2.6483,-2.7127,-2.6714,-2.6391,-2.6251,-2.6806,-2.7023,-2.6892,-2.7691,-2.7897,-2.7529,-2.7388,-2.7311,-2.7123,-2.6437,-2.6502,-2.703,-2.6703,-2.6766,-2.7105,-2.757,-2.7569,-2.7073,-2.5477,-2.3971,-2.2677,0.0,0.0,0.0,0.0,0.0,0.0,0.0,0.0,0.0,0.0,0.0,0.0,0.0,0.0,0.0,0.0,0.0,0.0,0.0,-2.4611,-2.5439,-2.6978,-2.7214,0.0,-2.8254,-2.8638,-2.9124,-2.9834,-3.0657,-3.1315,-3.1765,-3.2662,-3.3305,-3.3769,-3.3963,-3.4307,-3.4756,-3.4756,-3.4756,-3.4756,-3.4756,-3.4756,-3.4681,-3.4023,-3.3649,-3.3276,-3.1637,-3.0792,0.0,0.0,-3.1536,-3.1972,-3.2006,-3.2155,-3.2192,-3.158,-3.174,-3.2016,-3.2033,-3.1987,-3.2002,-3.2361,-3.3133,-3.3754,-3.3337,-3.3156,-3.2981,-3.2669,-3.226,-3.1852,-3.1648,-3.1055,-3.0496,-2.991,-2.996,-2.9817,-2.9252,-2.9528,-2.9702,-2.9365,-2.8597,-2.8096,-2.8096,-2.7128,-2.7383,-2.9624,-2.7279,-2.6953,-2.9624,-2.7959,-2.7452,-2.8518,-2.8255,-2.7855,-2.7383,-2.8199,-2.8597,-2.8597,-2.9378,-2.9819,-2.9782,-2.8838,-2.8499,-2.8604,-2.756,-2.7488,-2.8072,-2.767,-2.7745,-2.8122,-2.8273,-2.8101,-2.7609,-2.6352,-2.5161,-2.405,0.0,0.0,0.0,0.0,0.0,0.0,0.0,0.0,0.0,0.0,0.0,0.0,0.0,0.0,0.0,0.0,0.0,0.0,0.0,-2.5106,-2.5994,-2.7138,-2.7179,-2.7533,-2.8268,-2.8973,-2.9696,-3.0477,-3.1809,-3.2467,-3.2512,-3.3814,-3.4427,-3.4472,-3.5145,-3.5459,-3.5474,-3.5474,-3.5474,-3.5474,-3.5474,-3.5474,-3.54,-3.4696,-3.4053,-3.341,-3.2677,0.0,0.0,0.0,-3.0571,-3.0643,-3.0643,-3.1094,0.0,-3.1502,-3.1047,-3.0572,-3.0552,-3.0586,-3.1185,-3.3902,-3.4659,-3.5127,-3.7033,-3.7404,-3.7079,-3.6035,-3.5855,-3.5525,-3.4659,-3.363,-3.2711,-3.2206,-3.1241,-3.0407,-2.9842,-2.9779,-2.9365,-2.8255,-2.8096,-2.8096,-2.8096,-2.7128,-2.7383,-2.9624,-2.8688,-2.8518,-2.9714,-2.8688,-2.8597,-2.9702,-2.8688,-2.8609,-2.9714,-2.9714,-2.9792,-2.9792,-2.9792,-2.9782,-2.9744,-2.8287,-2.8011,-2.8727,-2.8616,-2.8455,-2.8109,-2.8084,-2.8097,-2.816,-2.8699,-2.8838,-2.8749,-2.8198,-2.6415,-2.4156,0.0,0.0,0.0,0.0,0.0,0.0,0.0,0.0,0.0,0.0,0.0,0.0,0.0,0.0,0.0,0.0,0.0,0.0,0.0,-2.351,-2.4034,-2.5519,-2.6056,-2.6952,-2.8208,-2.9383,-3.0586,-3.1839,-3.2721,-3.338,-3.3829,-3.4262,-3.4726,-3.5175,-3.54,-3.5744,-3.6133,-3.5684,-3.5998,-3.6701,-3.5848,-3.5774,-3.6028,-3.4906,-3.3799,-3.2766,0.0,0.0,0.0,0.0,0.0,0.0,-2.8684,-2.8641,-2.8732,-2.9099,-3.0048,-3.096,-3.0967,-3.2065,-3.3638,-3.549,-3.629,-3.7033,-3.8668,-3.8622,-3.8123,-3.781,-3.6478,-3.5053,-3.4116,-3.2766,-3.1701,-3.1241,-3.0833,-3.0557,-3.0369,-3.0331,-3.0036,-2.9324,-2.8597,-2.8426,-2.9118,-2.8199,-2.7855,-2.8609,-2.8347,-2.8255,-2.8676,-2.8347,-2.8766,-3.024,-2.963,-2.9642,-3.0498,-3.0083,-2.9792,-2.9792,-2.9792,-2.9806,-2.977,-2.9302,-2.9214,-2.9429,-2.8938,-2.8888,-2.9202,-2.8812,-2.8888,-2.9252,-2.9428,-2.9503,-2.9451,-2.9291,-2.816,-2.6645,0.0,0.0,0.0,0.0,0.0,0.0,0.0,0.0,0.0,0.0,0.0,0.0,0.0,0.0,0.0,0.0,0.0,0.0,0.0,0.0,-2.2472,-2.4142,-2.4666,-2.5853,-2.782,-2.8993,-3.0305,-3.1794,-3.2361,-3.3193,-3.4128,-3.4085,-3.456,-3.5504,-3.5504,-3.5744,-3.6103,-3.5684,-3.5833,-3.6282,-3.5474,-3.525,-3.5295,-3.4188,-3.3245,0.0,0.0,0.0,0.0,0.0,0.0,-2.7598,-2.7158,-2.7211,-2.7533,-2.7844,-2.9064,-3.0507,-3.1325,-3.2762,-3.446,-3.6429,-3.7435,-3.8306,-3.9754,-3.9464,-3.8928,-3.8923,-3.7455,-3.5865,-3.4667,-3.3285,-3.2,-3.1036,-3.0529,-3.0319,-3.0319,-3.0143,-3.0105,-3.0331,-2.9168,-2.8947,-3.0253,-2.9338,-2.8674,-2.8712,-2.8113,-2.8138,-2.8967,-2.9137,-2.9726,-3.0648,-3.0344,-3.0244,-3.049,-3.0055,-2.9792,-2.9792,-2.9792,-2.9792,-2.9792,-2.9792,-2.9792,-2.9767,-2.9288,-2.9338,-2.9767,-2.939,-2.9453,-2.9792,-2.9792,-2.9792,-2.9792,-2.9792,-2.9365,-2.8469,0.0,0.0,0.0,0.0,0.0,0.0,0.0,0.0,0.0,0.0,0.0,0.0,0.0,0.0,0.0,0.0,0.0,0.0,0.0,0.0,0.0,-2.2965,-2.3065,-2.4331,-2.7065,-2.7773,-2.8876,-3.038,-3.0891,-3.1853,-3.3317,-3.3121,-3.3828,-3.5255,-3.5255,-3.5299,-3.5359,-3.5299,-3.4942,-3.4435,-3.4394,-3.3943,-3.3332,-3.2646,0.0,0.0,0.0,0.0,0.0,0.0,-2.7004,-2.6392,-2.626,-2.701,-2.794,-2.7816,-2.8329,-2.9389,-3.1496,-3.2614,-3.3885,-3.6804,-3.8034,-3.8882,-4.0223,-4.0023,-3.9542,-3.9301,-3.8811,-3.7827,-3.6114,-3.5001,-3.3663,-3.1641,-3.0483,-2.9854,-2.9917,-2.9415,-2.9628,-3.1173,-2.9967,-2.9612,-3.1217,-3.0431,-2.9794,-2.9877,-2.841,-2.8432,-3.0486,-3.1122,-3.1267,-3.0991,-3.0778,-3.0411,-2.9905,-2.9849,-2.9804,-2.9792,-2.9792,-2.9792,-2.9792,-2.9792,-2.9792,-2.9792,-2.9792,-2.9792,-2.9792,-2.9792,-2.9792,-2.9792,-2.9792,-2.9792,-2.9792,-2.9792,-2.9792,-2.9624,0.0,0.0,0.0,0.0,0.0,0.0,0.0,0.0,0.0,0.0,0.0,0.0,0.0,0.0,0.0,0.0,0.0,0.0,0.0,0.0,0.0,0.0,0.0,0.0,0.0,0.0,0.0,0.0,0.0,-3.0178,-3.0991,-3.0876,-3.1349,-3.2156,-3.2156,-3.2613,-3.3449,-3.2567,-3.288,-3.3888,0.0,-3.2085,-3.2188,0.0,0.0,0.0,0.0,0.0,0.0,0.0,-2.6876,-2.6595,-2.644,-2.694,-2.7528,-2.794,-2.9222,-3.0695,-3.129,-3.2708,-3.4447,-3.6488,-3.711,-3.7691,-3.9313,-3.9546,-3.9107,-3.7886,-3.76,-3.6711,-3.3716,-3.3088,-3.2671,-3.1549,-3.0792,-3.0683,-3.1486,-3.111,-3.0771,-3.0809,-3.0779,-3.0735,-3.0834,-3.0236,-3.0167,-3.0916,-3.0597,-3.0248,-2.9999,-3.0889,-3.1562,-3.1855,-3.1461,-3.1254,-3.1415,-3.0338,-2.9795,-2.9792,-2.9792,-2.9792,-2.9792,-2.9792,-2.9792,-2.9792,-2.9792,-2.9792,-2.9792,-2.9792,-2.9792,-2.9792,-2.9792,-2.9792,-2.9792,-2.9792,-2.9792,-2.9792,0.0,0.0,0.0,0.0,0.0,0.0,0.0,0.0,0.0,0.0,0.0,0.0,0.0,0.0,0.0,0.0,0.0,0.0,0.0,0.0,0.0,0.0,0.0,0.0,0.0,0.0,0.0,0.0,0.0,0.0,0.0,-2.8724,-2.9302,-3.0285,-3.0484,-3.0985,-3.1624,0.0,0.0,0.0,0.0,0.0,0.0,0.0,0.0,0.0,0.0,0.0,0.0,0.0,0.0,-2.6642,-2.6766,-2.7205,-2.7808,-2.8612,-2.963,-3.0799,-3.1648,-3.2978,-3.444,-3.5779,-3.6363,-3.6812,-3.7818,-3.7852,-3.7327,-3.6148,-3.5798,-3.4925,-3.2225,-3.1911,-3.1676,-3.0808,-3.0444,-3.0633,-3.17,-3.1386,-3.121,-3.165,-3.1725,-3.1738,-3.17,-3.1437,-3.1514,-3.2127,-3.1459,-3.0977,-3.0893,-3.1642,-3.2265,-3.2591,-3.2051,-3.1675,-3.1524,-3.035,-2.9782,-2.9792,-2.9786,-2.9774,-2.9792,-2.9792,-2.9792,-2.9792,-2.9792,-2.9792,-2.9792,-2.9792,-2.9792,-2.9792,-2.9792,-2.9792,-2.9792,-2.9792,-2.9792,-2.9792,0.0,0.0,0.0,0.0,0.0,0.0,0.0,0.0,0.0,0.0,0.0,0.0,0.0,0.0,0.0,0.0,0.0,0.0,0.0,0.0,0.0,0.0,0.0,0.0,0.0,0.0,0.0,0.0,0.0,0.0,0.0,0.0,0.0,0.0,0.0,0.0,0.0,0.0,0.0,0.0,0.0,0.0,0.0,0.0,0.0,0.0,0.0,0.0,0.0,0.0,-2.6798,-2.6892,-2.7444,-2.7996,-2.8649,-2.9691,-3.0055,-3.0464,-3.2227,-3.321,-3.3966,-3.4998,-3.5535,-3.5929,-3.6207,-3.5737,-3.5142,-3.4458,-3.3891,-3.3093,-3.136,-3.1053,-3.0843,-3.0022,-2.9779,-3.0105,-3.1323,-3.1047,-3.1273,-3.278,-3.2591,-3.2491,-3.2918,-3.3031,-3.3081,-3.3081,-3.1724,-3.1357,-3.2243,-3.2805,-3.3081,-3.3081,-3.2591,-3.1984,-3.1238,-3.058,-3.0152,-3.0033,-2.9866,-2.9853,-3.002,-2.9842,-2.9842,-2.9917,-2.9829,-2.9792,-2.9792,-2.9792,-2.9792,-2.9792,-2.9792,-2.9792,-2.9792,-2.9792,-2.9792,-2.9792,0.0,0.0,0.0,0.0,0.0,0.0,0.0,0.0,0.0,0.0,0.0,0.0,0.0,0.0,0.0,0.0,0.0,0.0,0.0,0.0,0.0,0.0,0.0,0.0,0.0,0.0,0.0,0.0,0.0,0.0,0.0,0.0,0.0,0.0,0.0,0.0,0.0,0.0,0.0,0.0,0.0,0.0,0.0,0.0,0.0,0.0,0.0,0.0,0.0,0.0,-2.8122,-2.8599,-2.9176,-2.9729,-3.0306,-3.0934,-3.1436,-3.1825,-3.2167,-3.2718,-3.3487,-3.4518,-3.4526,-3.4459,-3.5338,-3.5114,-3.4355,-3.2939,-3.3159,-3.2886,-3.0458,-3.0332,-3.0542,-3.0464,-2.9691,-2.9779,-3.1788,-3.1599,-3.1524,-3.2277,-3.2692,-3.278,-3.2403,-3.2792,-3.3081,-3.3081,-3.2809,-3.2746,-3.2918,-3.3018,-3.3081,-3.3081,-3.298,-3.2887,-3.2695,-3.2599,-3.2079,-3.1144,-3.0194,-3.0286,-3.1118,-3.0237,-3.0159,-3.0703,-3.0096,-2.9792,-2.9792,-2.9792,-2.9792,-2.9792,-2.9792,-2.9792,-2.9792,-2.9792,-2.9792,-2.9934,0.0,0.0,0.0,0.0,0.0,0.0,0.0,0.0,0.0,0.0,-2.4414,-2.3921,0.0,0.0,0.0,0.0,0.0,0.0,0.0,0.0,0.0,0.0,0.0,0.0,0.0,-2.1399,-2.0916,-2.0614,0.0,-2.1606,-2.1857,-2.2435,-2.3,-2.354,-2.413,0.0,0.0,0.0,0.0,0.0,0.0,0.0,0.0,0.0,0.0,0.0,0.0,0.0,0.0,0.0,-2.8235,-2.9038,-2.9616,-2.998,-3.0344,-3.1148,-3.1574,-3.1913,-3.2503,-3.2867,-3.3164,-3.3328,-3.3199,-3.3002,-3.2896,-3.2697,-3.2187,-3.1177,-3.1339,-3.1143,-2.958,-2.9478,-2.9704,-3.0121,-2.9478,-2.9691,-3.1901,-3.1738,-3.1712,-3.2566,-3.2905,-3.2968,-3.2692,-3.2918,-3.3081,-3.3081,-3.3081,-3.3081,-3.3081,-3.3081,-3.3081,-3.3081,-3.3081,-3.3089,-3.3097,-3.3094,-3.2407,-3.1153,-3.0214,-3.0066,-3.0583,-3.0043,-2.9955,-3.031,-2.993,-2.9792,-2.9792,-2.9792,-2.9792,-2.9792,-2.9792,-2.9792,-2.9792,-2.9792,-2.9792,-2.9856,0.0,0.0,0.0,0.0,0.0,0.0,0.0,-2.3879,-2.4146,-2.5694,-2.5001,-2.4225,-2.3837,-2.3887,0.0,0.0,0.0,0.0,0.0,0.0,0.0,0.0,0.0,0.0,0.0,0.0,0.0,-2.0181,-2.1046,0.0,0.0,0.0,0.0,0.0,-2.3427,-2.3816,-2.3841,0.0,0.0,0.0,0.0,-2.5774,0.0,0.0,0.0,0.0,0.0,0.0,0.0,0.0,-2.7858,-2.8674,-2.9252,-2.9679,-3.0156,-3.111,-3.1474,-3.1788,-3.2805,-3.3081,-3.2968,-3.2516,-3.2215,-3.1813,-3.0972,-3.0754,-3.0529,-2.9957,-2.9934,-2.9821,-2.9026,-2.8925,-2.9076,-2.9528,-2.9227,-2.9654,-3.1738,-3.1763,-3.1938,-3.2955,-3.3181,-3.3206,-3.3081,-3.3081,-3.3081,-3.3081,-3.3081,-3.3081,-3.3081,-3.3081,-3.3081,-3.3081,-3.3081,-3.3126,-3.3115,-3.3114,-3.2431,-3.1153,-3.0721,-3.0417,-3.0282,-3.0127,-3.0199,-3.0405,-3.0176,-3.0075,-3.0075,-3.0075,-3.0011,-2.9792,-2.9792,-2.9792,-2.9792,-2.9792,-2.9934,-3.0139,0.0,0.0,0.0,0.0,0.0,0.0,0.0,-2.3638,-2.3809,-2.4467,-2.4461,-2.4389,-2.4348,-2.4879,0.0,0.0,0.0,0.0,0.0,0.0,0.0,0.0,0.0,0.0,0.0,0.0,0.0,-2.1433,-2.1495,0.0,0.0,0.0,0.0,0.0,0.0,-2.3153,-2.3165,-2.3215,0.0,0.0,0.0,0.0,0.0,0.0,0.0,0.0,0.0,0.0,0.0,0.0,0.0,-2.7532,-2.8084,-2.9315,-3.0658,-3.1223,-3.1738,-3.2277,-3.2905,-3.3081,-3.3068,-3.3006,-3.2227,-3.1436,-3.1336,-3.1202,-3.0898,-3.0011,-3.0482,-3.0651,-2.9176,-2.8925,0.0,0.0,0.0,-2.9515,-3.1223,-3.1851,-3.2365,-3.3006,-3.352,-3.3633,-3.3131,-3.3081,-3.3081,-3.3081,-3.3081,-3.3081,-3.3081,-3.3081,-3.3081,-3.3081,-3.3081,-3.3056,-3.3116,-3.3056,-3.2754,-3.2127,-3.2579,-3.2528,-3.1918,-3.1153,-3.1391,-3.2463,-3.1491,-3.1031,-3.1031,-3.1031,-3.0558,-2.9792,-2.9792,-2.9792,-2.9792,-2.9792,-3.0343,-3.118,0.0,0.0,0.0,0.0,0.0,0.0,0.0,-2.3794,-2.4058,-2.5359,-2.4883,-2.4708,-2.5456,-2.58,-2.561,0.0,0.0,0.0,0.0,0.0,0.0,0.0,0.0,0.0,0.0,0.0,-2.2251,-2.2251,-2.2181,0.0,0.0,0.0,0.0,0.0,0.0,-2.3078,-2.3078,-2.3078,0.0,0.0,0.0,0.0,0.0,0.0,0.0,0.0,0.0,0.0,-2.7231,-2.6904,0.0,0.0,-2.7155,-2.8034,0.0,0.0,-3.0821,-3.1436,-3.2315,-3.2805,-3.2993,-3.2641,-3.1738,-3.0922,-3.0922,-3.0341,-2.9782,-2.9781,-3.0075,-3.0024,-2.9101,-2.8925,-2.8925,0.0,-2.8649,-2.9013,-3.0683,-3.0821,-3.1198,-3.2416,-3.2754,-3.2943,-3.3068,-3.3081,-3.3081,-3.3081,-3.3081,-3.3081,-3.3081,-3.3081,-3.3081,-3.3081,-3.3081,-3.3081,-3.3081,-3.3081,-3.2968,-3.2729,-3.2647,-3.2374,-3.2043,-3.1701,-3.1837,-3.2341,-3.2105,-3.2033,-3.2033,-3.2033,-3.1829,-3.1476,-3.1476,-3.1476,-3.1476,-3.1476,-3.1683,-3.2105,0.0,0.0,0.0,0.0,0.0,0.0,-2.4116,-2.3837,-2.4131,-2.5535,-2.497,-2.4817,-2.5932,-2.6264,-2.6061,-2.5272,0.0,0.0,0.0,0.0,0.0,0.0,0.0,0.0,0.0,0.0,-2.3308,-2.3539,-2.3482,-2.3312,0.0,0.0,-2.2781,-2.2573,0.0,0.0,0.0,0.0,0.0,0.0,0.0,0.0,0.0,0.0,0.0,0.0,0.0,0.0,0.0,0.0,0.0,0.0,0.0,0.0,0.0,0.0,-2.9559,-3.049,-3.1133,-3.1959,-3.2478,-3.2064,-3.1173,-3.0369,-3.0369,-2.9846,-2.9401,-2.9529,-2.9884,-2.991,-2.8887,-2.8963,-2.9076,0.0,-2.8637,-2.9076,-3.0419,-3.0419,-3.0683,-3.1838,-3.2114,-3.2303,-3.2554,-3.2729,-3.2893,-3.3068,-3.3081,-3.3081,-3.3081,-3.3081,-3.3081,-3.3081,-3.3081,-3.3081,-3.3081,-3.3081,-3.3081,-3.3068,-3.2667,-3.2453,-3.2294,-3.2447,-3.2601,-3.272,-3.3132,-3.3199,-3.3031,-3.3031,-3.289,-3.2593,-3.2593,-3.2593,-3.2593,-3.2593,-3.282,-3.3031,0.0,0.0,0.0,0.0,0.0,0.0,0.0,-2.3595,-2.3794,-2.4364,-2.4389,-2.4668,-2.5339,-2.6019,-2.6428,-2.6561,0.0,0.0,0.0,0.0,0.0,0.0,0.0,0.0,0.0,0.0,-2.4819,-2.5502,-2.5392,-2.4993,-2.4266,-2.4279,-2.3872,-2.3065,0.0,0.0,0.0,0.0,0.0,0.0,0.0,0.0,0.0,0.0,0.0,0.0,0.0,0.0,0.0,0.0,0.0,0.0,0.0,0.0,0.0,0.0,-2.8105,-2.9749,-2.9274,-3.0229,-3.1411,-3.1399,-3.0595,-2.9804,-2.9804,-3.0083,-3.0072,-2.9076,-3.0144,-3.0542,-2.8518,-2.9026,-2.9415,-2.8298,-2.9051,-2.9967,-3.0532,-3.1047,-3.1386,-3.1399,-3.1888,-3.2001,-3.1461,-3.1901,-3.2466,-3.3031,-3.3081,-3.3081,-3.3081,-3.3081,-3.3081,-3.3081,-3.3081,-3.3081,-3.3081,-3.3081,-3.3081,-3.3081,-3.3068,-3.3068,-3.3129,-3.3554,-3.3976,-3.4327,-3.4797,-3.4603,-3.4027,-3.4027,-3.3449,-3.2593,-3.2593,-3.2593,-3.2593,-3.2593,-3.3171,-3.4027,0.0,0.0,0.0,0.0,0.0,0.0,0.0,-2.3595,-2.3681,-2.3837,-2.3837,-2.3912,-2.4139,-2.5183,-2.5861,-2.5899,0.0,0.0,0.0,0.0,0.0,0.0,0.0,0.0,0.0,0.0,0.0,-2.6263,-2.6179,-2.6014,-2.5783,-2.5287,-2.4681,-2.3943,-2.3943,-2.359,0.0,0.0,0.0,0.0,0.0,0.0,-2.6533,0.0,0.0,0.0,0.0,0.0,0.0,0.0,0.0,0.0,0.0,0.0,0.0,0.0,0.0,-2.8525,-2.8096,-2.9126,-3.0124,-2.9438,-2.8966,-2.8837,-2.9616,-2.9277,-2.8944,-2.9428,-2.9872,-2.991,-2.8875,-2.9277,-2.9553,-2.8787,-2.9302,-2.9854,-3.003,-3.052,-3.0997,-3.1348,-3.2227,-3.2729,-3.2566,-3.2704,-3.288,-3.3068,-3.3081,-3.3081,-3.3081,-3.3081,-3.3081,-3.3081,-3.3081,-3.3081,-3.3081,-3.3081,-3.3081,-3.3081,-3.3081,-3.2855,-3.2403,-3.3595,-3.4011,-3.3767,-3.4839,-3.5244,-3.5052,-3.5052,-3.4839,-3.4558,-3.4558,-3.4558,-3.4558,-3.4558,-3.4773,-3.5052,0.0,0.0,0.0,0.0,0.0,0.0,0.0,-2.3595,-2.3595,-2.3595,-2.3595,-2.3699,-2.3954,-2.4956,-2.5704,-2.5959,0.0,0.0,0.0,0.0,0.0,0.0,0.0,0.0,0.0,0.0,-2.6303,-2.6961,-2.6945,-2.6774,-2.651,-2.6014,-2.5398,-2.4738,-2.4738,-2.4279,0.0,0.0,0.0,0.0,0.0,0.0,-2.5862,0.0,0.0,0.0,0.0,0.0,0.0,0.0,0.0,0.0,0.0,0.0,0.0,0.0,-2.5972,-2.7222,0.0,-2.7121,-2.8415,-2.7837,-2.774,-2.7971,-2.8687,-2.8298,-2.7996,-2.8699,-2.9176,-2.9289,-2.8725,-2.9264,-2.9603,-2.9026,-2.9415,-2.9792,-2.9792,-3.0269,-3.0809,-3.1336,-3.2014,-3.2516,-3.2729,-3.2754,-3.2842,-3.3056,-3.3081,-3.3081,-3.3081,-3.3081,-3.3081,-3.3081,-3.3081,-3.3081,-3.3081,-3.3081,-3.3081,-3.3068,-3.3255,-3.3142,-3.2867,-3.4276,-3.4556,-3.4012,-3.5316,-3.5729,0.0,-3.5504,-3.5504,-3.5504,-3.5504,-3.5504,-3.5504,-3.5504,-3.5504,-3.5504,0.0,0.0,0.0,0.0,0.0,0.0,0.0,0.0,0.0,0.0,-2.364,-2.3924,-2.4507,-2.5255,-2.5929,0.0,0.0,0.0,0.0,0.0,0.0,0.0,0.0,0.0,0.0,-2.6587,-2.6916,-2.7625,-2.7565,-2.721,-2.6563,-2.652,-2.6133,-2.5453,-2.5453,-2.5034,0.0,0.0,0.0,0.0,0.0,0.0,0.0,0.0,0.0,0.0,0.0,0.0,0.0,0.0,0.0,0.0,0.0,0.0,0.0,0.0,0.0,0.0,0.0,-2.4751,-2.6569,-2.6407,-2.6822,-2.7231,-2.7268,-2.7281,0.0,-2.7331,-2.816,-2.8712,-2.8197,-2.9001,-2.9553,-2.9013,-2.9415,-2.9792,-2.9792,-3.0294,-3.0871,-3.1386,-3.1486,-3.17,-3.2164,-3.2252,-3.2503,-3.3031,-3.3081,-3.3081,-3.3081,-3.3081,-3.3154,-3.324,-3.324,-3.3154,-3.3081,-3.3081,-3.3056,-3.3104,-3.3511,-3.3872,-3.4407,-3.5363,-3.5468,-3.4879,-3.5969,-3.6073,-3.5504,-3.5504,-3.5504,-3.5504,-3.5554,-3.5554,-3.5554,-3.5619,-3.5619,-3.5554,0.0,0.0,0.0,0.0,0.0,0.0,0.0,0.0,0.0,0.0,0.0,-2.4403,-2.4567,-2.5659,0.0,0.0,0.0,0.0,0.0,0.0,0.0,0.0,0.0,0.0,0.0,-2.6587,-2.6916,-2.7625,-2.7066,-2.7016,-2.7342,-2.6802,-2.6462,-2.6229,-2.6229,0.0,0.0,0.0,0.0,0.0,0.0,0.0,0.0,0.0,0.0,0.0,-2.482,-2.482,0.0,0.0,0.0,0.0,0.0,0.0,0.0,0.0,-2.5057,-2.5028,-2.3745,0.0,-2.6159,-2.4599,-2.5481,-2.6766,0.0,0.0,0.0,0.0,0.0,0.0,-2.8134,-2.8662,-2.9089,-2.895,-2.9415,-2.9792,-2.9792,-3.0608,-3.1411,-3.1951,-3.2416,-3.2554,-3.224,-3.2616,-3.293,-3.3068,-3.3081,-3.3081,-3.3081,-3.3081,-3.3471,-3.4275,-3.4345,-3.3953,-3.3081,-3.3081,-3.3136,-3.3066,-3.3213,-3.3966,-3.5232,-3.5008,-3.4679,-3.4257,-3.5289,-3.5654,-3.5504,-3.5504,-3.5504,-3.5554,-3.6117,-3.6337,-3.6399,-3.7055,-3.6874,-3.6446,0.0,0.0,0.0,0.0,0.0,0.0,0.0,0.0,0.0,0.0,0.0,0.0,0.0,0.0,0.0,0.0,0.0,0.0,0.0,0.0,0.0,0.0,0.0,0.0,0.0,-2.7036,-2.7215,-2.7625,-2.7215,-2.7215,-2.761,-2.72,-2.7015,-2.6982,-2.6669,0.0,0.0,0.0,0.0,0.0,-2.6477,0.0,0.0,0.0,0.0,0.0,-2.4042,-2.3879,0.0,-2.3966,-2.3879,-2.3753,0.0,0.0,0.0,0.0,-2.4701,-2.4776,-2.4002,-2.4814,-2.5581,-2.448,-2.5358,-2.6609,0.0,0.0,0.0,0.0,0.0,0.0,0.0,-2.8561,-2.9013,-2.9289,-2.9936,-3.0648,-3.135,-3.1604,-3.1999,-3.2752,-3.2731,-3.2667,-3.2616,-3.2893,-3.3081,-3.3081,-3.283,-3.2679,-3.2679,-3.2679,-3.3148,-3.4254,-3.4518,-3.4664,-3.4485,-3.4235,-3.3734,-3.3144,-3.3598,-3.4436,-3.5465,-3.5186,-3.4932,-3.4691,-3.5279,-3.5504,-3.5504,-3.5894,-3.6006,-3.6054,-3.6859,-3.716,-3.7203,-3.7632,-3.7515,-3.7203,0.0,0.0,0.0,0.0,0.0,0.0,0.0,0.0,0.0,0.0,0.0,0.0,0.0,0.0,0.0,0.0,0.0,0.0,0.0,0.0,0.0,0.0,0.0,0.0,-2.7275,-2.752,-2.7565,-2.7475,-2.7475,-2.752,-2.7625,-2.752,-2.752,-2.7575,-2.7033,0.0,0.0,0.0,-2.6754,-2.6561,-2.7053,0.0,0.0,0.0,0.0,0.0,0.0,0.0,0.0,-2.2975,-2.2824,-2.2598,-2.3565,0.0,0.0,0.0,0.0,0.0,-2.4413,-2.4701,-2.5039,-2.4885,-2.555,-2.6214,0.0,0.0,0.0,0.0,0.0,0.0,0.0,-2.856,-2.9089,-3.0037,-3.0986,-3.2005,-3.334,-3.2995,-3.2904,-3.3847,-3.3316,-3.2886,-3.3136,-3.3262,-3.3326,-3.3081,-3.2541,-3.2298,-3.2453,-3.2364,-3.2864,-3.4098,-3.4607,-3.5423,-3.6445,-3.5703,-3.4558,-3.3081,-3.4167,-3.4922,-3.5473,-3.5503,-3.5504,-3.5504,-3.5619,-3.5668,-3.5733,-3.6446,-3.6751,-3.6781,-3.7584,-3.7946,-3.7946,-3.8092,-3.8092,-3.7921,0.0,0.0,0.0,0.0,0.0,0.0,0.0,0.0,0.0,0.0,0.0,0.0,0.0,0.0,0.0,0.0,0.0,0.0,0.0,0.0,0.0,0.0,0.0,-2.7051,-2.5929,-2.7006,-2.7305,-2.6737,-2.6737,-2.7021,-2.761,-2.7006,-2.7036,-2.7604,-2.807,-2.8238,-2.8225,-2.8684,-2.8721,-2.8538,-2.8634,0.0,0.0,0.0,0.0,0.0,0.0,0.0,0.0,-2.3053,-2.3075,-2.3037,-2.3153,0.0,0.0,0.0,0.0,0.0,-2.4713,-2.5112,-2.5308,-2.4489,-2.4719,-2.5071,-2.5071,0.0,0.0,0.0,0.0,0.0,0.0,-2.8715,-2.9113,-3.1712,-3.2746,-3.35,-3.4181,-3.4568,-3.4904,-3.5096,-3.5377,-3.5116,-3.3789,-3.4127,-3.4108,-3.3154,-3.2541,-3.2606,-3.3414,-3.3012,-3.3574,-3.5489,-3.5662,-3.6404,-3.7793,-3.6113,-3.4492,-3.3131,-3.3958,-3.4759,-3.548,-3.5472,-3.5504,-3.5504,-3.6165,-3.6446,-3.6508,-3.7279,-3.734,-3.7028,-3.8042,-3.8455,-3.8581,-3.9456,-3.9332,-3.8635,0.0,0.0,0.0,0.0,0.0,0.0,0.0,0.0,0.0,0.0,0.0,0.0,0.0,0.0,0.0,0.0,0.0,0.0,0.0,0.0,0.0,0.0,-2.7625,-2.729,-2.6677,-2.726,-2.7475,-2.7126,-2.7126,-2.7275,-2.761,-2.726,-2.7485,-2.8143,-2.8457,-2.8916,-2.9501,-2.9851,-2.9856,-2.969,0.0,0.0,0.0,0.0,0.0,0.0,0.0,0.0,0.0,0.0,-2.2937,-2.2686,-2.2686,0.0,0.0,0.0,0.0,0.0,-2.4205,-2.4318,-2.433,-2.4607,-2.4958,-2.5247,-2.5247,0.0,0.0,0.0,0.0,0.0,0.0,-2.9112,-2.9834,-3.2905,-3.4257,-3.5024,-3.5495,-3.5653,-3.5798,-3.6137,-3.5962,-3.5599,-3.5167,-3.5345,-3.5144,-3.4377,-3.3714,-3.346,-3.354,-3.3257,-3.3845,-3.5353,-3.5769,-3.6385,-3.7404,-3.6526,-3.6185,-3.652,-3.5483,-3.5118,-3.5487,-3.6031,-3.6257,-3.6117,-3.6919,-3.7279,-3.7338,-3.8076,-3.8261,-3.8114,-3.9076,-3.9389,-3.9458,-3.9935,-3.985,-3.9489,0.0,0.0,0.0,0.0,0.0,0.0,0.0,0.0,0.0,0.0,0.0,0.0,0.0,0.0,0.0,0.0,0.0,0.0,0.0,0.0,-2.7625,-2.7625,-2.7625,-2.755,-2.735,-2.755,-2.755,-2.7385,-2.755,-2.7625,-2.7625,-2.7625,-2.7859,-2.8368,-2.8532,-2.9146,-3.0073,-3.0372,-3.0436,-3.0366,0.0,0.0,0.0,0.0,0.0,0.0,0.0,0.0,0.0,0.0,0.0,0.0,0.0,0.0,0.0,-2.2498,-2.2498,-2.2686,-2.3796,-2.3796,-2.3812,-2.4919,0.0,-2.5357,-2.5743,0.0,0.0,0.0,0.0,0.0,-2.9914,-3.065,-3.1598,-3.365,-3.5186,-3.6201,-3.647,-3.6556,-3.6677,-3.7099,-3.6696,-3.6437,-3.6562,-3.6465,-3.6045,-3.5383,-3.4623,-3.4062,-3.3765,-3.3584,-3.4016,-3.5053,-3.5546,-3.6029,-3.6484,-3.6641,-3.7307,-3.8458,-3.6456,-3.5494,-3.5503,-3.6306,-3.6737,-3.6904,-3.7546,-3.785,-3.8044,-3.8854,-3.9193,-3.9262,-3.985,-4.007,-4.007,-4.007,-4.007,-4.007,0.0,0.0,0.0,0.0,0.0,0.0,0.0,0.0,0.0,0.0,0.0,0.0,0.0,0.0,0.0,0.0,0.0,0.0,0.0,0.0,-2.7625,-2.7625,-2.7625,-2.729,-2.6677,-2.726,-2.7275,-2.6662,-2.7275,-2.7625,-2.7625,-2.7625,-2.7655,-2.773,-2.8308,-2.8652,-2.8816,-2.9998,-3.0466,-3.0514,-3.1155,0.0,0.0,0.0,0.0,0.0,0.0,0.0,0.0,0.0,0.0,0.0,0.0,0.0,-2.3015,-2.3015,-2.3015,-2.3207,-2.4041,-2.4596,-2.5024,-2.531,0.0,0.0,-2.6065,-2.7203,0.0,-2.876,0.0,0.0,-3.2677,-3.4083,-3.4817,-3.4095,-3.5413,-3.6455,-3.6492,-3.747,-3.8262,-3.8307,-3.8788,-3.8738,-3.7753,-3.7118,-3.6358,-3.5355,-3.4162,-3.3851,-3.4711,-3.4278,-3.4399,-3.5434,-3.5478,-3.5559,-3.5624,-3.6207,-3.629,-3.5792,-3.5618,-3.5492,-3.5492,-3.5554,-3.6393,-3.7732,-3.7744,-3.8057,-3.8619,-3.9612,-4.002,-4.002,-4.007,-4.007,-4.007,-4.007,-4.007,-4.007,0.0,0.0,0.0,0.0,0.0,0.0,0.0,0.0,0.0,0.0,0.0,0.0,0.0,0.0,0.0,0.0,0.0,0.0,0.0,0.0,-2.7141,-2.761,-2.7186,-2.7036,-2.72,-2.744,-2.7505,-2.72,-2.7505,-2.7625,-2.7625,-2.7625,-2.7799,-2.8218,-2.8487,-2.8831,-2.9235,-2.9729,-3.0163,-3.0522,-3.0791,-3.0547,0.0,0.0,0.0,0.0,0.0,0.0,0.0,0.0,-2.3826,-2.3702,0.0,-2.2623,-2.2623,-2.2623,-2.2623,-2.2862,-2.3968,-2.4451,-2.4847,-2.5853,0.0,0.0,0.0,-2.7589,-2.8019,-2.9392,-3.0109,-3.1012,-3.2824,-3.4802,-3.5836,-3.506,-3.6484,-3.7389,-3.6596,-3.7584,-3.8392,-3.8392,-3.8257,-3.834,-3.8782,-3.7809,-3.7034,-3.6648,-3.5778,-3.5331,-3.5251,-3.5053,-3.5133,-3.5504,-3.5504,-3.5733,-3.6165,-3.6901,-3.7263,-3.7233,-3.6953,-3.6706,-3.643,-3.7245,-3.7939,-3.8509,-3.901,-3.9341,-3.9578,-3.9935,-4.007,-4.007,-4.007,-4.007,-4.007,-4.007,-4.007,-4.007,0.0,0.0,0.0,0.0,0.0,0.0,0.0,0.0,0.0,0.0,0.0,0.0,0.0,0.0,0.0,0.0,0.0,0.0,0.0,-2.6482,-2.6782,-2.7245,-2.7036,-2.7111,-2.761,-2.7625,-2.7625,-2.7625,-2.7625,-2.7625,-2.7625,-2.7625,-2.7814,-2.8278,-2.8278,-2.8532,-2.8966,-2.9175,-2.952,-2.9939,-3.0342,-3.0387,0.0,0.0,0.0,0.0,0.0,0.0,0.0,0.0,-2.4292,0.0,0.0,0.0,-2.2347,-2.2523,-2.2322,-2.2388,-2.39,-2.4173,-2.4442,0.0,0.0,0.0,-2.8881,-2.8907,-2.9123,-3.0757,-3.149,-3.2241,-3.366,-3.5192,-3.6028,-3.5579,-3.6611,-3.718,-3.6297,-3.7105,-3.7793,-3.7793,-3.7569,-3.7778,-3.8691,-3.7778,-3.712,-3.712,-3.6537,-3.5983,-3.5534,-3.5504,-3.5619,-3.5831,-3.5619,-3.5831,-3.66,-3.7297,-3.7669,-3.7737,-3.8141,-3.8173,-3.8014,-3.8874,-3.9305,-3.9315,-3.985,-4.007,-4.007,-4.007,-4.007,-4.007,-4.007,-4.007,-4.007,-4.007,-4.007,-4.007,0.0,0.0,0.0,0.0,0.0,0.0,0.0,0.0,0.0,0.0,0.0,0.0,0.0,0.0,0.0,0.0,0.0,0.0,0.0,-2.6228,-2.6587,-2.6602,-2.7215,-2.761,-2.7625,-2.7625,-2.7625,-2.7625,-2.7625,-2.7625,-2.7625,-2.7625,-2.7625,-2.7625,-2.7625,-2.7625,-2.767,-2.8308,-2.8592,-2.8712,-2.9983,-3.0118,-2.9579,0.0,0.0,0.0,0.0,0.0,0.0,0.0,-2.4292,-2.4163,0.0,0.0,0.0,-2.2915,-2.2347,-2.1929,-2.3852,-2.3906,0.0,0.0,0.0,0.0,-3.0875,-3.1467,-3.1898,-3.3215,-3.4562,-3.5489,-3.5504,-3.5504,-3.5504,-3.5504,-3.5504,-3.5519,-3.5504,-3.6073,-3.6492,-3.6492,-3.7015,-3.7404,-3.7404,-3.6836,-3.6477,-3.6477,-3.5878,-3.5504,-3.5504,-3.5504,-3.5831,-3.6615,-3.5894,-3.5894,-3.66,-3.7281,-3.7281,-3.6676,-3.8868,-3.9952,-4.0093,-4.0093,-4.0077,-4.007,-4.007,-4.007,-4.007,-4.007,-4.007,-4.007,-4.007,-4.007,-4.007,-4.007,-4.007,-4.007,0.0,0.0,0.0,0.0,0.0,0.0,0.0,0.0,0.0,0.0,0.0,0.0,0.0,0.0,0.0,0.0,0.0,0.0,0.0,-2.6482,-2.6797,-2.726,-2.7021,-2.7096,-2.761,-2.7625,-2.7625,-2.7625,-2.7625,-2.7625,-2.7625,-2.7625,-2.7625,-2.7625,-2.7625,-2.7625,-2.7625,-2.7784,-2.8158,-2.8637,-2.9011,-2.934,-2.9535,0.0,0.0,0.0,0.0,0.0,0.0,0.0,0.0,0.0,0.0,0.0,0.0,-2.251,-2.2322,-2.2236,-2.2949,-2.3649,0.0,-2.5618,0.0,0.0,0.0,-3.0492,0.0,0.0,-3.4188,-3.4936,-3.5415,-3.5504,-3.5504,-3.5504,-3.5893,-3.6028,-3.5564,-3.6073,-3.6492,-3.6492,-3.6237,-3.6432,-3.7315,-3.6884,-3.6781,-3.7256,-3.7157,-3.7131,-3.7131,-3.7131,-3.7235,-3.7456,-3.6692,-3.6904,-3.823,-3.8419,-3.8711,-3.9102,-4.0241,-4.0238,-3.928,-3.9862,-4.0121,-4.007,-4.007,-4.007,-4.007,-4.007,-4.007,-4.007,-4.007,-4.007,-4.007,-4.007,-4.007,-4.007,0.0,0.0,0.0,0.0,0.0,0.0,0.0,0.0,0.0,0.0,0.0,0.0,0.0,0.0,0.0,0.0,0.0,0.0,0.0,0.0,-2.6767,-2.7171,-2.7051,-2.7171,-2.761,-2.7625,-2.7625,-2.7625,-2.7625,-2.7625,-2.7625,-2.7625,-2.7625,-2.7625,-2.7625,-2.7625,-2.7625,-2.7625,-2.7951,-2.8546,-2.8591,-2.8824,-2.9107,0.0,0.0,0.0,0.0,0.0,0.0,0.0,0.0,0.0,0.0,0.0,0.0,-2.2046,-2.1983,-2.2078,-2.2413,-2.3259,0.0,-2.5626,-2.7258,-2.8853,-3.0078,0.0,-3.2183,-3.3933,-3.4607,-3.5011,-3.5429,-3.5718,-3.5831,-3.5569,-3.6049,-3.6413,-3.6004,-3.6292,-3.6679,-3.6982,-3.6676,-3.6738,-3.7474,-3.7281,-3.7257,-3.7681,-3.7753,-3.7822,-3.7822,-3.7822,-3.7921,-3.8262,-3.7499,-3.7658,-3.8908,-3.8893,-3.9116,-3.961,-4.0425,-4.0288,-3.9368,-3.9901,-4.007,-4.007,-4.007,-4.007,-4.007,-4.007,-4.007,-4.007,-4.007,-4.007,-4.007,-4.007,-4.007,-4.007,0.0,0.0,0.0,0.0,0.0,0.0,0.0,0.0,0.0,0.0,0.0,0.0,0.0,0.0,0.0,0.0,0.0,0.0,0.0,0.0,-2.6617,-2.6677,-2.7305,-2.7715,-2.7715,-2.7715,-2.7715,-2.7715,-2.7655,-2.7625,-2.7625,-2.7625,-2.7625,-2.7625,-2.7625,-2.7625,-2.7625,-2.7625,-2.791,-2.8429,-2.849,-2.847,-2.8444,-2.852,0.0,0.0,0.0,0.0,0.0,0.0,0.0,0.0,0.0,0.0,-2.2324,-2.1819,-2.1668,-2.1767,-2.2346,0.0,0.0,-2.5875,-2.7463,0.0,-3.1127,-3.2542,-3.3769,-3.5055,-3.5415,-3.5504,-3.5504,-3.6054,-3.6275,-3.5619,-3.6117,-3.6615,-3.6615,-3.6661,-3.6964,-3.769,-3.7822,-3.7822,-3.7822,-3.7863,-3.7921,-3.7921,-3.7978,-3.7978,-3.7978,-3.7978,-3.8318,-3.8978,-3.8318,-3.8262,-3.9016,-3.8891,-3.8891,-3.9032,-3.9731,-4.007,-4.007,-4.007,-4.007,-4.007,-4.007,-4.007,-4.007,-4.007,-4.007,-4.007,-4.007,-4.007,-4.007,-4.007,-4.007,-4.007,0.0,0.0,0.0,0.0,0.0,0.0,0.0,0.0,0.0,0.0,0.0,0.0,0.0,0.0,0.0,0.0,0.0,0.0,0.0,0.0,-2.6811,-2.7335,-2.8008,-2.8382,-2.8382,-2.8382,-2.8382,-2.8382,-2.7844,-2.7625,-2.7625,0.0,0.0,-2.7625,0.0,-2.7625,-2.7625,-2.7625,-2.766,-2.7775,-2.7825,-2.7795,-2.7775,-2.784,-2.7745,0.0,0.0,0.0,0.0,0.0,0.0,0.0,-2.4046,-2.355,-2.3145,-2.3027,-2.2988,-2.3044,-2.3142,-2.3646,0.0,0.0,-2.7248,-2.9682,-3.1812,-3.2527,-3.2961,-3.3754,-3.4771,-3.5504,-3.5504,-3.5619,-3.5668,-3.5504,-3.6117,-3.6615,-3.6615,-3.7144,-3.7632,-3.7764,-3.7822,-3.7822,-3.7822,-3.8302,-3.8635,-3.8635,-3.9279,-3.9627,-3.9627,-3.9627,-3.9679,-3.9833,-3.9086,-3.9032,-3.9833,-3.904,-3.904,-3.9833,-4.002,-4.007,-4.007,-4.007,-4.007,-4.007,-4.007,-4.007,-4.007,-4.007,-4.007,-4.007,-4.007,-4.007,-4.007,-4.007,-4.007,-4.007,0.0,0.0,0.0,0.0,0.0,0.0,0.0,0.0,0.0,0.0,0.0,0.0,0.0,0.0,0.0,0.0,0.0,0.0,0.0,0.0,0.0,0.0,-2.7919,-2.8113,-2.8113,-2.8113,-2.8113,-2.8113,-2.779,0.0,0.0,0.0,0.0,-2.7625,0.0,-2.7625,-2.7625,-2.7625,-2.776,-2.7993,-2.771,-2.776,-2.7993,-2.771,-2.7625,-2.7625,-2.7944,0.0,0.0,0.0,0.0,0.0,0.0,0.0,-2.4243,-2.3717,-2.3906,-2.4242,-2.3572,0.0,0.0,-2.6768,0.0,-3.0277,-3.2095,-3.2512,-3.2706,-3.3365,-3.4307,-3.5115,-3.5444,-3.5782,-3.5879,-3.5554,-3.6117,-3.6722,-3.71,-3.7515,-3.8092,-3.8832,-3.8887,-3.8887,-3.8887,-3.9262,-3.9489,-3.9489,-3.985,-4.007,-4.007,-4.007,-4.007,-4.007,-3.9662,-3.9662,-4.0087,-3.9595,-3.9595,-4.007,-4.007,-4.007,-4.007,-4.007,-4.007,-4.007,-4.007,-4.007,-4.007,-4.007,-4.007,-4.007,-4.007,-4.007,-4.007,-4.007,-4.007,-4.007,0.0,0.0,0.0,0.0,0.0,0.0,0.0,0.0,0.0,0.0,0.0,0.0,0.0,0.0,0.0,0.0,0.0,0.0,0.0,0.0,0.0,0.0,-2.7619,-2.7754,-2.7754,-2.7754,-2.7754,-2.7754,0.0,0.0,0.0,0.0,0.0,-2.7625,0.0,-2.7625,-2.7625,-2.7625,-2.791,-2.8286,-2.781,-2.791,-2.8286,-2.781,-2.7625,-2.7675,-2.8189,-2.8319,-2.8271,-2.7739,0.0,0.0,0.0,0.0,-2.5558,-2.4483,-2.4864,-2.5356,-2.4338,0.0,-2.6593,-2.8621,-2.9408,0.0,-3.1737,-3.2154,-3.2333,-3.3185,-3.3844,-3.4517,-3.5205,-3.5824,-3.609,-3.5604,-3.6117,-3.6843,-3.769,-3.7921,-3.8486,-3.9901,-4.007,-4.007,-4.007,-4.007,-4.007,-4.007,-4.007,-4.007,-4.007,-4.007,-4.007,-4.007,-4.007,-4.007,-4.007,-4.007,-4.007,-4.007,-4.007,-4.007,-4.007,-4.007,-4.007,-4.007,-4.007,-4.007,-4.007,-4.007,-4.007,-4.007,-4.007,-4.007,-4.007,-4.007,-4.007,-4.0104,0.0,0.0,0.0,0.0,0.0,0.0,0.0,0.0,0.0,0.0,0.0,0.0,0.0,0.0,0.0,0.0,0.0,0.0,-2.554,0.0,0.0,-2.6722,-2.7844,-2.8472,-2.8472,-2.8472,-2.8472,-2.8472,0.0,0.0,0.0,0.0,0.0,-2.7625,0.0,-2.7625,-2.7625,-2.7625,-2.7675,-2.771,-2.7625,-2.7675,-2.771,-2.7625,-2.7625,-2.7625,-2.766,-2.771,-2.781,-2.8222,-2.7902,0.0,0.0,0.0,-2.6975,-2.6318,-2.6208,-2.6437,0.0,0.0,-2.6316,0.0,-2.7727,-2.7944,-3.0119,-3.058,-3.095,-3.2378,-3.317,-3.3829,-3.4487,-3.4733,-3.4913,-3.54,-3.6117,-3.6843,-3.769,-3.8358,-3.9086,-4.0003,-4.007,-4.007,-4.007,-4.007,-4.007,-4.007,-4.007,-4.007,-4.007,-4.007,-4.007,-4.007,-4.007,-4.007,-4.007,-4.007,-4.007,-4.007,-4.007,-4.007,-4.007,-4.007,-4.007,-4.007,-4.007,-4.007,-4.007,-4.007,-4.007,-4.007,-4.007,-4.007,-4.007,-4.007,-4.007,-4.0172,0.0,0.0,0.0,0.0,0.0,0.0,0.0,0.0,0.0,0.0,0.0,0.0,0.0,0.0,0.0,-2.4073,-2.3774,-2.4014,-2.5001,-2.597,-2.6547,-2.6621,-2.7849,-2.8414,-2.8023,-2.8023,-2.8023,0.0,0.0,0.0,0.0,-2.7964,-2.7934,0.0,0.0,0.0,0.0,-2.7625,-2.7625,-2.7625,-2.7625,-2.735,-2.7066,-2.749,-2.7385,-2.7115,-2.7856,-2.8091,-2.814,-2.8415,-2.8288,-2.7966,-2.7635,0.0,0.0,0.0,-2.71,-2.7114,-2.7285,-2.6691,-2.6489,0.0,-2.847,-2.8745,-3.0572,-3.097,-3.1058,-3.1347,-3.1928,-3.2706,-3.3739,-3.3918,-3.4023,-3.4322,-3.465,-3.5278,-3.6413,-3.7238,-3.8177,-3.9265,-3.985,-4.007,-4.007,-4.007,-4.007,-4.007,-4.007,-4.007,-4.007,-4.007,-4.007,-4.007,-4.007,-4.007,-4.007,-4.007,-4.007,-4.007,-4.007,-4.007,-4.007,-4.007,-4.007,-4.007,-4.007,-4.007,-4.007,-4.007,-4.007,-4.007,-4.007,-4.007,-4.007,-4.007,-4.007,-4.0121,0.0,0.0,0.0,0.0,0.0,0.0,0.0,0.0,0.0,0.0,0.0,0.0,0.0,0.0,0.0,0.0,-2.3595,-2.3819,-2.4328,-2.5722,-2.6548,-2.6574,-2.7825,-2.8286,-2.786,-2.7675,0.0,0.0,0.0,0.0,-2.7625,-2.8278,-2.8323,0.0,-2.8547,-2.8472,0.0,0.0,-2.779,-2.761,-2.738,-2.7036,-2.6632,-2.6946,-2.6767,-2.6471,-2.7588,-2.8025,-2.8056,-2.8401,-2.8511,-2.8415,-2.7944,-2.781,0.0,0.0,0.0,-2.7563,-2.7433,0.0,-2.6665,-2.8383,-2.8655,-2.8885,-3.0337,-3.0791,-3.0891,-3.0556,-3.0911,-3.1629,-3.2781,-3.3125,-3.3305,-3.3469,-3.3499,-3.4,-3.538,-3.6106,-3.7086,-3.8717,-3.9437,-3.9901,-4.007,-4.007,-4.007,-4.007,-4.007,-4.007,-4.007,-4.007,-4.007,-4.007,-4.007,-4.007,-4.007,-4.007,-4.007,-4.007,-4.007,-4.007,-4.007,-4.007,-4.007,-4.007,-4.007,-4.007,-4.007,-4.007,-4.007,-4.007,-4.007,-4.007,-4.007,-4.007,-4.007,-4.0104,0.0,0.0,0.0,0.0,0.0,0.0,0.0,0.0,0.0,0.0,0.0,0.0,0.0,-2.3638,-2.3638,-2.3595,-2.3595,-2.361,-2.3655,-2.5446,-2.6494,-2.6497,-2.7798,0.0,-2.8463,-2.7894,0.0,0.0,0.0,0.0,-2.7625,-2.8278,-2.8577,-2.8577,-2.9235,-2.916,-2.8547,0.0,0.0,0.0,-2.6901,-2.6617,-2.6527,-2.5929,-2.5689,-2.5749,-2.6456,-2.6681,-2.6868,-2.8104,-2.8511,-2.8511,-2.8463,-2.8463,-2.8319,0.0,0.0,0.0,-2.7604,-2.7041,0.0,-2.7221,-2.6891,-2.6717,-2.8168,-2.8944,-2.961,-3.0339,-3.0537,-3.0776,-3.1437,-3.2138,-3.2766,-3.3395,-3.3499,-3.4,-3.538,-3.5652,-3.6458,-3.8646,-3.8908,-3.9262,-4.002,-4.007,-4.007,-4.007,-4.007,-4.007,-4.007,-4.007,-4.007,-4.007,-4.007,-4.007,-4.007,-4.007,-4.007,-4.007,-4.007,-4.007,-4.007,-4.007,-4.007,-4.007,-4.007,-4.007,-4.007,-4.007,-4.007,-4.007,-4.007,-4.007,-4.007,-4.007,-4.007,-4.0172,0.0,0.0,0.0,0.0,0.0,0.0,0.0,0.0,0.0,0.0,0.0,0.0,0.0,-2.3595,-2.3595,-2.3595,-2.3999,-2.4253,-2.4253,-2.6075,-2.7131,-2.7131,-2.84,-2.8919,-2.8511,-2.8286,0.0,0.0,0.0,-2.7625,-2.7625,-2.8278,-2.8831,-2.9235,-2.9475,-2.9445,-2.922,-2.922,0.0,-2.8203,-2.7979,-2.7365,-2.6557,-2.6333,-2.5974,-2.5644,-2.5869,-2.6228,-2.6681,-2.7149,-2.7546,-2.7834,-2.741,-2.7258,-2.7306,-2.7468,-2.7837,-2.8082,-2.7638,0.0,0.0,-2.7469,-2.7642,-2.7963,-2.8895,-2.964,-3.0036,-2.9928,-3.0582,-3.1106,-3.0911,-3.1061,-3.145,-3.2123,-3.2243,-3.2511,-3.3501,-3.4017,-3.4826,-3.6045,-3.6978,-3.7878,-3.8668,-3.916,-3.958,-4.0037,-4.007,-4.007,-4.007,-4.007,-4.007,-4.007,-4.007,-4.007,-4.007,-4.007,-4.007,-4.007,-4.007,-4.007,-4.007,-4.007,-4.007,-4.007,-4.007,-4.007,-4.007,-4.007,-4.007,-4.007,-4.007,-4.007,-4.007,-4.007,-4.007,-4.0121,0.0,0.0,0.0,0.0,0.0,0.0,0.0,0.0,0.0,0.0,0.0,0.0,0.0,0.0,-2.3771,-2.4197,-2.4432,-2.4807,-2.5228,-2.6657,-2.7579,-2.7805,-2.8844,-2.9316,-2.9088,-2.8701,0.0,0.0,0.0,0.0,0.0,-2.8038,-2.8607,-2.925,-2.925,-2.949,0.0,-2.9894,-2.952,-2.8891,-2.8442,-2.7859,-2.7215,-2.6767,-2.6318,-2.5974,-2.6183,-2.6408,-2.6617,-2.6841,-2.7199,-2.7482,-2.7075,-2.6898,-2.6942,-2.7365,-2.7922,-2.8342,-2.7969,0.0,0.0,-2.766,-2.7919,-2.8368,-2.8816,-2.94,-2.9744,-2.934,-3.0118,-3.0806,-3.0552,-3.0507,-3.0731,-3.1362,-3.1482,-3.1706,-3.2422,-3.2938,-3.3629,-3.4612,-3.5748,-3.6725,-3.751,-3.8455,-3.9089,-3.9326,-3.98,-3.9969,-3.9732,-3.9952,-4.007,-4.007,-4.007,-4.007,-4.007,-4.007,-4.007,-4.007,-4.007,-4.007,-4.007,-4.007,-4.007,-4.007,-4.007,-4.007,-4.007,-4.007,-4.007,-4.007,-4.007,-4.007,-4.007,-4.007,-4.007,-4.007,0.0,0.0,0.0,0.0,0.0,0.0,0.0,0.0,0.0,0.0,0.0,0.0,0.0,0.0,0.0,-2.5366,-2.4969,-2.5183,-2.6419,-2.7146,-2.7776,-2.8394,-2.9038,-2.9673,-3.0251,-2.9088,0.0,0.0,0.0,0.0,0.0,0.0,-2.7934,-2.8607,-2.8607,-2.9295,-3.0477,-3.0492,-3.0148,-2.9475,-2.8225,-2.8053,-2.8487,-2.7156,-2.6632,-2.6707,-2.7385,-2.7205,-2.6741,-2.7435,-2.7552,-2.7489,-2.7584,-2.7507,-2.7473,-2.7503,-2.791,-2.8395,0.0,0.0,0.0,-2.7745,-2.761,-2.7625,-2.7625,-2.8113,-2.8607,-2.8607,-2.9131,-2.9759,-3.0387,-3.0507,-3.0731,-3.1362,-3.1482,-3.1764,-3.2392,-3.2482,-3.3004,-3.445,-3.5221,-3.59,-3.6701,-3.8086,-3.8633,-3.7956,-3.9225,-3.9698,-3.9005,-3.9648,-4.0054,-4.0054,-4.007,-4.007,-4.007,-4.007,-4.007,-4.007,-4.007,-4.007,-4.007,-4.007,-4.007,-4.007,-4.007,-4.007,-4.007,-4.007,-4.007,-4.007,-4.007,-4.007,-4.007,-4.007,-4.007,-4.007,0.0,0.0,0.0,0.0,0.0,0.0,0.0,0.0,0.0,0.0,0.0,0.0,0.0,0.0,-2.3966,-2.476,-2.5152,-2.5708,-2.6529,-2.7194,-2.785,-2.8451,-2.8623,-2.9042,-2.9629,-2.8873,0.0,0.0,0.0,0.0,0.0,0.0,0.0,0.0,-2.8607,-2.9071,-2.9864,-3.0313,-3.0148,-2.9594,-2.9669,-2.9549,-2.922,-2.8368,-2.7739,-2.742,-2.8097,-2.7857,-2.7427,-2.856,-2.89,-2.8695,-2.7798,-2.8097,-2.8692,-2.8275,-2.8904,-2.9561,-2.8658,0.0,0.0,0.0,0.0,0.0,-2.7625,-2.8113,-2.8607,-2.8607,-2.9131,-2.9759,-3.0387,-3.0507,-3.0731,-3.1362,-3.1482,-3.1541,-3.1779,-3.1809,-3.2143,-3.3089,-3.3365,-3.4117,-3.581,-3.6373,-3.6968,-3.7841,-3.8278,-3.8413,-3.8227,-3.8903,-3.9292,-3.9292,-3.98,-4.007,-4.007,-4.007,-4.007,-4.007,-4.007,-4.007,-4.007,-4.007,-4.007,-4.007,-4.007,-4.007,-4.007,-4.007,-4.007,-4.007,-4.007,-4.007,-4.007,-4.007,-4.007,-4.007,0.0,0.0,0.0,0.0,0.0,0.0,0.0,0.0,0.0,0.0,0.0,0.0,0.0,0.0,0.0,-2.5272,-2.5514,-2.6099,-2.7306,-2.75,-2.786,-2.8463,-2.8511,-2.8919,-2.9761,-2.918,-2.8873,0.0,0.0,0.0,0.0,0.0,0.0,0.0,0.0,0.0,-2.8801,-2.9729,-3.0058,-2.9998,-3.0357,-3.0462,-3.0328,-2.9654,-2.9358,-2.9307,-2.9732,-2.956,-2.9295,-2.9774,-2.9675,-2.923,-2.812,-2.8491,-2.9206,-2.886,-2.9461,-2.9996,-2.9076,-2.8862,-2.8592,-2.7327,0.0,0.0,-2.723,-2.7679,-2.8098,-2.7814,-2.8517,-2.928,-2.9639,-3.0148,-3.0642,-3.1046,-3.1287,-3.1582,-3.191,-3.1951,-3.2216,-3.2933,-3.3235,-3.3922,-3.5129,-3.5795,-3.6352,-3.69,-3.7511,-3.7905,-3.7905,-3.8311,-3.8531,-3.8531,-3.9561,-3.9951,-3.9631,-3.9935,-4.007,-4.007,-4.007,-4.007,-4.007,-4.007,-4.007,-4.007,-4.007,-4.007,-4.007,-4.007,-4.007,-4.007,-4.007,-4.007,-4.007,-4.007,-4.007,-4.007,0.0,0.0,0.0,0.0,0.0,0.0,0.0,0.0,0.0,0.0,0.0,0.0,0.0,0.0,0.0,0.0,-2.597,-2.6482,-2.829,-2.791,-2.786,-2.8367,-2.8415,-2.8904,-3.0081,-2.9496,-2.9225,-2.9316,0.0,0.0,0.0,0.0,0.0,0.0,0.0,0.0,0.0,-2.8936,-2.9789,-3.0313,-3.0537,-3.0986,-3.1407,-3.0851,-3.094,-3.1473,-3.1657,-3.1675,-3.1486,-3.0903,-3.0193,-2.9447,-2.8681,-2.889,-2.9402,-2.9419,-2.9788,-3.0113,-2.9643,-2.9496,-2.9225,-2.8076,-2.7795,0.0,-2.6973,-2.7289,-2.7495,-2.6876,-2.7649,-2.8502,-2.8592,-2.9594,-3.0417,-3.0492,-3.1091,-3.1739,-3.2382,-3.2492,-3.2765,-3.3642,-3.4136,-3.4463,-3.4716,-3.5794,-3.6164,-3.5531,-3.6831,-3.7652,-3.7652,-3.7736,-3.7787,-3.7804,-3.9117,-3.9625,-3.9105,-3.963,-3.9968,-4.0104,-4.0036,-4.0003,-4.007,-4.007,-4.007,-4.007,-4.007,-4.007,-4.007,-4.007,-4.007,-4.007,-4.007,-4.007,-4.007,-4.007,-4.007,-4.007,-2.8916,0.0,0.0,0.0,0.0,0.0,0.0,0.0,0.0,0.0,0.0,0.0,0.0,0.0,0.0,0.0,-2.6174,-2.6771,-2.7715,-2.7675,-2.766,-2.776,-2.776,-2.8125,-2.8826,-2.8271,-2.8174,-2.8701,0.0,0.0,0.0,0.0,0.0,0.0,0.0,0.0,-2.7619,-2.8442,-2.8861,-2.9116,-3.0687,-3.1347,-3.1467,-3.1317,-3.1042,-3.0845,-3.1982,-3.2033,-3.1565,-3.1828,-3.1465,-3.0747,-3.0088,-3.0325,-3.07,-3.0261,-3.054,-3.0886,-3.026,-3.0123,-2.9935,-2.9225,-2.9042,0.0,-2.8245,-2.8227,-2.8143,-2.7545,-2.759,-2.7934,-2.8502,-2.9235,-2.9924,-3.0417,-3.1091,-3.1524,-3.1682,-3.1682,-3.24,-3.4261,-3.3583,-3.3678,-3.5347,-3.4689,-3.4348,-3.4758,-3.5559,-3.6062,-3.6062,-3.6654,-3.7106,-3.7271,-3.7936,-3.886,-3.9884,-3.8846,-3.895,-4.0116,-3.9527,-3.9512,-4.007,-4.007,-4.007,-4.007,-4.007,-4.007,-4.007,-4.007,-4.007,-4.007,-4.007,-4.007,-4.007,-4.007,-4.007,-4.007,-2.9281,0.0,0.0,0.0,0.0,0.0,0.0,0.0,0.0,0.0,0.0,0.0,0.0,0.0,0.0,0.0,0.0,0.0,-2.758,-2.7625,-2.7625,-2.7625,-2.7625,-2.7894,-2.8463,-2.8189,-2.8189,-2.8511,0.0,0.0,0.0,0.0,0.0,0.0,0.0,0.0,-2.7156,-2.8173,-2.8607,-2.8712,-3.0043,-3.0746,-3.1016,-3.1016,-3.1227,-3.1631,-3.2353,-3.257,-3.2541,-3.2807,-3.2631,-3.2249,-3.1926,-3.1799,-3.1692,-3.1374,-3.1244,-3.1055,-3.0477,-3.0293,-3.0166,-2.954,-2.9406,0.0,0.0,-2.8263,-2.8334,-2.771,-2.7625,-2.7784,-2.8472,-2.8861,-2.931,-2.9939,-3.0597,-3.115,-3.1422,-3.1796,-3.2545,-3.3973,-3.3509,-3.3504,-3.4489,-3.3982,-3.3887,-3.4528,-3.4828,-3.5124,-3.5577,-3.5994,-3.6231,-3.6361,-3.6595,-3.7313,-3.8444,-3.7851,-3.821,-3.9559,-3.9172,-3.9377,-4.007,-4.007,-4.007,-4.007,-4.007,-4.007,-4.007,-4.007,-4.007,-4.007,-4.007,-4.007,-4.007,-4.007,-4.007,-4.007,-2.9451,0.0,0.0,0.0,0.0,0.0,0.0,0.0,0.0,0.0,0.0,0.0,0.0,-2.5719,-2.6063,-2.6722,0.0,0.0,-2.794,-2.7604,-2.749,-2.756,-2.7625,-2.775,-2.8134,-2.8258,-2.8334,-2.8334,0.0,0.0,0.0,0.0,0.0,0.0,0.0,0.0,0.0,-2.7814,-2.8293,-2.8442,-2.8981,-2.9729,-3.0507,-3.0507,-3.1213,-3.2222,-3.2346,-3.2681,-3.3127,-3.3286,-3.3243,-3.322,-3.322,-3.29,-3.2459,-3.2324,-3.1867,-3.128,-3.0651,-3.0576,-3.0591,-3.0103,-3.0069,-2.9871,0.0,0.0,0.0,-2.8507,-2.8167,-2.8203,-2.8845,-2.8876,-2.8959,-2.9529,-3.0198,-3.0799,-3.1255,-3.1931,-3.2734,-3.3704,-3.355,-3.3498,-3.3727,-3.3621,-3.3777,-3.4186,-3.4415,-3.4769,-3.5333,-3.5532,-3.5594,-3.5583,-3.5593,-3.5925,-3.6552,-3.6747,-3.7523,-3.8935,-3.8819,-3.9242,-4.007,-4.007,-4.007,-4.007,-4.007,-4.007,-4.007,-4.007,-4.007,-4.007,-4.007,-4.007,-4.007,-4.007,-4.007,-4.007,-3.0081,-2.9717,0.0,0.0,0.0,0.0,0.0,0.0,0.0,0.0,0.0,-2.6333,-2.5674,-2.6123,-2.6752,-2.7445,-2.6393,-2.6752,-2.919,-2.7694,-2.6961,-2.7595,-2.7625,-2.734,-2.6804,-2.7409,-2.771,-2.771,0.0,0.0,0.0,0.0,0.0,0.0,-2.6931,-2.6976,-2.749,-2.6991,-2.7156,-2.7694,-2.782,-2.8891,-3.0507,-3.0507,-3.0608,-3.082,-3.1474,-3.1663,-3.1748,-3.2392,-3.2577,-3.2512,-3.2512,-3.2877,-3.3152,-3.2476,-3.2222,-3.2019,-3.128,-3.1567,-3.2056,-3.1974,-3.2462,-3.2763,-3.2105,0.0,-3.187,-3.1246,0.0,-2.9596,-3.0227,0.0,0.0,-2.9567,-3.0548,-3.1121,-3.0653,-3.1192,-3.2349,-3.4374,-3.3481,-3.3208,-3.4441,-3.3913,-3.3301,-3.2888,-3.4484,-3.5153,-3.4464,-3.5195,-3.5599,-3.5614,-3.5588,-3.5628,-3.5757,-3.5746,-3.6721,-3.8642,-3.8224,-3.8751,-4.007,-4.007,-4.007,-4.007,-4.007,-4.007,-4.007,-4.007,-4.007,-4.007,-4.007,-4.007,-4.007,-4.007,-4.007,-4.007,-2.9717,-2.9271,0.0,0.0,0.0,0.0,0.0,0.0,0.0,0.0,0.0,-2.7051,-2.6782,-2.735,-2.8023,-2.8682,-2.7889,-2.7979,-2.949,-2.8442,-2.8053,-2.8712,-2.8368,-2.8038,-2.7769,-2.7634,-2.7625,-2.7625,-2.7625,0.0,0.0,0.0,0.0,0.0,-2.7111,-2.7096,-2.7036,-2.7545,-2.7919,-2.8203,-2.8577,-2.9235,-2.9924,-2.9549,-2.9864,-3.0563,-3.0824,-3.1435,-3.2175,-3.2895,-3.3356,-3.3749,-3.4151,-3.3866,-3.3339,-3.3034,-3.2324,-3.1579,-3.1275,-3.1732,-3.2313,-3.2313,-3.2848,-3.3262,-3.2646,-3.2496,-3.2338,-3.1734,0.0,0.0,0.0,0.0,0.0,0.0,-3.1166,-3.1442,-3.1151,-3.1373,-3.185,-3.274,-3.23,-3.2179,-3.2798,-3.2528,-3.2394,-3.2617,-3.3002,-3.3762,-3.5007,-3.4905,-3.5108,-3.5593,-3.5585,-3.5622,-3.5622,-3.5622,-3.6468,-3.8173,-3.7973,-3.8667,-4.007,-4.007,-4.007,-4.007,-4.007,-4.007,-4.007,-4.007,-4.007,-4.007,-4.007,-4.007,-4.007,-4.007,-4.007,-4.007,-2.895,0.0,0.0,0.0,0.0,0.0,0.0,0.0,-2.6452,-2.5315,-2.6572,-2.7685,-2.7829,-2.8308,-2.8936,-2.9759,-2.9071,-2.8951,-2.9774,-2.9252,-2.9009,-2.926,-2.9179,-2.8845,-2.8329,-2.8011,-2.776,-2.7625,0.0,0.0,0.0,0.0,0.0,0.0,-2.7171,-2.7225,-2.7146,-2.781,-2.8246,-2.8625,-2.9147,-2.943,-2.9535,-2.9056,-2.9669,-3.0761,-3.0567,-3.1263,-3.2367,-3.3077,-3.3786,-3.4431,-3.5098,-3.4728,-3.3964,-3.3761,-3.2933,-3.2019,-3.1596,-3.2171,-3.2831,-3.2645,-3.3305,-3.3869,-3.3439,-3.3333,-3.3238,-3.2784,-3.2022,0.0,0.0,0.0,-3.1284,-3.1804,0.0,-3.2069,-3.193,-3.1836,-3.1697,-3.1509,-3.1795,-3.1928,-3.1511,-3.1795,-3.2131,-3.2302,-3.2041,-3.2741,-3.4736,-3.4468,-3.4708,-3.5589,-3.5592,-3.5585,-3.5609,-3.5802,-3.6603,-3.7905,-3.8108,-3.887,-4.007,-4.007,-4.007,-4.007,-4.007,-4.007,-4.007,-4.007,-4.007,-4.007,-4.007,-4.007,-4.007,-4.007,-4.007,-4.007,-2.7894,-2.8091,0.0,0.0,0.0,0.0,-2.6774,-2.7126,-2.7305,-2.6617,-2.7141,-2.7829,-2.8502,-2.8592,-2.9116,-3.0357,-2.9325,-2.9131,-3.0387,-2.9904,-2.9273,-2.8572,-2.9769,-2.9515,-2.7596,-2.8123,-2.8189,-2.7625,0.0,0.0,0.0,0.0,0.0,0.0,-2.6901,-2.7288,-2.8354,-2.7179,-2.7397,-2.8523,-2.8595,-2.9011,-2.9579,-2.9564,-3.0357,-3.1347,-3.0746,-3.0956,-3.164,-3.2382,-3.3093,-3.3735,-3.4431,-3.5065,-3.5402,-3.4675,-3.4421,-3.4066,-3.2628,-3.3305,-3.4252,-3.3541,-3.4472,-3.5509,-3.5509,-3.5493,-3.5509,-3.5481,-3.4435,-3.3686,-3.4363,-3.3343,-3.2452,-3.2578,-3.3031,0.0,0.0,-3.2524,-3.2248,-3.1564,-3.2662,-3.2931,-3.1601,-3.2677,-3.2901,-3.1629,-3.2296,-3.2798,-3.2901,-3.3701,-3.4611,-3.5582,-3.5603,-3.5597,-3.5623,-3.6384,-3.7127,-3.7922,-3.8616,-3.9343,-4.007,-4.007,-4.007,-4.007,-4.007,-4.007,-4.007,-4.007,-4.007,-4.007,-4.007,-4.007,-4.007,-4.007,-4.007,-4.007,-2.8415,0.0,0.0,-2.776,-2.776,-2.7784,-2.7325,-2.7475,-2.7814,-2.8487,-2.8757,-2.949,-3.1031,-3.1195,-3.136,-3.1794,-3.1046,-3.094,-3.1833,-3.1272,-3.1217,-3.1876,-3.1901,-3.155,-3.0894,-3.0196,-2.9706,-2.9517,-2.8616,0.0,0.0,0.0,0.0,0.0,-2.7335,-2.75,-2.7925,-2.7916,-2.8192,-2.8601,-2.9072,-2.9894,-3.0776,-2.9909,-3.0118,-3.0821,-3.0582,-3.0941,-3.1682,-3.2879,-3.3391,-3.3786,-3.4911,-3.5071,-3.4827,-3.4573,-3.415,-3.366,-3.3152,-3.3744,-3.4438,-3.4184,-3.4878,-3.5622,-3.5622,-3.5622,-3.547,-3.5052,-3.4584,-3.42,-3.3989,-3.3892,-3.3886,-3.3924,-3.407,-3.4001,0.0,-3.2886,-3.2488,-3.2175,-3.2129,-3.1936,-3.1524,-3.1524,-3.133,-3.0881,-3.111,-3.1453,-3.1938,-3.2684,-3.3474,-3.4178,-3.4547,-3.4737,-3.474,-3.4988,-3.5877,-3.7367,-3.7003,-3.7719,-3.9343,-3.887,-3.9174,-4.0054,-3.9563,-3.9631,-4.007,-4.007,-4.007,-4.007,-4.007,-4.007,-4.007,-4.007,-4.007,-4.007,-2.9452,-2.9533,-2.9327,-2.784,-2.7784,-2.8023,-2.8248,-2.8472,-2.8921,-2.9804,-3.0118,-3.0851,-3.2347,-3.2721,-3.2766,-3.2542,-3.2764,-3.2867,-3.2633,-3.2903,-3.3227,-3.3565,-3.3372,-3.293,-3.219,-3.1816,-3.1253,-3.0523,-2.9927,-2.9469,0.0,0.0,0.0,0.0,-2.8042,-2.8042,-2.8253,-2.8228,-2.8372,-2.8601,-2.9312,-3.0357,-3.1377,-3.0597,-3.0522,-3.0866,-3.0866,-3.115,-3.1682,-3.2826,-3.3235,-3.3495,-3.48,-3.4918,-3.4578,-3.4834,-3.4556,-3.4134,-3.3863,-3.4336,-3.4827,-3.4556,-3.5064,-3.5622,-3.5622,-3.5622,-3.5554,-3.5402,-3.5124,-3.493,-3.4743,-3.4886,-3.4941,-3.4941,-3.4736,-3.4182,0.0,-3.2478,-3.2176,-3.2142,-3.2357,-3.2268,-3.1602,-3.1561,-3.1273,-3.0576,-3.0483,-3.0904,-3.1751,-3.2064,-3.2538,-3.3227,-3.3771,-3.3964,-3.3825,-3.4507,-3.5438,-3.6636,-3.602,-3.6501,-3.7852,-3.7886,-3.8472,-3.9345,-3.9362,-3.9648,-4.007,-4.007,-4.007,-4.007,-4.007,-4.007,-4.007,-4.007,-4.007,-4.007,-3.0773,-3.0639,-3.0006,-2.8197,-2.8269,-2.8846,-2.9564,-3.0173,-3.0548,-3.0642,-3.1225,-3.1898,-3.2587,-3.3276,-3.3381,-3.2721,-3.4526,-3.4872,-3.2952,-3.463,-3.5103,-3.3779,-3.4248,-3.3604,-3.1583,-3.2949,-3.2676,-3.0617,-3.1308,-3.1276,0.0,0.0,0.0,0.0,-2.8779,-2.8826,-2.9271,-2.8125,-2.7989,-2.8647,-2.932,-3.0357,-3.1482,-3.1482,-3.1482,-3.1482,-3.1482,-3.1482,-3.1582,-3.2327,-3.2586,-3.2841,-3.4137,-3.4576,-3.4736,-3.5362,-3.5577,-3.547,-3.4742,-3.5081,-3.5453,-3.4726,-3.5081,-3.5622,-3.5622,-3.5622,-3.5842,-3.662,-3.6163,-3.5859,-3.6637,-3.6146,-3.5622,-3.5622,-3.5052,-3.3939,-3.1903,-3.1638,-3.1609,-3.1645,-3.3395,-3.3821,-3.1893,-3.2749,-3.2602,-3.068,-3.0563,-3.1021,-3.2222,-3.1834,-3.1912,-3.2676,-3.3123,-3.3212,-3.2827,-3.4638,-3.563,-3.5716,-3.5632,-3.5604,-3.569,-3.713,-3.7857,-3.8041,-3.9345,-4.0003,-4.007,-4.007,-4.007,-4.007,-4.007,-4.007,-4.007,-4.007,-4.007,-4.007,-3.2036,-3.1628,-3.144,-3.1923,-3.0088,-2.916,-3.0791,-3.0815,-3.1144,-3.2586,-3.3391,-3.4132,-3.467,-3.5368,-3.5523,-3.4862,-3.5844,-3.6063,-3.5013,-3.5433,-3.5513,-3.512,-3.5233,-3.4808,-3.3715,-3.4095,-3.3755,-3.2644,-3.2413,-3.1876,-3.1172,0.0,0.0,0.0,-2.9225,-2.9012,-2.8685,-2.8415,-2.8671,-2.935,-2.9537,-3.0357,-3.1482,-3.1482,-3.1482,-3.1482,-3.1482,-3.1482,-3.1582,-3.2327,-3.2586,-3.2749,-3.3582,-3.4186,-3.4624,-3.4783,-3.5207,-3.5571,-3.5385,-3.547,-3.5571,-3.5368,-3.547,-3.5622,-3.5622,-3.5622,-3.5842,-3.662,-3.6163,-3.5859,-3.6637,-3.6146,-3.5622,-3.5622,-3.547,-3.498,-3.389,-3.4181,-3.4326,-3.3807,-3.4213,-3.4131,-3.3157,-3.2434,-3.1815,-3.1275,-3.1255,-3.0974,-3.0273,-3.1551,-3.1911,-3.1132,-3.1682,-3.1977,-3.1841,-3.2353,-3.3119,-3.4146,-3.3084,-3.2966,-3.3662,-3.439,-3.5912,-3.7992,-3.775,-3.8589,-4.007,-4.007,-4.007,-4.007,-4.007,-4.007,-4.007,-4.007,-4.007,-4.007,-3.3355,-3.3438,-3.3842,-3.5178,-3.3124,-3.1689,-3.2719,-3.2318,-3.2532,-3.4241,-3.4806,-3.536,-3.5952,-3.6422,-3.6354,-3.5683,-3.6337,-3.6446,-3.5726,-3.5991,-3.6109,-3.6089,-3.5761,-3.5081,-3.4049,-3.4658,-3.4472,-3.3406,-3.3074,-3.2667,-3.2233,0.0,0.0,0.0,-2.9892,-2.9585,-2.9271,-2.8732,-2.9088,-2.9968,-2.9684,-3.0357,0.0,-3.1482,-3.1482,-3.1482,-3.1482,-3.1482,-3.1582,-3.1951,-3.212,-3.2216,-3.2933,-3.3443,-3.3786,-3.4087,-3.464,-3.5144,-3.5144,-3.5362,-3.5622,-3.5622,-3.5622,-3.5622,-3.5622,-3.5622,-3.5926,-3.7043,-3.6654,-3.6366,-3.7127,-3.6654,-3.5903,-3.5258,-3.494,-3.448,-3.3773,-3.3989,-3.422,-3.4102,-3.4341,-3.4494,-3.4478,-3.2899,-3.167,-3.1037,-3.1323,-3.1118,-3.0354,-3.1426,-3.1716,-3.0904,-3.1516,-3.1781,-3.1482,-3.1142,-3.1516,-3.2647,-3.1323,-3.1256,-3.2307,-3.2569,-3.4091,-3.66,-3.7779,-3.8773,-3.9631,-3.9952,-4.007,-4.007,-4.007,-4.007,-4.007,-4.007,-4.007,-4.007,-3.4535,-3.5492,-3.6416,-3.7449,-3.6279,-3.5208,-3.5247,-3.4506,-3.4414,-3.5657,-3.5922,-3.6248,-3.6765,-3.6934,-3.6676,-3.5829,-3.653,-3.6603,-3.5652,-3.6222,-3.6541,-3.6577,-3.5873,-3.4835,-3.3415,-3.4759,-3.4793,-3.3406,-3.3508,-3.3491,0.0,0.0,0.0,0.0,-3.0658,-3.0351,-3.0123,-2.8967,-2.923,-3.0342,-2.9879,-3.0432,-3.1482,-3.1482,-3.1482,-3.1482,-3.1482,-3.1482,-3.1482,-3.1482,-3.1482,-3.1582,-3.2272,-3.2547,-3.2695,-3.3287,-3.3987,-3.4576,-3.4576,-3.5098,-3.5622,-3.5622,-3.5622,-3.5622,-3.5622,-3.5622,-3.6028,-3.7466,-3.7246,-3.7009,-3.777,-3.7297,-3.6397,-3.5096,-3.4319,-3.3719,-3.334,-3.3055,-3.3238,-3.401,-3.4381,0.0,-3.5491,-3.3812,-3.2177,-3.0948,-3.1417,-3.1605,-3.1325,-3.1524,-3.1515,-3.1275,-3.1813,-3.1916,-3.1489,-3.0715,-3.0609,-3.1162,-3.0291,-3.0335,-3.1237,-3.141,-3.2602,-3.4675,-3.8041,-3.9311,-3.9056,-3.9783,-4.002,-3.9952,-4.0037,-4.002,-3.9952,-4.0037,-4.007,-4.007,-3.5291,-3.6544,-3.7351,-3.6979,-3.708,-3.7464,-3.8079,-3.7138,-3.6442,-3.6573,-3.7598,-3.8163,-3.7687,-3.8179,-3.7975,-3.671,-3.7751,-3.7681,-3.5742,-3.5711,-3.5807,-3.5796,-3.5129,-3.4366,-3.3415,-3.4252,-3.4269,-3.3406,-3.4015,-3.3998,0.0,0.0,0.0,0.0,-3.1095,-3.0477,-2.9483,-2.8885,-2.9027,-2.9774,-3.0178,-3.0821,-3.1482,-3.1482,-3.1482,-3.1482,-3.1482,-3.1482,-3.1482,-3.1482,-3.1482,-3.1524,-3.164,-3.212,-3.2641,-3.2749,-3.3633,-3.4576,-3.4576,-3.5098,-3.5622,-3.5622,-3.5622,-3.5622,-3.5622,-3.5622,-3.5876,-3.6789,-3.6874,-3.7009,-3.777,-3.7297,-3.6738,-3.643,-3.5773,-3.566,-3.681,-3.5866,-3.5497,-3.6697,-3.5828,-3.5203,-3.5341,-3.4619,-3.4037,-3.3785,-3.3345,-3.255,-3.144,-3.1921,-3.1718,-3.0593,-3.0729,-3.1004,-3.142,-3.1344,-3.0627,-2.9351,-3.058,-3.0711,-2.9971,-3.1031,-3.2129,-3.3309,-3.5568,-3.7469,-3.9056,-3.9783,-3.9715,-3.9242,-3.9834,-3.9715,-3.9259,-3.9868,-4.007,-4.007,-3.6222,-3.7428,-3.8421,-3.8438,-3.8446,-3.8689,-3.9439,-3.9008,-3.8438,-3.8027,-3.822,-3.8302,-3.7887,-3.8166,-3.7949,-3.6873,-3.6702,-3.6377,-3.5644,-3.5241,-3.52,-3.557,-3.5302,-3.4742,-3.4015,-3.3947,-3.3947,-3.3964,-3.3541,-3.3355,0.0,-3.3,-3.2239,-3.119,-3.119,-3.0916,-3.0372,-3.0163,-3.0242,-3.0586,-3.0906,-3.1248,-3.1482,-3.1482,-3.1482,-3.1482,-3.1482,-3.1482,-3.1482,-3.1482,-3.1482,-3.1482,-3.1482,-3.1739,-3.2007,-3.2007,-3.2772,-3.3531,-3.3531,-3.4053,-3.4657,-3.5005,-3.48,-3.4752,-3.5424,-3.5316,-3.5425,-3.6557,-3.7094,-3.7483,-3.7838,-3.7297,-3.6772,-3.6772,-3.6468,-3.6485,-3.7229,-3.6688,-3.6406,-3.6886,-3.5907,-3.5531,-3.6208,-3.5623,-3.4726,-3.3431,-3.3017,-3.2394,-3.1349,-3.1959,-3.1874,-3.0875,-3.1229,-3.127,-3.0954,-3.0975,-3.0517,-2.9549,-2.9954,-2.994,-2.9637,-3.0933,-3.2151,-3.3337,-3.4984,-3.6854,-3.8865,-3.9748,-3.9648,-3.9056,-3.9783,-3.9631,-3.9089,-3.9817,-4.007,-4.007,-3.7155,-3.8195,-3.936,-3.9766,-3.9512,-3.9411,-3.9986,-4.007,-3.9868,-3.9292,-3.8773,-3.8403,-3.8381,-3.8379,-3.7901,-3.6834,-3.5841,-3.5305,-3.5361,-3.4695,-3.4707,-3.5563,-3.5349,-3.4952,-3.4523,-3.3778,-3.3694,-3.4269,-3.3085,-3.2831,-3.3389,-3.2966,-3.2273,-3.1427,-3.1291,-3.1291,-3.1336,-3.138,-3.1501,-3.1659,-3.1772,-3.1719,-3.1471,-3.1372,-3.124,-3.1135,-3.127,-3.1315,-3.1345,-3.1422,-3.1482,-3.1482,-3.1482,-3.1482,-3.1482,-3.1482,-3.2007,-3.2586,-3.2586,-3.3093,-3.3735,-3.4235,-3.3987,-3.3887,-3.5115,-3.4988,-3.4949,-3.6291,-3.7127,-3.7719,-3.7872,-3.7297,-3.6823,-3.6992,-3.6738,-3.6654,-3.6975,-3.6738,-3.6553,-3.6568,-3.5844,-3.5727,-3.6753,-3.606,-3.4832,-3.2968,-3.2775,-3.2457,-3.1879,-3.2133,-3.2051,-3.151,-3.1924,-3.172,-3.093,-3.0639,-3.039,-3.0253,-2.9431,-2.941,-3.0045,-3.1018,-3.2402,-3.4063,-3.512,-3.6854,-3.8982,-3.9596,-3.9411,-3.8836,-3.9563,-3.9411,-3.887,-3.9931,-4.0286,-4.0286,-3.7863,-3.8938,-3.9783,-3.9191,-3.958,-4.0003,-4.007,-4.007,-4.0054,-3.9986,-3.9919,-3.9885,-3.9884,-3.9868,-3.9043,-3.6951,-3.7242,-3.6678,-3.4814,-3.4015,-3.4202,-3.5546,-3.4457,-3.4023,-3.4506,-3.3778,-3.344,-3.3508,-3.3372,-3.3339,-3.3423,-3.4015,-3.3525,-3.2171,-3.1624,-3.1384,-3.1396,-3.1431,-3.1871,-3.249,-3.2498,-3.2114,-3.1512,-3.0875,-3.0253,-2.9834,-3.0402,-3.0597,-3.0702,-3.133,-3.1482,-3.1482,-3.1482,-3.1482,-3.1482,-3.1482,-3.2007,-3.2586,-3.2586,-3.3093,-3.3649,-3.3684,-3.3633,-3.3786,-3.4544,-3.464,-3.48,-3.5554,-3.6349,-3.7094,-3.7787,-3.7297,-3.7009,-3.7702,-3.6637,-3.6214,-3.7601,-3.6603,-3.6053,-3.6921,-3.6315,-3.5794,-3.5687,-3.4979,-3.4533,-3.4571,-3.4237,-3.3986,-3.3917,-3.2878,-3.2273,-3.2191,-3.1748,-3.1731,-3.224,-3.1019,-3.0417,-3.037,-3.01,-3.0432,-3.1326,-3.1261,-3.2769,-3.5426,-3.5559,-3.7267,-3.9935,-3.9326,-3.8667,-3.8091,-3.8802,-3.865,-3.8207,-4.0139,-4.0827,-4.0903,-3.8599,-3.9007,-3.9478,-3.9614,-3.9529,-3.958,-4.0003,-4.007,-4.007,-4.007,-4.007,-3.9918,-3.9478,-3.9039,-3.8248,-3.6913,-3.624,-3.5696,-3.5232,-3.4153,-3.3982,-3.4972,-3.4497,-3.43,-3.4555,-3.3809,-3.3626,-3.4066,-3.3626,-3.3406,-3.3406,-3.3694,-3.3288,-3.2307,-3.2522,-3.2579,-3.2629,-3.3112,-3.3258,-3.316,-3.3144,-3.251,-3.1533,-3.0799,-3.0137,-2.9609,-2.9864,-3.0193,-3.0552,-3.0821,-3.1195,-3.1482,-3.1482,-3.1482,-3.1482,-3.1482,-3.1396,-3.142,-3.1845,-3.1839,-3.2028,-3.328,-3.3287,-3.3391,-3.4847,-3.4894,-3.4783,-3.547,-3.6231,-3.6874,-3.7178,-3.6992,-3.6874,-3.7178,-3.6721,-3.6535,-3.7144,-3.6553,-3.6118,-3.635,-3.5527,-3.522,-3.5897,-3.5702,-3.5788,-3.6377,-3.4833,-3.4092,-3.4585,-3.3665,-3.3439,-3.4077,-3.2485,-3.1907,-3.2451,-3.1034,-3.0138,-2.9838,-3.0516,-3.1324,-3.2131,-3.3143,-3.4338,-3.5676,-3.75,-3.9002,-4.0086,-3.9795,-3.8973,-3.8024,-3.9191,-3.9129,-3.8562,-4.0274,-4.1133,-4.149,-3.9368,-3.9311,-3.9478,-3.9986,-3.9648,-3.9478,-4.0003,-4.007,-4.007,-4.007,-4.007,-3.98,-3.9073,-3.8345,-3.7601,-3.684,-3.586,-3.5349,-3.5577,-3.435,-3.3887,-3.4576,-3.4235,-3.4088,-3.4279,-3.3517,-3.3268,-3.3597,-3.3237,-3.2984,-3.2858,-3.3423,-3.344,-3.2949,-3.3254,-3.3406,-3.344,-3.3964,-3.4007,-3.3769,-3.3568,-3.2821,-3.1776,-3.0848,-3.0072,-2.9541,-2.9546,-2.9872,-3.0226,-3.0218,-3.0552,-3.0986,-3.118,-3.1106,-3.0956,-3.0956,-3.0612,-3.0372,-3.1046,-3.1035,-3.1235,-3.2903,-3.3093,-3.3303,-3.4958,-3.4941,-3.4783,-3.547,-3.6062,-3.6502,-3.6738,-3.6586,-3.6502,-3.6738,-3.6586,-3.6525,-3.6644,-3.6251,-3.5936,-3.5794,-3.5106,-3.4987,-3.5823,-3.5917,-3.6266,-3.7074,-3.5494,-3.4658,-3.5095,-3.4426,-3.4358,-3.5147,-3.333,-3.2593,-3.3195,-3.1702,-3.0845,-3.0659,-3.1607,-3.2593,-3.3576,-3.5205,-3.6142,-3.6636,-3.8921,-3.9905,-3.9909,-4.0054,-3.9485,-3.8564,-3.873,-3.8628,-3.8676,-4.0622,-4.1594,-4.2009,-4.007,-4.007,-4.007,-4.007,-4.007,-4.007,-4.007,-4.007,-4.007,-4.007,-4.007,-3.98,-3.9073,-3.8345,-3.7601,-3.684,-3.6772,-3.6434,-3.5673,-3.435,-3.3887,-3.4576,-3.3339,-3.2882,-3.3508,-3.28,-3.2105,-3.1424,-3.2026,-3.2009,-3.1483,-3.3547,-3.4472,-3.4438,-3.3728,-3.3406,-3.3406,-3.3423,-3.3829,-3.4445,-3.3769,-3.3093,-3.234,-3.0921,-2.9984,-2.9428,-2.9481,-2.95,-2.9508,-2.9569,-2.9594,-2.9714,-3.0313,-3.0103,-2.9609,-2.9609,-2.9609,-2.9729,-3.0342,-3.1043,-3.1734,-3.2416,-3.3093,-3.3786,-3.4431,-3.4624,-3.4783,-3.547,-3.5622,-3.5876,-3.6637,-3.6146,-3.5876,-3.6654,-3.6129,-3.58,-3.6308,-3.5734,-3.529,-3.5475,-3.5497,-3.5349,-3.5054,-3.5009,-3.5385,-3.6248,-3.6285,-3.6054,-3.5612,-3.5079,-3.4783,-3.4801,-3.4023,-3.3969,-3.4783,-3.3244,-3.2855,-3.3632,-3.3684,-3.4447,-3.6023,-3.7159,-3.8046,-3.8677,-3.9203,-3.9398,-3.9452,-3.9922,-4.0078,-3.9777,-3.6814,-3.6582,-3.8274,-4.1266,-4.2382,-4.2515,-4.007,-4.007,-4.007,-4.007,-4.007,-4.007,-4.007,-4.007,-4.007,-4.007,-3.9175,-3.8448,-3.8216,-3.7586,-3.7053,-3.6804,-3.5465,-3.4496,-3.4268,-3.3391,-3.2986,-3.3251,-3.2388,-3.1992,-3.2222,-3.1951,-3.1659,-3.1463,-3.1665,-3.1647,-3.1424,-3.2575,-3.3098,-3.3,-3.3271,-3.3406,-3.344,-3.3931,-3.3998,-3.3744,-3.3513,-3.274,-3.1671,-3.0686,-2.9955,-2.9393,-2.9434,-2.9737,-3.0117,-3.016,-3.0141,-3.0123,-2.9904,-2.9713,-2.9579,-2.9579,-2.9554,-2.9674,-3.0317,-3.0612,-3.1053,-3.2192,-3.2626,-3.3088,-3.423,-3.4947,-3.5362,-3.5577,-3.5622,-3.569,-3.5943,-3.5791,-3.5824,-3.644,-3.6294,-3.6333,-3.6882,-3.604,-3.5631,-3.6258,-3.5623,-3.5371,-3.5834,-3.6066,-3.6496,-3.732,-3.8115,-3.7817,-3.6157,-3.6604,-3.7003,-3.717,-3.6142,-3.6043,-3.7053,-3.4963,-3.4256,-3.4857,-3.476,-3.5639,-3.7308,-3.8047,-3.8891,-3.9802,-4.0326,-4.0745,-4.1042,-4.1176,-4.08,-4.0013,-3.9055,-3.9126,-3.9997,-4.1434,-4.249,-4.3177,-4.007,-4.007,-4.007,-4.007,-4.007,-4.007,-4.007,-4.007,-4.007,-4.007,-3.8985,-3.8196,-3.8196,-3.6922,-3.5995,-3.598,-3.4497,-3.3582,-3.3582,-3.2986,-3.2586,-3.2586,-3.1666,-3.119,-3.1192,-3.0882,-3.0639,-3.037,-3.037,-3.075,-3.143,-3.1896,-3.2177,-3.2387,-3.2799,-3.2983,-3.3017,-3.3474,-3.3406,-3.2983,-3.2983,-3.2303,-3.1275,-3.0825,-3.0228,-2.9678,-2.9708,-3.0008,-3.0335,-3.0108,-3.0016,-2.997,-2.9564,-2.9474,-2.9511,-2.927,-2.9304,-2.9626,-3.0266,-3.064,-3.1102,-3.2479,-3.28,-3.3017,-3.3895,-3.4455,-3.4861,-3.5148,-3.5199,-3.5284,-3.5571,-3.5783,-3.6028,-3.635,-3.658,-3.6865,-3.7396,-3.659,-3.6212,-3.6898,-3.6364,-3.6156,-3.6688,-3.6888,-3.7246,-3.7851,-3.8865,-3.864,-3.6749,-3.786,-3.8495,-3.834,-3.7324,-3.7237,-3.8201,-3.6452,-3.591,-3.6528,-3.6611,-3.7253,-3.835,-3.8572,-3.908,-3.9768,-4.0689,-4.0915,-4.0726,-4.1917,-4.1998,-4.1268,-4.0411,-4.0498,-4.1194,-4.18,-4.2641,-4.3497,-4.007,-4.007,-4.007,-4.007,-4.007,-4.007,-4.007,-4.007,-4.007,-4.002,-3.9315,-3.8799,-3.8745,-3.6308,-3.4644,-3.4498,-3.3873,-3.3427,-3.3427,-3.2879,-3.2516,-3.247,-3.1167,-3.0392,-3.0392,-2.9805,-2.9203,-2.857,-2.8508,-2.9468,-3.131,-3.1222,-3.16,-3.2314,-3.2244,-3.2188,-3.2246,-3.2256,-3.2297,-3.2246,-3.2256,-3.185,-3.119,-3.119,-3.0768,-3.0184,-3.0327,-3.0335,-3.0293,-2.9717,-2.954,-2.954,-2.9496,-2.9496,-2.9406,-2.8732,-2.9012,-2.9595,-3.0206,-3.0884,-3.1698,-3.3007,-3.3362,-3.3423,-3.3474,-3.3525,-3.3761,-3.4421,-3.4617,-3.482,-3.5531,-3.6097,-3.6457,-3.6498,-3.6904,-3.7396,-3.7911,-3.7259,-3.6939,-3.7521,-3.7544,-3.7514,-3.7599,-3.7544,-3.7681,-3.8029,-3.8831,-3.8783,-3.7629,-3.9069,-3.9482,-3.8553,-3.7934,-3.7972,-3.8726,-3.7915,-3.7858,-3.8512,-3.8964,-3.9173,-3.9173,-3.8907,-3.881,-3.8985,-4.0478,-4.0313,-3.9288,-4.2268,-4.3465,-4.3219,-4.1038,-4.0836,-4.1821,-4.2145,-4.2759,-4.3406,-4.007,-4.007,-4.007,-4.007,-4.007,-4.007,-4.007,-4.007,-3.9901,-3.9246,-3.8541,-3.7847,-3.7188,-3.5584,-3.4318,-3.3817,-3.2676,-3.1992,-3.1992,-3.1838,-3.1498,-3.1026,-3.0243,-2.9597,-2.9078,-2.9411,-2.9516,-2.935,-2.8852,-2.8763,-2.9217,-2.9187,-2.9788,-3.0803,-3.0808,-3.1048,-3.1495,-3.2036,-3.1968,-3.1495,-3.2053,-3.185,-3.119,-3.119,-3.1089,-3.0954,-3.1004,-3.0975,-3.0975,-3.0838,-3.0781,-3.0699,-3.0208,-3.0393,-3.0559,-2.9496,-2.9629,-3.0113,-3.0277,-3.0784,-3.1311,-3.1664,-3.2555,-3.3558,-3.4117,-3.4692,-3.5148,-3.5318,-3.5668,-3.6,-3.619,-3.6643,-3.7135,-3.7488,-3.7649,-3.7911,-3.8433,-3.7802,-3.7607,-3.834,-3.7863,-3.7734,-3.8358,-3.8042,-3.8358,-3.963,-3.984,-4.0262,-4.1201,-4.1915,-4.1494,-3.9757,-4.0997,-4.1796,-4.1989,-4.1144,-4.0366,-3.9697,-3.9927,-4.0002,-4.0021,-3.9736,-4.0162,-4.1137,-4.1111,-4.1574,-4.2404,-4.3173,-4.316,-4.2544,-4.1363,-4.1149,-4.1443,-4.1141,-4.1699,-4.258,-3.9489,-3.9542,-3.9662,-4.002,-4.007,-4.007,-4.007,-4.007,-3.9782,-3.9032,-3.8246,-3.7515,-3.6661,-3.5047,-3.3888,-3.3529,-3.2557,-3.1854,-3.1497,-3.1482,-3.1225,-3.0537,-2.9909,-2.928,-2.8607,-2.8652,-2.8816,-2.9131,-2.8457,-2.8288,-2.8564,-2.8521,-2.8826,-2.9496,-2.9761,-3.0208,-3.0814,-3.1215,-3.1328,-3.1224,-3.163,-3.1343,-3.0734,-3.1072,-3.0987,-3.0734,-3.1072,-3.119,-3.119,-3.119,-3.1015,-3.074,-3.0393,-3.0351,-3.0293,-2.9935,-3.0251,-3.0699,-3.0699,-3.0958,-3.119,-3.119,-3.2307,-3.3423,-3.3474,-3.4066,-3.4735,-3.5343,-3.569,-3.6082,-3.6654,-3.7173,-3.7614,-3.7859,-3.8099,-3.8382,-3.8658,-3.8322,-3.8212,-3.8652,-3.8303,-3.8212,-3.867,-3.8446,-3.8683,-3.9667,-4.0391,-4.1052,-4.1677,-4.3031,-4.3061,-4.1511,-4.2535,-4.3104,-4.3104,-4.2624,-4.1986,-4.1186,-4.116,-4.1025,-4.0896,-4.0585,-4.0427,-4.044,-4.0888,-4.2014,-4.3497,-4.3497,-4.3266,-4.2777,-4.15,-4.1178,-4.1339,-4.0455,-4.0721,-4.1596,-3.8635,-3.8799,-3.9139,-3.9782,-3.9901,-3.9952,-4.007,-4.002,-3.961,-3.8854,-3.8206,-3.7456,-3.6554,-3.4773,-3.3649,-3.3649,-3.2961,-3.2243,-3.1511,-3.1482,-3.1225,-3.0537,-2.9998,-2.937,-2.8622,-2.7919,-2.7964,-2.8742,-2.7964,-2.7874,-2.8427,-2.8366,-2.8415,-2.8511,-2.9058,-2.9585,-3.0149,-3.0136,-3.0451,-3.0886,-3.0864,-3.0497,-3.0006,-3.0632,-3.0492,-3.0061,-3.0762,-3.105,-3.1055,-3.1055,-3.0699,-3.0293,-3.0208,-2.9805,-2.954,-3.0123,-3.0658,-3.1095,-3.119,-3.119,-3.1224,-3.1326,-3.2391,-3.3271,-3.273,-3.3203,-3.4024,-3.5122,-3.5469,-3.5915,-3.7011,-3.7649,-3.805,-3.8176,-3.8488,-3.8744,-3.8854,-3.8781,-3.8707,-3.8707,-3.8817,-3.8891,-3.8891,-3.9001,-3.9227,-3.9547,-4.0821,-4.1511,-4.1306,-4.329,-4.4071,-4.3348,-4.3328,-4.3328,-4.3328,-4.3212,-4.2967,-4.2629,-4.2351,-4.2058,-4.1789,-4.1451,-4.0613,-3.9486,-4.0693,-4.209,-4.3497,-4.3497,-4.3424,-4.3169,-4.1542,-4.0978,-4.0997,-3.9743,-3.9851,-4.057,-3.7921,-3.8469,-3.8962,-3.9086,-3.9086,-3.9315,-4.002,-3.9542,-3.8816,-3.8092,-3.7863,-3.7235,-3.5846,-3.485,-3.4322,-3.4322,-3.3215,-3.2243,-3.1511,-3.1482,-3.1225,-3.0537,-3.0417,-2.9804,-2.8622,-2.7919,-2.8188,-2.943,-2.8188,-2.7619,-2.7775,-2.772,-2.7993,-2.8511,-2.8606,-2.895,-2.9536,-2.941,-2.9411,-2.9483,-2.94,-2.9245,-2.9161,-2.9279,-2.9336,-2.944,-3.0056,-3.0359,-3.0435,-3.0435,-3.0393,-3.0208,-2.9717,-2.9496,-2.954,-3.0123,-3.0393,-3.0559,-3.1055,-3.119,-3.1343,-3.1952,-3.2763,-3.3541,-3.4032,-3.4726,-3.5301,-3.5491,-3.6266,-3.6955,-3.7155,-3.7929,-3.8797,-3.9475,-3.9098,-3.8946,-3.9625,-3.9129,-3.8707,-3.8707,-3.9294,-3.9698,-3.9698,-4.0341,-4.1052,-4.176,-4.1668,-4.2153,-4.3423,-4.349,-4.3756,-4.4354,-4.4354,-4.4354,-4.4354,-4.3653,-4.3226,-4.3177,-4.2847,-4.2656,-4.2616,-4.2281,-4.2344,-4.2713,-4.2054,-4.2436,-4.3497,-4.3497,-4.3094,-4.2417,-4.1633,-4.0564,-3.9373,-3.8709,-3.9014,-3.9709,-3.71,-3.7424,-3.7831,-3.8246,-3.8318,-3.843,-3.8816,-3.8541,-3.8019,-3.7263,-3.7144,-3.6613,-3.5093,-3.4352,-3.3799,-3.344,-3.2542,-3.1854,-3.1497,-3.1482,-3.1076,-3.0058,-3.0013,-2.9385,-2.8068,-2.779,-2.7874,-2.8502,-2.7874,-2.7625,-2.7625,-2.7625,-2.776,-2.8008,-2.8008,-2.8367,-2.8872,-2.8462,-2.8447,-2.8737,-2.8319,-2.8157,-2.8157,-2.8157,-2.8197,-2.8323,-2.8936,-2.8993,-2.8786,-2.9134,-2.9049,-2.8726,-2.8474,-2.8154,-2.8155,-2.9428,-3.0267,-3.0838,-3.1112,-3.119,-3.1376,-3.2104,-3.2848,-3.3592,-3.432,-3.5081,-3.5694,-3.5985,-3.6643,-3.7285,-3.7542,-3.8201,-3.8964,-3.9772,-3.9221,-3.8982,-3.979,-3.957,-3.935,-3.935,-4.0065,-4.0561,-4.0561,-4.0891,-4.1258,-4.1644,-4.1843,-4.2303,-4.3042,-4.3305,-4.3583,-4.4004,-4.4392,-4.458,-4.458,-4.4202,-4.389,-4.3671,-4.3517,-4.3342,-4.3158,-4.303,-4.3149,-4.3461,-4.2983,-4.3057,-4.3497,-4.3497,-4.2947,-4.2051,-4.148,-4.0203,-3.8685,-3.838,-3.845,-3.8755,-3.6228,-3.6492,-3.6783,-3.7397,-3.7706,-3.7863,-3.8035,-3.8035,-3.779,-3.6964,-3.7024,-3.6535,-3.4883,-3.4164,-3.3578,-3.3006,-3.2093,-3.1541,-3.1691,-3.1556,-3.1016,-2.9849,-2.9654,-2.9101,-2.8105,-2.7889,-2.7814,-2.7814,-2.77,-2.7625,-2.7625,-2.7625,-2.7625,-2.7625,-2.7625,-2.7769,-2.801,-2.7643,-2.7572,-2.7662,-2.7288,-2.7008,-2.6905,-2.6905,-2.699,-2.7243,-2.7737,-2.7694,-2.7482,-2.7853,-2.7658,-2.7255,-2.7088,-2.684,-2.6898,-2.8629,-3.0119,-3.1241,-3.1393,-3.1444,-3.1579,-3.2178,-3.2966,-3.3761,-3.415,-3.4962,-3.579,-3.638,-3.7026,-3.7589,-3.7918,-3.8704,-3.9405,-3.9827,-3.9533,-3.9478,-4.0084,-4.0175,-4.0175,-4.0175,-4.0891,-4.1387,-4.1387,-4.1552,-4.1662,-4.1662,-4.2231,-4.258,-4.258,-4.3149,-4.3497,-4.3497,-4.4035,-4.4337,-4.4337,-4.4337,-4.4194,-4.3881,-4.3881,-4.3758,-4.3497,-4.3497,-4.3497,-4.3497,-4.3497,-4.3497,-4.3497,-4.3497,-4.3002,-4.2213,-4.1552,-4.0184,-3.8553,-3.8567,-3.8391,-3.8275,-3.5554,-3.6102,-3.6615,-3.6676,-3.7322,-3.8035,-3.869,-3.8799,-3.858,-3.7806,-3.8302,-3.7873,-3.5657,-3.4912,-3.4526,-3.434,-3.2617,-3.1735,-3.2407,-3.181,-3.121,-3.0462,-2.9894,-2.9535,-2.943,-2.8831,-2.8532,-2.8532,-2.7874,-2.7625,-2.7625,-2.7625,-2.7625,-2.7625,-2.7625,-2.728,-2.6744,-2.7241,-2.67,-2.5668,-2.6122,-2.5934,-2.5365,-2.5365,-2.5835,-2.6461,-2.6459,-2.6904,-2.7423,-2.6832,-2.6601,-2.6468,-2.5939,-2.6062,-2.6667,-2.806,-2.9749,-3.1343,-3.2019,-3.2205,-3.2246,-3.2313,-3.3355,-3.4252,-3.3626,-3.459,-3.5825,-3.6581,-3.76,-3.8309,-3.827,-3.9715,-4.0708,-4.001,-4.0487,-4.0946,-4.102,-4.102,-4.102,-4.102,-4.1717,-4.2213,-4.2213,-4.2892,-4.3314,-4.3314,-4.3369,-4.3406,-4.3406,-4.3461,-4.3497,-4.3497,-4.3548,-4.3563,-4.3563,-4.3563,-4.3582,-4.3548,-4.3548,-4.3513,-4.3497,-4.3497,-4.3497,-4.3497,-4.3497,-4.3497,-4.3497,-4.3497,-4.3456,-4.3269,-4.2249,-4.0709,-3.9098,-3.9332,-3.9216,-3.892,-3.5504,-3.5733,-3.6054,-3.6492,-3.6843,-3.7322,-3.8076,-3.8189,-3.8149,-3.7806,-3.7649,-3.703,-3.5775,-3.5037,-3.4281,-3.338,-3.2604,-3.2114,-3.1884,-3.127,-3.0612,-2.9968,-2.931,-2.8771,-2.8389,-2.8098,-2.7964,-2.7964,-2.7694,-2.7625,-2.7625,-2.7625,-2.7625,-2.7625,-2.7625,-2.72,-2.6606,-2.6376,-2.5758,-2.4879,-2.4683,-2.443,-2.4245,-2.4675,-2.4777,-2.4861,-2.6486,-2.6404,-2.573,-2.6666,-2.6672,-2.6283,-2.6045,-2.613,-2.655,-2.79,-2.9353,-3.0784,-3.1968,-3.2313,-3.2493,-3.3423,-3.4083,-3.4539,-3.4726,-3.5216,-3.5915,-3.7075,-3.7877,-3.8617,-3.9385,-4.0415,-4.1167,-4.135,-4.124,-4.1277,-4.1772,-4.1846,-4.1846,-4.1846,-4.2543,-4.3039,-4.3039,-4.3314,-4.3497,-4.3497,-4.3497,-4.3497,-4.3497,-4.3497,-4.3497,-4.3497,-4.3497,-4.3497,-4.3497,-4.3497,-4.3497,-4.3497,-4.3497,-4.3497,-4.3497,-4.3497,-4.3497,-4.3497,-4.3497,-4.3497,-4.3497,-4.3497,-4.2919,-4.2014,-4.2159,-4.1363,-4.0112,-3.9765,-3.9359,-3.9056,-3.6196,-3.6196,-3.6368,-3.6919,-3.7188,-3.7483,-3.8076,-3.8374,-3.843,-3.8206,-3.7741,-3.707,-3.6149,-3.5198,-3.4181,-3.2982,-3.2505,-3.2064,-3.1524,-3.1091,-3.0357,-2.9325,-2.9041,-2.8487,-2.764,-2.7784,-2.7784,-2.7625,-2.7415,-2.7415,-2.7625,-2.7365,-2.743,-2.7625,-2.7625,-2.7096,-2.6273,-2.6019,-2.53,-2.4283,-2.4029,-2.3789,-2.3655,-2.4118,-2.4221,-2.4349,-2.5947,-2.5851,-2.5152,-2.6261,-2.6318,-2.5895,-2.5895,-2.6318,-2.7097,-2.8423,-2.9743,-3.1004,-3.2019,-3.2628,-3.3169,-3.3947,-3.4506,-3.4928,-3.5199,-3.5453,-3.6027,-3.7411,-3.8268,-3.91,-4.0175,-4.1196,-4.1882,-4.1919,-4.1882,-4.1974,-4.2268,-4.2525,-4.2671,-4.2671,-4.3149,-4.3497,-4.3497,-4.3497,-4.3497,-4.3497,-4.3497,-4.341,-4.325,-4.341,-4.341,-4.325,-4.341,-4.3497,-4.3497,-4.3497,-4.3497,-4.3497,-4.3497,-4.3497,-4.3497,-4.3497,-4.3497,-4.3497,-4.3497,-4.3373,-4.3159,-4.3159,-4.2631,-4.1887,-4.2142,-4.1529,-4.0558,-4.0245,-3.9825,-3.9411,-3.7822,-3.7822,-3.7822,-3.7822,-3.8414,-3.8908,-3.8908,-3.961,-3.9782,-3.9016,-3.8974,-3.8421,-3.6862,-3.5486,-3.4371,-3.3588,-3.2258,-3.1524,-3.1482,-3.1482,-3.0657,-2.8697,-2.9235,-2.8951,-2.7655,-2.8248,-2.8263,-2.7625,-2.6916,-2.6931,-2.7595,-2.6901,-2.6931,-2.761,-2.761,-2.6826,-2.5644,-2.6303,-2.542,-2.3655,-2.4343,-2.4208,-2.3595,-2.361,-2.4346,-2.5308,-2.4653,-2.5168,-2.6118,-2.5438,-2.5237,-2.5221,-2.5221,-2.659,-2.8478,-2.9719,-3.114,-3.2313,-3.2313,-3.3355,-3.432,-3.3592,-3.4523,-3.5419,-3.4675,-3.5081,-3.6062,-3.7601,-3.8834,-3.982,-4.0477,-4.221,-4.2965,-4.1354,-4.2451,-4.3204,-4.2415,-4.3002,-4.3497,-4.3479,-4.3479,-4.3497,-4.3497,-4.3497,-4.3497,-4.3497,-4.3497,-4.325,-4.275,-4.3214,-4.325,-4.2711,-4.3214,-4.3497,-4.3497,-4.3497,-4.3497,-4.3497,-4.3497,-4.3497,-4.3497,-4.3497,-4.3497,-4.3497,-4.3497,-4.3069,-4.2402,-4.2402,-4.2835,-4.3362,-4.225,-4.1095,-4.021,-4.092,-4.0714,-4.007,-3.7822,-3.7822,-3.7978,-3.8469,-3.8745,-3.9086,-3.9662,-3.9952,-4.002,-3.9782,-3.884,-3.8065,-3.7569,-3.6237,-3.4873,-3.3678,-3.3187,-3.2555,-3.1582,-3.1076,-3.0357,-2.934,-2.9475,-2.8951,-2.7655,-2.7784,-2.7784,-2.7625,-2.743,-2.7141,-2.6871,-2.6677,-2.6452,-2.6198,-2.6198,-2.5719,-2.4881,-2.5136,-2.4582,-2.3625,-2.3819,-2.3789,-2.3683,-2.4539,-2.4795,-2.4891,-2.6423,-2.6568,-2.6258,-2.747,-2.7717,-2.7607,-2.8117,-2.8715,-2.9296,-2.9929,-3.0412,-3.097,-3.2002,-3.2983,-3.3795,-3.41,-3.4895,-3.5554,-3.5334,-3.5453,-3.6163,-3.8081,-3.908,-3.9979,-4.1209,-4.2261,-4.2776,-4.2322,-4.2273,-4.2354,-4.2538,-4.2436,-4.2444,-4.2902,-4.2939,-4.3105,-4.3444,-4.3497,-4.3497,-4.3497,-4.3497,-4.325,-4.275,-4.3214,-4.325,-4.2711,-4.3214,-4.3497,-4.3497,-4.3497,-4.3497,-4.3497,-4.3497,-4.3497,-4.3497,-4.3497,-4.3497,-4.3497,-4.3497,-4.3142,-4.2546,-4.1857,-4.17,-4.1821,-4.0941,-4.0405,-4.0116,-4.0336,-4.0288,-4.007,-3.8723,-3.8723,-3.8832,-3.9315,-3.9368,-3.9558,-4.002,-4.007,-3.9969,-3.9681,-3.8633,-3.7787,-3.7499,-3.6101,-3.5011,-3.4493,-3.3946,-3.3161,-3.2023,-3.1035,-3.0223,-2.9609,-2.934,-2.8682,-2.764,-2.7625,-2.7625,-2.7625,-2.7051,-2.6722,-2.6572,-2.6063,-2.5734,-2.5615,-2.5615,-2.5241,-2.4582,-2.4582,-2.4223,-2.3595,-2.3595,-2.3595,-2.3683,-2.4633,-2.4885,-2.4926,-2.6645,-2.7028,-2.6916,-2.8142,-2.8716,-2.9051,-2.9797,-3.004,-3.0093,-3.0445,-3.0734,-3.1157,-3.2036,-3.3034,-3.4015,-3.4759,-3.5284,-3.5622,-3.5622,-3.5859,-3.6491,-3.806,-3.9068,-4.0032,-4.1218,-4.1937,-4.2342,-4.2342,-4.2021,-4.1937,-4.2302,-4.2021,-4.1937,-4.2302,-4.2342,-4.2462,-4.281,-4.3032,-4.325,-4.3479,-4.3497,-4.325,-4.275,-4.3214,-4.325,-4.2711,-4.3214,-4.3497,-4.3497,-4.3497,-4.3497,-4.3497,-4.3497,-4.3497,-4.3497,-4.3497,-4.3497,-4.3497,-4.3497,-4.3069,-4.2306,-4.1667,-4.1165,-4.0728,-4.0288,-4.0097,-4.007,-4.007,-4.007,-4.007,-4.007,-4.007,-4.007,-4.007,-4.007,-4.007,-4.007,-4.002,-3.9766,-3.9174,-3.8345,-3.7567,-3.6941,-3.5599,-3.4952,-3.558,-3.4436,-3.3388,-3.2633,-3.1353,-3.0278,-2.9609,-2.8951,-2.8278,-2.7625,-2.766,-2.766,-2.7625,-2.6411,-2.6066,-2.6482,-2.527,-2.4971,-2.5435,-2.5435,-2.5091,-2.4492,-2.4492,-2.4178,-2.3595,-2.3595,-2.3638,-2.3724,-2.4343,-2.4879,-2.5351,-2.5954,-2.6816,-2.774,-2.7963,-2.8836,-2.9968,-3.0698,-3.0924,-3.0994,-3.1185,-3.1777,-3.2371,-3.2398,-3.3423,-3.4675,-3.5436,-3.5673,-3.574,-3.5808,-3.6315,-3.7009,-3.7838,-3.8968,-4.0019,-4.0689,-4.1313,-4.1707,-4.1707,-4.1664,-4.1664,-4.1707,-4.1664,-4.1682,-4.1707,-4.1707,-4.175,-4.1793,-4.2342,-4.2902,-4.341,-4.3479,-4.325,-4.275,-4.3214,-4.325,-4.2711,-4.3214,-4.3497,-4.3497,-4.3497,-4.3497,-4.3497,-4.3497,-4.3497,-4.3497,-4.3497,-4.3497,-4.3497,-4.3497,-4.2847,-4.181,-4.181,-4.1122,-4.007,-4.007,-4.007,-4.007,-4.007,-4.007,-4.007,-4.007,-4.007,-4.007,-4.007,-4.007,-4.007,-4.007,-3.9597,-3.9377,-3.9783,-3.8193,-3.7195,-3.7618,-3.6279,-3.5228,-3.4855,-3.4113,-3.334,-3.2641,-3.1844,-3.0807,-2.9663,-2.8951,-2.8278,-2.7625,-2.8042,-2.8091,-2.7625,-2.7801,-2.7159,-2.5809,-2.554,-2.4911,-2.4029,-2.4029,-2.3954,-2.3819,-2.3819,-2.3729,-2.3595,-2.3595,-2.3837,-2.4328,-2.5471,-2.5857,-2.597,-2.7035,-2.7196,-2.7233,-2.9109,-3.0712,-3.1974,-3.2505,-3.2652,-3.2513,-3.1845,-3.2211,-3.2874,-3.3107,-3.3812,-3.4675,-3.5436,-3.6079,-3.6688,-3.728,-3.7077,-3.7144,-3.8481,-3.9328,-3.9899,-4.0231,-4.0703,-4.1087,-4.1087,-4.075,-4.0642,-4.1041,-4.0703,-4.0625,-4.1041,-4.1087,-4.1268,-4.175,-4.2342,-4.275,-4.2864,-4.325,-4.325,-4.275,-4.3214,-4.325,-4.2711,-4.3214,-4.3497,-4.3497,-4.3497,-4.3497,-4.3497,-4.3497,-4.3497,-4.3497,-4.3497,-4.3497,-4.3497,-4.3497,-4.2847,-4.181,-4.181,-4.1122,-4.007,-4.007,-4.007,-4.007,-4.007,-4.007,-4.007,-4.007,-4.007,-4.007,-4.007,-4.007,-4.007,-4.007,-3.9749,-3.9529,-3.9546,-3.8548,-3.7719,-3.7398,-3.6654,-3.5874,-3.5131,-3.4808,-3.4309,-3.3614,-3.2637,-3.1498,-3.0136,-2.9398,-2.8743,-2.8057,-2.8334,-2.8174,-2.7625,-2.7591,-2.7076,-2.6078,-2.5749,-2.5241,-2.4552,-2.4552,-2.4388,-2.4088,-2.4088,-2.4068,-2.4021,-2.4341,-2.4843,-2.544,-2.6719,-2.712,-2.7127,-2.7614,-2.7913,-2.8387,-3.0419,-3.1875,-3.289,-3.3105,-3.3214,-3.3014,-3.2092,-3.2379,-3.3062,-3.3311,-3.4125,-3.5155,-3.6224,-3.675,-3.7077,-3.7318,-3.7618,-3.8058,-3.8836,-3.9518,-4.0004,-4.0086,-4.0336,-4.0546,-4.0546,-4.0286,-4.0204,-4.0497,-4.0286,-4.0204,-4.0497,-4.0546,-4.075,-4.1313,-4.1664,-4.1937,-4.2262,-4.2808,-4.2976,-4.2693,-4.3214,-4.3375,-4.3087,-4.3375,-4.3497,-4.3497,-4.3883,-4.4066,-4.4066,-4.3681,-4.3699,-4.4066,-4.3663,-4.3497,-4.3497,-4.3497,-4.2847,-4.181,-4.181,-4.1122,-4.007,-4.007,-4.0067,-4.0086,-4.0086,-4.0089,-4.0095,-3.9901,-4.002,-4.007,-4.007,-4.007,-4.007,-4.007,-3.9969,-3.9715,-3.9242,-3.8954,-3.8379,-3.728,-3.7043,-3.6654,-3.5876,-3.5983,-3.5712,-3.4871,-3.3762,-3.2428,-3.0795,-3.0117,-2.9399,-2.8669,-2.8463,-2.814,-2.776,-2.7218,-2.6789,-2.6572,-2.6033,-2.5719,-2.56,-2.5495,-2.5136,-2.4612,-2.4582,-2.4585,-2.4647,-2.5347,-2.61,-2.686,-2.8081,-2.8548,-2.8568,-2.8438,-2.9059,-3.0132,-3.1524,-3.2534,-3.3214,-3.3273,-3.3393,-3.3334,-3.2492,-3.2912,-3.3674,-3.3825,-3.4731,-3.5919,-3.7148,-3.7404,-3.7347,-3.7148,-3.8031,-3.8999,-3.9172,-3.9648,-4.007,-4.007,-4.007,-4.007,-4.007,-4.007,-4.007,-4.007,-4.007,-4.007,-4.007,-4.007,-4.0286,-4.0733,-4.0874,-4.1133,-4.1621,-4.2302,-4.2711,-4.2711,-4.3214,-4.3497,-4.3497,-4.3497,-4.3552,-4.3699,-4.4378,-4.4856,-4.5112,-4.4158,-4.4048,-4.4672,-4.3864,-4.3497,-4.3497,-4.3497,-4.2903,-4.1937,-4.1824,-4.1171,-4.022,-4.0239,-4.0246,-4.0349,-4.0603,-4.0433,-4.01,-3.9209,-3.961,-4.007,-4.007,-4.007,-4.007,-4.007,-3.9546,-3.9326,-3.9868,-3.8836,-3.8227,-3.865,-3.8125,-3.7449,-3.6688,-3.7202,-3.7047,-3.563,-3.5383,-3.4088,-3.1502,-3.082,-3.0078,-2.9303,-2.8271,-2.7959,-2.8367,-2.829,-2.7664,-2.6587,-2.6497,-2.6153,-2.5585,-2.497,-2.4672,-2.4582,-2.4472,-2.4782,-2.5415,-2.5948,-2.7153,-2.8631,-2.9448,-2.9868,-3.0096,-3.0709,-3.1038,-3.1239,-3.1887,-3.2564,-3.3273,-3.3606,-3.4202,-3.4666,-3.4181,-3.508,-3.6111,-3.5755,-3.63,-3.6991,-3.7203,-3.7697,-3.8197,-3.8339,-3.8491,-3.8889,-3.9797,-4.0003,-4.007,-4.007,-4.007,-4.007,-4.007,-4.007,-4.007,-4.007,-4.007,-4.007,-4.007,-4.007,-4.0121,-4.0204,-4.0607,-4.0949,-4.1041,-4.2062,-4.2711,-4.2711,-4.3214,-4.3497,-4.3497,-4.3497,-4.3828,-4.4544,-4.4654,-4.5406,-4.6783,-4.5259,-4.4599,-4.4672,-4.3864,-4.3497,-4.3497,-4.3497,-4.3124,-4.2541,-4.2038,-4.1414,-4.081,-4.0776,-4.0882,-4.118,-4.2569,-4.1813,-4.0095,-3.8962,-3.9193,-3.9558,-4.002,-4.007,-4.007,-4.007,-3.98,-3.9715,-4.0037,-3.9512,-3.8937,-3.8447,-3.733,-3.6485,-3.6163,-3.684,-3.6831,-3.5696,-3.5646,-3.4761,-3.2751,-3.1641,-3.073,-3.0028,-2.8729,-2.8238,-2.8511,-2.814,-2.7709,-2.7141,-2.7141,-2.6976,-2.6692,-2.6408,-2.6063,-2.5751,-2.6028,-2.6264,-2.6598,-2.7869,-2.8982,-3.0005,-3.1011,-3.1442,-3.1554,-3.1684,-3.1757,-3.1846,-3.2256,-3.2894,-3.3623,-3.4266,-3.4697,-3.5007,-3.5072,-3.5836,-3.6586,-3.6132,-3.6773,-3.7578,-3.7578,-3.8402,-3.9247,-3.9437,-3.9815,-4.0162,-4.0114,-4.007,-4.0204,-4.0497,-4.0528,-4.0528,-4.0528,-4.0528,-4.0449,-4.0121,-4.007,-4.007,-4.007,-4.007,-4.007,-4.007,-4.0577,-4.0903,-4.0903,-4.2021,-4.2711,-4.2711,-4.3214,-4.3497,-4.3497,-4.3497,-4.3883,-4.4709,-4.5149,-4.5957,-4.7075,-4.6397,-4.581,-4.5333,-4.4066,-4.3497,-4.3497,-4.3497,-4.3214,-4.2675,-4.2411,-4.1955,-4.1392,-4.1389,-4.1452,-4.1683,-4.3027,-4.285,-4.181]}]]